ECMWFNIL_925_thetae_000.txt.gz
Theta_e
337 337 336 336 336 336 336 334 335 335 334 335 335 336 337 337 336 336 336 336 336 336 336 336 337 337 338 339 338 338 338 338 338 339 340 339 337 336 336 336 336 337
337 338 337 335 336 336 336 335 334 334 335 335 336 336 337 336 335 335 335 335 335 335 335 336 336 337 338 338 338 337 338 337 338 339 339 338 336 334 334 335 335 336
338 338 338 337 337 337 336 335 334 334 335 336 336 336 335 335 334 334 334 334 334 334 335 335 336 337 337 338 337 337 337 337 337 338 337 336 334 333 334 334 335 334
340 338 337 337 337 336 335 334 334 334 336 336 336 335 335 334 334 334 334 334 334 334 334 334 335 336 336 336 336 336 335 336 336 337 336 336 335 335 335 335 335 333
340 339 337 336 336 336 335 335 334 334 335 336 336 335 335 335 335 334 334 334 334 334 334 334 334 335 336 336 336 336 336 336 337 336 336 337 336 336 336 335 334 332
339 339 337 337 336 336 335 335 334 335 336 335 336 336 335 335 335 334 334 334 334 334 334 333 333 334 334 335 336 336 337 337 337 336 335 336 337 336 336 334 333 332
338 338 337 337 337 336 336 335 335 336 335 335 336 335 335 335 335 335 334 334 334 334 334 334 334 333 333 333 334 335 336 335 336 335 334 335 337 337 336 334 333 331
339 339 339 339 338 337 337 336 336 336 335 335 336 335 336 335 335 334 334 334 334 333 334 334 334 334 334 333 333 334 335 334 334 334 334 335 336 336 335 333 332 331
338 338 338 338 338 337 337 336 335 335 335 335 335 334 334 334 333 333 332 333 333 333 334 334 334 334 334 333 333 334 335 335 334 334 334 335 336 335 334 332 331 331
337 338 338 337 337 337 336 336 334 333 333 332 332 330 330 330 331 332 331 331 332 332 332 333 333 334 333 333 333 332 332 333 334 335 335 335 335 334 333 332 331 331
337 337 338 337 337 336 335 334 334 332 330 329 329 329 330 331 332 331 330 330 330 330 331 331 331 332 332 334 334 332 329 327 329 332 334 334 334 335 334 331 331 330
338 337 338 337 337 336 335 334 333 332 331 330 330 330 330 331 330 329 329 329 329 329 329 330 330 330 332 334 335 335 332 328 327 330 333 334 333 334 333 332 331 330
339 338 338 337 336 336 335 334 334 333 333 332 331 331 331 331 330 330 330 329 329 329 329 329 329 330 332 335 337 337 335 332 331 331 333 334 333 333 333 332 330 330
339 338 338 337 336 335 334 334 334 334 335 334 333 334 334 333 332 330 329 329 328 328 329 328 329 331 334 337 337 335 333 332 332 331 332 333 334 333 333 332 331 330
337 337 337 336 336 335 334 334 334 335 335 335 335 336 335 334 333 331 330 329 328 329 328 328 330 333 334 334 334 332 331 333 333 331 331 333 333 333 332 331 330 330
334 335 335 335 335 334 333 334 334 335 336 335 335 336 336 335 332 331 330 329 329 329 328 329 331 331 331 331 331 330 329 331 332 330 329 330 330 331 330 329 329 329
333 334 335 335 334 333 333 334 334 335 335 335 335 336 336 334 332 331 330 329 328 328 328 330 330 330 328 328 329 330 328 328 327 327 326 326 326 327 328 328 329 328
335 336 336 335 335 334 334 334 334 334 335 334 335 336 335 333 331 330 328 327 327 328 329 331 330 329 328 326 327 330 330 328 326 326 326 326 325 326 325 326 329 330
336 337 336 335 335 334 333 334 334 334 334 334 334 335 334 332 329 328 328 327 327 329 330 330 329 328 328 327 327 328 328 328 327 327 328 329 329 327 324 326 330 332
336 336 335 335 334 333 333 333 333 334 333 333 334 333 332 330 328 328 327 326 328 330 330 329 329 328 327 327 327 327 327 327 327 327 328 331 331 329 327 328 330 332
337 336 334 334 333 333 333 332 333 334 334 333 334 333 331 329 327 327 327 327 328 329 329 330 329 328 328 329 328 327 326 326 327 327 328 329 329 328 328 328 327 328
336 335 334 333 332 332 332 332 333 335 333 333 334 333 331 329 327 327 327 327 327 327 329 331 330 329 329 328 327 327 325 324 325 327 327 328 328 327 326 325 324 326
334 334 333 332 332 332 331 331 333 333 332 332 333 332 332 330 328 327 327 327 327 327 329 331 330 329 328 327 327 327 325 323 324 325 327 328 328 327 325 323 323 326
332 331 331 332 332 332 330 331 332 331 331 332 332 332 332 331 329 328 327 327 327 326 328 329 328 327 327 327 327 326 324 324 325 327 329 328 327 326 325 322 323 326
331 330 331 331 332 330 330 330 329 328 329 330 330 330 330 329 329 328 327 328 327 326 326 326 326 327 327 327 327 326 325 325 327 329 330 328 326 326 325 324 323 325
329 330 331 331 331 330 330 329 328 328 330 330 330 330 329 329 329 328 327 328 327 326 325 325 325 326 326 326 326 326 326 326 327 329 329 328 328 327 326 326 325 325

ECMWFNIL_925_thetae_003.txt.gz
Theta_e
337 335 335 335 334 334 336 336 335 335 334 334 334 334 335 336 334 334 335 335 334 334 334 334 334 334 335 336 336 337 338 337 337 337 338 338 337 335 333 333 334 335
336 336 334 335 335 334 333 333 334 335 333 333 333 334 335 335 334 334 335 334 333 333 334 334 334 334 334 335 336 337 337 336 336 336 337 337 337 335 333 333 335 335
336 336 335 334 334 333 334 334 334 334 333 332 334 335 335 335 334 334 333 333 333 333 334 333 333 333 333 334 335 336 336 336 335 336 337 336 335 335 334 335 335 334
336 337 337 336 335 335 336 336 334 333 333 334 335 336 336 334 334 333 333 334 334 334 334 333 334 333 333 333 335 336 336 335 336 336 337 336 335 335 336 335 334 334
337 337 337 337 337 337 336 335 333 333 334 335 336 336 335 335 335 334 334 334 333 333 333 333 333 333 333 333 334 334 334 335 336 337 337 336 335 335 336 336 334 333
339 338 337 336 336 336 335 334 334 333 334 334 334 335 336 336 335 334 333 333 334 334 333 333 333 333 334 333 333 334 333 334 335 336 336 336 335 335 336 337 335 333
340 339 337 336 335 335 336 335 334 334 334 334 334 335 335 334 334 333 332 332 333 334 333 333 333 333 333 333 333 333 333 334 334 334 335 336 335 334 336 337 334 333
340 339 338 336 336 336 336 335 334 335 334 334 334 334 334 335 334 334 334 333 333 333 332 331 331 331 332 332 333 333 332 332 333 334 334 335 334 334 336 336 334 332
339 338 337 336 336 336 336 336 335 335 334 334 334 334 334 335 334 334 334 334 332 331 331 330 329 330 331 332 332 332 333 333 333 333 333 333 334 334 335 335 333 332
338 338 338 338 338 338 337 337 336 335 335 335 334 333 333 334 333 332 332 332 331 331 331 330 330 330 331 331 332 333 334 334 333 331 331 330 331 332 334 335 334 332
339 339 338 339 338 338 337 337 336 335 334 333 332 331 331 331 330 331 331 331 331 330 329 329 330 330 331 331 332 334 335 333 332 332 332 330 330 330 332 334 335 333
338 338 338 338 338 337 337 336 335 334 333 331 330 330 330 330 330 331 331 330 329 329 329 330 330 330 329 328 331 334 334 332 331 332 333 333 331 331 330 333 335 334
338 337 337 337 337 337 336 335 335 334 333 332 332 332 331 331 331 331 331 331 330 330 330 329 329 328 328 329 331 333 331 330 331 331 332 331 330 330 329 330 333 333
337 337 337 336 337 337 336 336 335 334 333 333 333 333 332 332 333 333 333 333 331 330 329 328 327 328 329 330 331 332 331 330 330 330 330 328 327 327 328 328 330 330
338 337 337 337 337 337 336 336 335 334 334 333 333 333 333 334 334 334 334 334 332 330 329 328 329 330 330 330 330 331 330 329 327 327 327 326 325 325 325 325 326 325
340 337 337 337 337 336 336 335 334 333 333 332 333 334 335 335 335 335 335 334 332 330 329 328 329 329 330 329 329 328 328 328 327 327 327 327 327 326 325 325 325 325
340 338 338 337 337 336 336 334 334 333 333 333 335 335 335 335 335 336 335 333 332 330 328 327 327 328 329 329 329 327 326 328 329 329 330 329 328 327 327 327 328 328
341 339 338 337 337 336 335 334 334 333 333 334 334 334 334 335 335 335 334 333 332 330 328 326 327 328 329 329 328 327 327 328 329 329 329 329 328 328 328 329 330 329
340 338 336 335 335 334 334 334 333 333 333 333 334 334 334 334 335 335 334 332 330 329 327 327 327 329 329 329 328 327 327 327 327 326 326 325 326 327 328 328 328 327
336 335 334 333 333 333 334 333 333 333 333 333 333 333 333 335 335 334 333 331 330 328 327 327 328 329 330 329 328 327 328 328 326 325 324 324 324 325 327 328 326 326
336 334 333 334 334 334 334 334 334 333 333 332 333 333 333 334 334 333 332 331 329 328 327 327 329 329 329 328 328 328 328 328 326 324 324 324 324 324 326 327 326 326
337 335 334 335 335 335 335 335 334 333 332 332 332 333 333 334 335 333 332 331 329 328 327 328 329 329 329 329 329 328 327 327 326 325 324 324 325 325 326 326 326 326
337 335 335 335 335 336 336 335 334 333 331 331 332 333 333 333 332 331 330 331 330 327 328 330 330 329 328 329 328 327 327 327 327 326 325 325 326 328 328 327 326 326
337 335 335 335 335 336 335 334 334 333 332 331 332 333 331 330 328 328 330 331 329 327 327 328 328 327 328 328 327 326 326 327 327 327 326 326 327 328 328 328 327 327
337 335 335 335 336 335 334 333 333 332 331 332 332 332 331 330 330 331 331 330 328 326 326 326 326 326 327 327 325 324 325 326 326 326 326 326 327 327 328 328 328 328
337 335 335 335 336 335 333 333 333 332 333 333 333 334 333 332 332 332 331 329 327 327 327 326 325 325 325 325 323 323 325 326 326 327 326 325 325 326 326 326 327 327

ECMWFNIL_925_thetae_006.txt.gz
Theta_e
336 336 335 333 332 332 333 335 336 336 336 335 334 333 334 335 336 334 333 334 335 334 332 332 332 332 332 333 333 334 334 335 335 335 335 336 336 337 335 333 333 334
336 336 335 333 333 332 333 335 336 336 335 334 333 332 333 333 333 332 332 334 335 333 332 333 333 333 333 332 333 334 334 335 335 335 335 335 336 336 335 334 333 334
335 336 335 333 334 333 333 334 334 334 333 333 332 332 332 332 332 333 334 334 333 332 333 333 333 333 333 333 333 333 334 335 335 335 335 335 336 336 335 334 334 334
336 336 335 334 333 333 333 333 332 332 333 332 332 332 333 334 334 334 334 333 332 333 333 333 333 333 333 333 333 333 334 334 335 335 336 336 336 336 335 335 335 335
337 336 335 335 333 333 333 334 333 333 333 332 333 334 335 335 334 334 334 333 334 334 333 332 332 332 332 333 333 333 333 333 333 333 335 336 336 336 335 335 335 336
338 336 335 336 335 334 335 336 335 334 333 332 334 334 336 335 334 335 335 334 334 333 332 333 333 333 332 332 332 332 332 332 331 332 334 334 334 335 335 335 335 336
339 337 336 337 336 335 337 336 335 334 332 332 334 334 335 335 334 335 335 333 332 331 331 332 332 331 330 330 330 330 331 331 332 332 332 333 333 334 335 334 334 335
340 337 336 336 337 336 337 335 334 333 332 332 334 333 334 334 334 335 334 332 332 332 332 331 330 330 329 329 330 330 330 332 333 333 333 333 333 334 335 335 334 335
339 337 337 337 337 336 336 335 334 333 332 332 333 334 334 333 334 334 332 332 333 333 333 332 330 329 329 329 329 330 331 332 333 333 333 332 332 333 333 333 335 336
338 338 338 338 336 335 335 334 333 332 331 333 333 334 334 334 334 334 333 333 333 332 332 331 330 329 329 329 330 331 331 332 332 333 333 333 332 332 330 330 332 334
339 339 339 339 338 336 335 334 333 333 333 333 334 334 335 334 334 334 333 332 331 331 330 330 329 329 329 330 330 330 329 330 332 332 332 331 332 332 332 331 331 332
340 340 340 339 338 336 336 335 334 334 335 335 336 335 334 333 332 331 331 330 330 330 330 330 330 329 329 330 329 328 328 329 331 331 330 330 331 331 331 330 330 330
340 340 339 339 337 337 336 336 335 335 336 336 335 334 332 331 330 329 330 330 330 331 331 331 330 329 328 328 328 327 327 329 331 330 328 327 329 329 328 327 326 326
341 340 339 338 338 338 337 336 336 336 336 336 335 333 331 330 331 331 331 332 332 333 332 331 329 328 328 328 328 328 328 329 330 329 326 323 324 325 325 325 325 324
339 339 339 338 337 337 336 336 335 336 336 336 333 332 332 332 332 332 332 333 334 334 333 332 330 329 329 328 328 329 328 328 329 328 326 324 324 325 326 326 326 326
339 339 339 338 337 336 336 335 335 336 336 335 334 333 333 333 332 333 333 334 334 334 334 333 331 329 327 326 327 328 329 328 328 327 327 327 328 329 329 329 329 328
339 339 339 338 336 336 335 335 336 336 336 336 335 333 332 332 333 333 334 334 335 335 334 333 331 329 327 326 327 328 329 328 327 327 328 328 328 328 327 328 328 327
339 339 338 337 336 335 335 335 336 336 337 336 335 333 332 332 333 333 333 333 334 334 334 333 331 329 328 326 326 328 328 328 326 327 327 326 325 325 324 324 325 325
339 339 338 337 337 337 335 336 337 337 336 335 334 333 332 332 333 333 333 333 334 335 334 333 330 329 327 326 327 328 328 328 326 327 327 326 324 324 323 324 324 324
340 340 338 338 339 338 337 336 336 336 335 334 334 333 333 332 333 333 333 333 334 335 335 334 331 329 328 327 327 329 329 327 327 327 327 326 325 325 324 325 326 326
341 341 340 340 339 339 338 337 335 336 335 334 333 332 332 332 332 332 333 333 333 334 335 334 332 330 328 327 328 329 328 327 327 327 326 326 326 325 325 327 328 328
343 343 342 341 340 339 338 337 336 336 334 333 332 332 332 332 332 332 332 332 333 335 334 333 332 330 329 329 329 329 328 328 328 327 326 325 325 326 326 326 326 327
344 343 341 341 339 339 338 336 336 335 333 333 333 332 332 332 331 331 333 334 334 334 333 331 330 330 329 329 329 328 328 328 327 326 325 325 325 326 325 324 324 324
342 340 341 340 339 339 337 336 335 334 332 332 333 333 332 332 333 333 334 334 333 332 331 329 328 328 328 328 328 328 328 327 326 325 325 325 326 326 325 323 322 321
341 340 341 339 337 337 335 334 334 332 333 334 333 334 334 333 334 334 333 332 331 329 329 327 326 327 326 326 326 327 327 326 324 325 325 326 326 325 324 322 321 320
339 339 339 338 336 335 334 334 334 334 334 334 334 334 335 334 333 332 331 331 330 328 328 327 326 326 325 326 326 326 326 324 324 325 326 326 325 324 322 321 320 321

ECMWFNIL_925_thetae_009.txt.gz
Theta_e
337 336 335 334 334 334 333 330 332 335 336 337 337 336 334 334 336 337 335 334 333 332 332 331 331 332 332 332 333 333 333 334 334 334 334 334 334 335 336 335 333 332
337 335 334 334 335 335 333 331 332 335 336 337 337 334 334 334 335 335 335 334 333 333 333 332 331 332 332 332 332 332 333 334 334 334 335 335 334 334 335 335 335 333
337 334 332 333 335 334 333 332 332 334 335 336 335 334 334 333 333 334 333 331 333 333 333 332 332 333 333 333 333 333 333 333 333 333 333 334 335 335 335 335 335 334
336 333 333 334 334 334 332 332 332 334 335 335 334 333 332 332 332 332 331 332 333 333 333 332 333 333 332 332 332 332 333 333 332 332 332 332 333 334 335 335 335 335
335 333 334 334 334 333 332 332 333 334 335 333 332 332 331 332 332 333 333 333 333 333 332 333 333 332 332 332 331 331 331 331 331 331 331 331 332 333 334 335 336 335
335 334 335 335 334 334 332 332 332 333 332 331 330 331 331 333 334 334 334 334 333 333 334 334 332 332 332 331 332 331 330 330 331 331 331 332 332 332 333 334 336 335
335 335 335 335 335 334 332 332 332 333 331 330 330 331 333 334 335 335 334 334 334 334 334 332 331 331 331 331 331 330 329 330 330 330 331 332 332 332 332 333 334 335
335 335 335 335 335 334 333 332 332 333 333 332 332 332 333 334 334 334 334 334 334 334 332 331 331 331 331 330 329 329 329 329 330 330 331 332 333 333 332 332 334 335
335 336 335 335 335 334 333 333 333 334 335 334 332 331 332 333 333 333 333 333 333 333 332 331 332 332 331 330 329 329 329 330 330 330 330 331 332 333 332 332 333 332
336 335 335 335 335 335 335 334 334 335 335 334 333 331 331 332 332 333 333 333 333 332 331 331 332 331 330 330 329 329 330 330 329 328 329 330 331 332 332 331 332 331
336 336 336 336 337 336 336 336 335 335 335 334 333 331 330 332 332 333 333 333 333 333 332 331 331 330 330 330 329 329 329 329 328 327 329 330 331 330 330 330 330 331
335 337 334 332 336 338 337 337 336 335 334 333 332 331 331 332 333 334 334 334 333 333 332 330 330 330 330 330 329 328 328 328 327 328 328 329 329 328 327 329 329 328
337 336 326 326 335 340 338 337 335 334 334 332 331 332 332 334 334 334 334 333 332 331 330 330 329 331 331 330 329 327 327 327 327 328 328 328 329 327 326 326 326 325
336 330 320 324 336 338 336 337 336 335 333 331 332 333 333 335 335 333 332 331 330 329 330 330 331 332 331 330 328 327 327 328 328 328 328 328 329 328 325 323 323 323
335 327 324 332 338 336 335 337 336 335 334 332 333 335 335 335 334 332 330 330 330 331 331 332 333 332 332 331 330 328 327 327 326 328 328 328 328 328 326 325 325 326
335 330 330 334 335 334 335 337 337 337 335 334 335 335 335 336 334 332 331 331 331 331 332 333 333 333 333 332 331 329 326 326 327 327 328 328 327 327 327 327 326 325
334 330 330 330 329 333 336 337 337 337 336 335 336 335 335 336 334 332 332 331 332 332 332 333 333 334 333 331 331 330 327 326 326 327 328 328 327 327 327 326 324 323
333 330 330 329 329 333 337 338 337 337 337 337 336 335 336 335 334 333 332 332 332 332 332 333 333 334 333 332 330 329 328 326 326 327 328 327 327 326 325 324 323 323
333 329 330 331 331 333 337 338 337 337 337 337 335 335 335 335 334 333 333 332 332 332 333 333 332 333 333 333 331 330 329 328 327 327 328 328 327 326 325 325 325 324
334 329 331 333 333 335 338 338 337 337 336 336 335 335 335 335 334 334 334 332 331 332 332 332 332 332 333 333 333 332 330 329 328 327 328 328 327 326 326 325 325 325
334 332 333 335 335 336 337 337 337 337 336 335 335 335 335 335 334 334 333 332 331 332 331 331 331 331 332 333 334 334 333 331 328 328 328 328 326 326 326 325 325 325
332 332 335 336 337 337 337 337 337 336 336 335 335 335 334 335 334 333 333 331 331 332 332 331 332 332 333 334 334 333 333 330 328 328 328 327 326 326 325 325 325 325
332 334 337 337 337 336 336 337 337 337 336 336 335 335 335 335 334 333 331 331 331 332 332 333 332 333 333 333 332 331 331 329 329 328 327 326 326 326 325 324 325 325
335 336 337 337 337 337 336 337 337 336 336 336 335 335 335 335 334 333 332 332 332 332 333 333 333 333 331 330 329 329 329 329 329 328 327 327 326 325 324 324 325 323
338 337 337 337 337 337 336 337 337 336 336 336 336 335 335 335 335 334 333 333 332 333 333 332 332 330 328 328 328 328 329 329 328 327 327 326 325 324 324 325 323 321
339 338 337 337 336 336 337 338 338 337 337 336 336 335 335 334 334 333 333 333 332 332 331 330 329 328 327 327 326 327 328 328 328 327 326 325 324 324 325 324 321 320

ECMWFNIL_925_thetae_012.txt.gz
Theta_e
352 353 351 346 342 342 340 336 335 335 335 335 336 336 335 334 333 334 337 337 334 333 332 331 331 331 331 332 332 332 332 333 333 333 334 334 334 334 334 334 335 334
351 352 349 342 339 339 337 335 334 334 334 334 335 335 336 335 333 333 336 336 334 333 332 332 331 331 331 331 331 332 332 332 333 333 333 334 334 334 334 334 334 335
351 352 347 340 337 337 335 334 333 333 332 333 335 336 336 335 333 334 335 335 334 333 333 332 332 331 332 332 332 332 332 332 332 332 332 333 332 333 333 334 335 335
351 350 345 338 336 335 334 333 332 332 332 334 336 336 336 334 334 334 335 334 333 332 332 332 332 332 332 332 332 332 332 332 332 332 331 331 331 331 331 332 334 335
351 348 342 337 336 334 333 333 332 332 332 334 336 336 335 334 333 333 333 333 332 330 331 333 332 332 333 332 332 331 331 331 331 331 331 331 330 331 331 331 332 333
350 347 341 337 335 334 334 334 333 332 332 333 334 334 334 333 332 332 331 331 331 331 332 332 332 332 333 332 332 331 330 330 330 330 330 330 330 330 331 331 332 332
350 346 340 337 335 334 334 334 333 332 331 332 334 334 333 332 331 330 330 331 331 332 333 333 332 333 333 332 331 330 330 329 329 329 329 329 330 330 330 331 332 332
349 346 340 336 335 334 334 333 333 332 332 332 333 332 331 330 330 330 331 332 333 333 333 333 333 333 332 331 330 330 329 329 329 329 329 329 330 330 329 330 331 332
348 345 339 336 335 334 334 333 333 332 332 332 332 330 329 329 330 331 333 334 334 334 334 334 334 332 331 331 331 330 329 329 329 329 329 329 329 328 328 330 332 332
345 343 339 335 334 334 334 334 333 332 332 332 332 330 329 330 331 332 333 334 334 334 334 333 332 331 331 331 331 331 330 329 329 329 329 329 328 328 328 330 331 330
342 340 337 335 334 334 333 333 333 333 332 331 332 332 331 331 331 332 332 333 333 333 333 332 331 330 330 330 330 330 329 329 329 329 329 328 327 327 329 329 329 328
341 338 335 334 334 333 334 334 333 330 329 329 332 333 333 332 331 331 332 332 333 333 332 332 332 331 330 330 330 329 330 330 329 328 327 327 327 327 328 328 328 327
339 336 334 335 334 333 336 333 328 327 326 328 333 335 334 334 333 331 331 332 332 333 333 333 333 332 331 330 329 330 330 330 328 327 327 327 327 327 328 328 328 326
337 335 336 336 335 335 334 328 325 326 325 327 334 336 334 334 333 332 331 331 332 333 333 333 333 332 331 329 329 330 330 330 328 327 327 327 327 327 327 328 328 327
336 335 336 336 336 334 328 324 327 327 325 330 335 336 334 334 333 332 332 332 333 334 333 332 330 330 330 330 330 331 330 330 329 328 327 327 326 327 327 328 327 327
335 336 336 335 335 329 324 325 328 327 327 333 337 336 335 334 332 332 332 333 334 334 331 330 329 329 330 331 331 331 331 331 331 329 327 326 326 327 328 328 327 327
335 335 336 335 332 327 325 328 329 327 330 335 336 336 336 334 332 332 332 333 334 333 331 329 330 330 330 331 332 332 332 332 331 330 329 327 326 326 327 328 327 326
335 334 334 333 329 326 328 331 330 331 334 336 336 336 335 334 333 332 333 334 335 334 331 330 331 331 331 331 332 333 333 332 331 331 330 328 327 326 327 328 327 326
333 331 331 330 327 328 332 333 331 332 335 336 336 336 335 334 334 333 334 335 335 335 333 331 331 331 331 331 332 332 333 333 333 332 332 331 329 327 327 327 327 326
332 330 331 329 328 330 335 334 331 331 333 334 333 333 334 335 335 334 335 334 335 335 333 332 331 331 331 331 332 332 333 333 333 333 333 332 331 329 327 328 327 326
333 331 330 330 331 334 335 333 331 331 331 331 331 332 334 335 335 335 335 334 335 334 333 332 332 331 331 331 332 332 332 333 333 333 333 333 332 330 328 327 326 326
334 332 330 331 334 336 334 332 332 332 331 331 332 334 335 335 335 336 335 334 334 334 334 333 333 332 332 331 331 331 332 333 333 333 333 333 331 329 328 327 326 325
333 331 330 331 334 334 333 332 332 332 332 332 333 335 335 335 335 336 334 334 335 334 334 334 333 333 332 331 332 332 333 333 333 332 332 330 329 328 327 326 325 325
333 331 331 333 333 333 333 333 333 333 333 334 335 335 336 336 336 336 335 334 334 334 334 334 333 333 332 332 332 332 331 331 330 330 330 329 329 328 327 326 325 325
333 331 332 333 333 334 334 333 334 334 334 335 335 335 336 336 335 335 334 334 334 334 334 333 333 333 332 332 331 329 329 328 328 329 329 329 328 327 326 325 325 325
335 334 334 331 332 334 335 334 335 335 335 336 335 335 335 335 334 334 334 333 333 333 333 332 332 332 331 329 328 327 327 327 327 328 329 328 328 326 325 325 324 324

ECMWFNIL_925_thetae_015.txt.gz
Theta_e
352 354 354 354 354 354 353 352 350 347 343 340 339 337 335 335 333 333 334 336 337 336 334 332 331 331 333 333 333 333 334 334 335 334 333 333 334 335 336 336 337 337
352 354 354 354 354 353 353 351 350 346 341 338 337 335 335 334 334 333 334 337 337 336 334 332 331 330 332 333 332 332 332 332 333 333 332 333 334 335 336 337 337 337
353 354 354 354 353 352 352 351 349 344 339 337 336 335 335 334 334 333 333 336 337 336 334 332 331 331 331 332 331 332 332 332 333 333 332 332 333 333 335 336 336 337
353 354 354 353 352 351 352 350 346 342 338 336 335 334 334 334 334 334 333 335 336 335 334 333 333 332 331 332 332 332 332 332 332 332 332 331 331 331 332 333 334 334
353 354 353 351 350 351 351 348 343 340 337 335 334 334 334 334 335 335 334 334 336 335 334 333 333 333 332 332 332 332 332 332 332 331 331 332 331 331 331 331 331 332
353 353 351 350 350 351 350 344 339 338 335 334 333 333 334 336 336 335 334 334 335 334 333 333 332 333 333 332 332 332 332 332 332 331 330 331 332 331 330 329 330 331
353 352 351 349 350 351 348 341 336 335 334 332 332 333 335 336 335 334 334 334 334 334 333 332 331 332 333 333 332 332 332 332 331 331 330 330 329 329 329 329 330 330
351 351 350 350 350 349 345 339 335 334 333 332 332 334 335 335 335 334 333 333 333 332 332 331 331 332 332 332 333 333 332 331 330 330 330 329 328 329 329 329 329 329
349 349 350 349 349 347 342 336 334 334 332 332 332 333 334 334 334 333 332 332 331 331 331 331 331 332 333 333 333 333 332 330 329 329 329 330 329 329 329 328 328 328
348 349 349 347 347 344 340 335 334 333 333 332 331 332 333 333 333 332 331 330 331 330 331 332 332 333 333 333 334 332 331 330 330 330 330 329 329 329 329 328 327 328
348 349 347 345 345 342 338 336 334 333 333 331 331 332 331 330 330 330 330 330 330 330 331 332 333 333 333 334 333 332 331 331 331 330 329 329 329 329 328 327 327 327
347 347 346 345 344 342 339 336 334 333 333 331 331 329 326 324 324 326 329 330 329 331 331 332 332 333 333 333 333 332 331 330 330 330 329 329 329 328 327 327 327 327
347 346 345 344 345 343 339 336 334 333 332 331 330 325 322 323 323 323 328 330 330 330 331 331 332 333 332 332 332 331 331 330 330 330 330 330 329 327 327 327 327 327
347 346 344 344 344 341 337 336 334 333 332 332 329 324 323 327 326 325 327 331 332 330 330 331 331 332 332 332 333 332 332 332 330 330 330 330 329 327 327 327 327 327
346 345 344 343 342 339 337 335 334 333 333 331 328 326 327 329 329 327 327 331 334 332 330 330 331 332 332 332 333 333 333 332 330 329 330 330 329 328 327 327 326 326
344 344 343 342 340 339 337 335 333 334 333 329 327 328 329 329 329 327 326 330 335 333 331 330 330 331 332 333 333 333 331 330 329 330 330 330 330 330 329 327 326 325
342 342 342 342 340 338 338 335 333 334 331 329 328 328 330 331 328 325 326 331 334 335 333 331 330 332 333 333 332 330 329 330 330 331 332 331 331 330 329 329 327 326
342 341 341 341 340 338 337 334 333 333 329 326 328 329 332 333 328 325 329 334 335 335 334 332 331 332 333 333 331 329 329 330 331 332 332 332 331 330 329 329 329 329
342 341 340 341 340 338 335 333 331 330 326 324 327 330 332 332 327 326 331 335 335 335 334 332 331 332 333 332 330 329 330 330 331 332 332 332 332 331 332 332 332 331
342 341 341 341 339 336 334 332 329 328 326 326 329 330 330 329 327 327 331 334 335 335 334 333 332 332 333 333 331 330 331 331 331 331 332 333 332 333 333 333 332 331
342 341 340 340 337 335 333 332 329 327 327 329 331 331 330 329 329 332 333 334 335 335 334 333 332 332 334 334 333 332 331 331 331 331 332 332 332 333 333 332 331 331
341 340 340 339 336 334 334 332 330 328 329 330 331 332 331 331 333 335 335 335 335 334 334 333 333 333 334 334 334 334 332 331 331 331 331 332 332 333 333 332 331 331
341 339 339 338 336 334 333 332 330 330 330 332 332 333 333 333 334 335 335 335 334 334 334 334 334 334 334 334 334 333 332 331 331 332 332 331 330 331 331 331 330 329
340 339 339 338 336 334 333 332 333 332 333 333 333 333 334 334 334 335 336 335 335 335 335 335 335 335 335 334 334 333 332 332 332 332 330 328 328 329 330 329 328 327
340 338 338 337 336 334 332 333 334 334 334 334 334 334 335 335 335 335 336 336 336 336 335 335 335 335 334 334 333 333 332 332 332 331 328 326 327 328 329 328 326 325
339 338 337 336 335 333 332 334 335 335 335 335 335 335 335 336 336 336 336 337 336 335 334 334 334 333 333 333 333 333 332 331 330 328 326 327 328 329 329 329 327 325

ECMWFNIL_925_thetae_021.txt.gz
Theta_e
363 363 362 361 360 358 357 357 357 358 356 355 355 353 351 349 347 347 346 346 346 345 344 343 342 342 341 340 339 339 340 339 338 338 338 339 338 337 337 337 336 337
364 363 362 361 360 359 358 357 357 358 356 354 353 352 351 350 348 347 346 346 346 345 343 343 343 342 340 339 339 339 340 340 338 337 338 338 338 337 337 336 336 337
365 364 363 361 361 360 359 358 358 358 356 354 354 353 352 351 349 348 346 346 346 344 343 343 343 342 340 339 340 340 340 340 339 336 336 337 338 338 337 336 336 335
366 365 364 362 361 360 360 359 358 358 356 354 354 354 353 351 349 348 347 346 345 343 342 343 342 342 341 340 340 341 340 339 339 337 337 337 337 338 338 337 337 335
368 367 365 363 362 361 361 361 359 358 356 354 354 354 353 352 349 348 347 345 343 342 343 343 342 342 341 340 340 340 340 339 338 338 337 337 337 338 337 337 337 336
369 369 367 365 363 362 362 361 360 359 356 354 354 355 354 352 349 348 346 344 342 342 343 343 343 342 341 341 340 340 339 339 338 337 337 337 337 337 336 336 336 336
369 370 368 366 364 363 363 363 362 360 358 355 356 356 354 351 348 346 346 344 342 342 342 343 343 342 341 341 340 340 339 339 338 338 338 338 338 337 336 335 336 336
368 370 369 367 365 364 364 364 363 361 359 357 357 356 353 350 348 345 345 344 342 342 342 342 342 342 341 341 340 340 340 340 339 339 339 338 338 338 337 336 336 337
368 370 370 368 366 364 364 363 361 361 359 358 358 355 352 351 348 345 344 343 343 343 343 343 343 343 342 342 341 340 340 340 340 340 339 338 338 338 337 336 337 337
369 369 369 368 367 364 363 360 359 360 360 358 357 354 352 351 348 345 344 343 343 344 343 343 343 343 343 342 340 339 340 341 340 340 339 338 338 337 337 337 337 337
369 368 369 368 365 363 362 359 356 359 360 358 356 354 352 351 348 346 344 344 345 344 343 343 343 343 343 342 339 338 339 341 340 339 339 338 337 337 337 337 337 337
369 368 368 367 364 362 360 357 355 358 359 357 355 353 352 351 348 345 345 347 345 342 342 343 343 342 342 340 337 338 339 340 339 339 338 338 337 337 336 337 337 337
369 368 369 367 363 361 360 358 356 355 355 356 354 352 351 350 347 345 346 348 343 338 342 345 342 339 340 338 336 337 339 340 339 339 338 337 337 337 337 336 336 336
370 370 369 367 363 361 361 359 357 352 350 353 354 352 350 349 347 346 347 347 344 342 344 346 340 337 339 339 336 337 339 340 341 339 338 337 337 337 337 336 335 335
372 371 369 367 364 362 361 360 359 354 348 349 354 353 349 348 348 348 348 346 345 344 344 341 338 337 339 337 334 337 340 340 340 340 339 338 338 338 338 336 336 335
372 370 369 368 365 363 362 361 359 356 351 350 354 353 349 347 348 348 346 344 344 344 342 338 336 335 333 330 332 338 341 340 340 339 339 339 339 338 338 337 336 336
371 369 368 367 365 364 362 361 359 358 355 353 353 351 349 347 346 346 346 344 344 343 340 337 336 334 330 328 332 338 341 340 339 339 338 340 339 339 338 337 337 336
370 369 368 366 365 363 362 361 360 358 356 354 352 351 349 348 347 347 345 342 341 339 336 337 336 334 332 329 330 336 340 340 339 339 339 339 338 338 337 337 336 336
369 369 368 365 364 362 360 360 359 357 356 355 353 352 351 351 349 346 343 340 340 338 335 336 335 334 333 330 327 332 338 338 337 337 337 337 337 336 335 336 337 337
368 368 368 365 363 361 359 358 358 357 356 354 354 353 353 352 349 345 343 340 339 337 335 335 335 335 334 331 327 329 333 334 334 336 337 335 335 335 334 336 339 338
368 368 367 365 362 360 358 357 356 357 356 354 353 352 352 350 347 344 343 340 338 337 336 336 337 336 336 335 331 329 330 331 333 337 338 336 336 336 334 337 341 340
368 367 366 364 360 359 358 357 356 356 356 354 352 351 350 348 346 344 342 340 338 338 338 338 338 337 338 337 335 332 330 331 335 339 339 337 337 337 337 340 342 340
368 367 366 363 360 359 358 357 356 355 354 354 352 350 349 347 345 343 341 341 339 339 339 339 338 338 338 338 337 334 332 334 338 340 340 340 339 340 341 341 339 337
369 367 365 363 361 359 357 356 355 353 353 353 351 350 349 347 344 342 341 340 339 338 338 338 338 339 339 338 337 335 334 338 340 341 341 342 341 341 341 339 336 335
368 366 365 364 361 359 356 354 355 353 352 351 350 349 349 347 345 343 341 339 338 337 337 338 338 339 339 338 338 336 335 338 341 341 342 342 341 341 340 338 336 335
366 366 364 363 361 358 354 353 353 352 350 350 350 348 347 346 344 342 340 338 337 336 336 336 337 337 338 338 338 337 335 337 341 342 340 341 342 341 339 337 335 333

ECMWFNIL_925_thetae_024.txt.gz
Theta_e
361 362 362 363 361 359 358 358 358 358 357 357 356 355 354 352 350 349 349 348 345 344 345 343 342 341 340 340 340 340 340 339 339 339 338 339 339 338 337 337 337 336
362 363 363 363 362 360 358 358 358 358 357 357 357 355 353 351 349 349 349 348 346 344 345 344 342 342 342 342 340 339 340 340 339 339 338 339 339 338 338 337 336 336
363 364 363 363 363 361 358 358 358 358 357 356 356 355 353 351 349 349 349 348 346 345 346 345 343 342 343 341 340 339 340 340 339 338 338 338 338 338 338 337 336 335
364 364 363 362 363 361 359 358 358 358 358 356 356 355 353 352 349 348 348 347 347 346 346 345 344 343 342 341 339 339 339 340 339 337 337 338 337 337 338 337 337 336
364 364 364 362 362 360 360 359 359 359 358 357 356 355 353 352 351 348 347 347 347 346 345 345 345 344 342 340 340 339 339 340 339 337 337 337 337 337 338 337 337 337
365 365 364 362 361 360 360 360 359 358 358 357 356 355 354 353 351 350 348 347 347 347 345 344 344 343 342 341 341 340 340 341 340 338 338 337 337 337 337 337 336 336
366 366 365 363 361 360 361 360 359 358 358 357 355 355 355 354 352 351 349 348 347 346 345 344 344 343 342 341 341 341 341 340 339 339 338 337 337 337 337 337 336 336
367 367 366 364 362 361 361 361 360 359 358 356 355 355 355 354 353 351 349 348 347 345 344 344 343 343 343 342 341 341 341 340 339 339 338 337 336 337 337 337 336 335
367 368 367 365 364 362 361 361 361 360 359 357 356 355 355 355 353 351 349 348 346 344 343 344 343 343 343 342 341 341 341 341 340 340 340 338 337 337 338 337 336 336
367 369 368 366 365 363 362 361 361 361 359 358 356 355 357 356 354 352 349 348 346 343 342 344 344 343 343 343 342 341 341 341 340 340 339 339 338 338 338 338 337 336
367 369 369 368 366 364 363 362 362 363 361 359 357 356 357 357 354 352 350 348 345 342 342 344 344 343 343 343 342 342 341 340 340 340 339 339 339 338 338 338 337 337
367 367 369 369 367 364 362 362 362 362 362 361 358 357 358 357 355 351 349 348 345 343 342 343 344 344 344 343 343 342 341 340 341 341 341 340 339 338 338 338 338 337
367 365 367 368 367 365 363 362 362 361 362 362 360 359 359 357 355 352 349 347 345 344 342 342 343 344 344 343 343 343 341 340 340 341 341 341 340 339 338 338 337 337
367 365 365 366 367 365 362 362 361 359 359 361 361 360 359 357 355 353 349 347 346 344 343 343 344 344 344 343 343 343 342 340 340 341 341 340 340 339 338 337 337 337
367 365 364 365 366 365 363 362 361 359 357 359 361 360 358 356 355 353 350 348 346 344 344 344 343 343 343 343 343 343 341 339 339 341 341 340 339 339 338 337 337 337
368 367 365 365 366 365 364 362 361 359 357 358 360 360 358 356 355 353 350 349 347 346 346 345 343 342 342 342 342 341 339 338 339 340 341 340 339 339 338 337 337 337
369 368 367 367 366 366 364 362 361 359 358 358 359 359 357 355 355 353 350 349 350 348 345 344 343 343 342 340 338 337 336 337 339 340 341 340 339 339 338 338 338 337
370 370 370 369 368 367 365 363 362 361 360 359 358 358 357 355 354 353 350 350 351 348 343 343 345 344 341 337 334 333 334 337 339 341 342 341 340 339 339 339 339 338
371 373 373 371 370 368 366 365 363 362 362 360 359 357 357 356 354 352 350 351 351 348 345 346 346 344 340 336 332 331 334 336 338 340 341 341 340 340 339 340 339 338
373 374 374 373 372 369 367 366 364 364 363 362 360 358 356 356 354 351 351 351 350 349 348 346 344 341 339 334 329 330 333 335 337 340 341 340 340 340 340 339 338 339
374 374 373 373 372 369 368 367 365 365 363 360 360 357 355 354 353 351 351 350 349 348 347 345 342 339 337 333 328 328 329 329 335 341 341 339 339 338 337 337 338 338
375 374 373 372 370 369 368 366 365 364 362 361 359 357 356 355 354 352 351 349 348 347 345 343 339 337 336 333 328 327 325 325 331 339 341 339 337 337 336 337 338 337
375 374 372 370 368 367 366 364 364 363 361 360 358 356 356 356 355 353 351 349 347 345 343 341 338 335 335 332 329 328 327 326 329 335 339 338 336 336 337 337 337 337
373 373 371 368 367 365 363 362 361 361 360 359 357 356 355 355 354 353 351 349 347 344 343 340 338 336 335 333 332 332 332 331 330 332 336 336 335 336 337 337 338 339
372 371 370 367 365 363 361 360 359 358 358 358 356 355 354 353 352 351 350 348 346 343 342 340 339 338 335 334 335 335 336 335 332 333 334 335 336 337 338 339 340 340
370 370 369 366 364 362 360 359 357 356 356 355 355 354 353 352 351 350 348 346 345 344 342 340 340 339 337 336 337 337 337 336 335 334 335 336 338 338 338 338 338 337

ECMWFNIL_925_thetae_027.txt.gz
Theta_e
361 362 361 360 359 358 358 355 354 354 353 354 353 352 353 353 352 351 351 351 349 348 347 344 342 340 339 339 338 338 339 339 338 337 339 339 335 336 337 336 337 337
362 362 361 360 358 358 357 355 353 353 354 354 354 352 352 353 353 351 352 351 347 348 347 343 342 340 338 339 339 339 339 339 338 338 339 338 335 336 338 336 336 336
363 363 362 360 358 357 357 354 353 354 355 354 354 353 353 353 352 351 352 350 346 346 346 342 342 341 337 338 339 339 340 339 338 339 338 338 337 336 337 337 336 335
363 362 362 360 359 358 357 356 355 355 356 355 355 353 353 353 351 351 352 350 346 345 345 343 344 342 339 338 339 339 340 339 338 339 338 338 338 337 337 337 337 335
363 362 361 360 360 359 358 357 356 356 356 357 355 354 354 352 351 351 351 349 347 345 344 344 344 343 340 339 340 340 339 339 338 338 339 337 337 337 337 337 337 336
363 362 361 360 361 361 359 358 357 356 356 357 356 355 355 353 351 351 350 349 347 346 344 344 344 343 341 340 341 340 339 339 337 336 338 339 337 337 336 336 337 337
363 362 361 361 361 361 360 359 358 357 356 357 357 356 356 354 351 350 350 349 348 346 345 344 344 343 342 341 341 341 339 338 337 336 336 338 338 337 335 336 337 337
364 363 362 361 361 361 360 359 359 358 357 357 357 356 356 354 351 350 349 349 349 347 346 345 344 344 343 341 341 341 339 338 338 337 335 336 338 337 336 336 336 335
364 363 362 362 361 361 361 359 359 359 358 357 357 356 356 354 352 351 349 349 348 347 346 346 345 343 343 342 341 341 340 338 338 338 337 336 337 337 337 337 336 336
364 364 363 363 362 361 361 360 359 358 358 358 357 356 356 355 353 352 350 349 348 347 346 346 345 344 343 343 341 341 340 339 339 340 339 337 337 337 336 336 336 337
364 364 363 363 362 361 361 360 359 358 358 358 357 357 356 355 354 353 351 349 348 347 347 346 345 344 343 343 342 340 340 340 339 340 340 338 337 337 336 336 337 337
364 364 364 363 362 362 361 360 360 359 358 358 357 357 356 356 355 354 352 350 349 348 347 346 345 344 343 342 342 341 340 340 340 340 340 339 339 339 337 336 336 337
364 364 364 363 363 362 361 360 360 359 359 359 357 357 356 355 355 354 353 351 350 349 347 346 345 344 343 342 342 342 341 340 339 339 339 339 340 341 339 338 337 337
364 363 364 363 363 362 361 360 359 358 359 358 358 357 356 356 355 355 354 352 351 349 348 346 344 344 343 342 342 342 342 341 340 339 339 339 339 340 339 339 338 337
363 363 364 364 363 363 362 361 359 358 358 359 358 358 356 356 356 355 354 353 351 350 348 346 344 344 343 343 342 342 342 342 341 340 340 339 339 340 339 339 338 337
363 363 363 364 364 363 362 362 360 359 359 359 359 358 356 356 356 356 355 353 352 350 348 346 344 344 344 343 342 342 342 342 342 341 341 340 340 341 341 340 338 338
363 363 363 364 364 364 364 362 361 360 360 360 360 359 357 356 356 356 356 354 352 351 349 347 345 344 344 343 342 341 341 342 341 341 341 340 340 341 341 340 339 338
364 363 363 364 364 365 365 364 362 361 360 360 361 360 359 357 357 357 356 354 353 351 349 347 346 344 343 343 343 341 341 342 341 340 341 340 339 340 340 340 339 338
365 365 364 363 364 364 365 364 363 361 361 360 361 361 360 358 358 357 356 354 353 351 349 347 346 345 344 343 343 341 341 342 340 338 340 340 339 340 340 340 339 338
366 366 365 364 364 364 365 365 364 362 362 360 360 361 360 359 358 357 356 354 352 351 349 348 347 346 344 344 343 341 342 343 340 337 338 339 339 339 340 340 339 339
366 366 366 365 364 364 364 365 364 363 362 361 360 361 360 360 359 357 355 354 352 351 350 348 347 346 345 344 343 341 341 342 340 337 338 339 339 339 340 340 340 339
366 366 366 367 366 365 365 365 364 364 363 362 361 360 360 360 358 357 356 354 352 351 350 348 347 346 345 344 344 342 341 341 340 337 336 338 340 340 341 341 340 340
367 367 368 368 367 367 366 366 365 364 363 363 361 360 360 359 358 357 356 354 352 351 350 349 347 346 345 344 344 343 342 342 340 336 334 337 340 341 341 340 339 340
367 368 369 369 369 369 367 366 366 365 364 363 362 360 359 358 357 356 354 353 352 351 351 349 348 347 346 345 345 344 343 341 338 335 333 336 339 341 341 339 338 339
369 369 370 371 370 369 368 367 366 365 364 363 361 360 358 357 356 355 353 352 351 350 350 349 348 347 345 344 344 344 342 339 336 334 334 335 337 338 339 338 337 339
371 371 371 371 370 369 367 367 366 365 364 362 360 359 358 357 356 354 353 352 351 350 349 347 346 344 342 340 340 339 339 338 335 334 333 333 332 333 335 336 336 338

ECMWFNIL_925_thetae_030.txt.gz
Theta_e
355 354 353 354 356 355 355 355 355 355 355 355 355 355 354 354 353 353 352 350 348 347 347 347 346 344 341 339 338 340 339 336 335 336 336 336 335 335 335 335 335 335
356 355 354 354 355 356 355 355 355 355 355 355 354 354 354 353 353 352 351 350 348 346 345 345 344 343 341 339 339 340 338 336 336 337 338 337 335 335 334 335 335 336
357 356 356 355 356 356 356 356 355 355 355 355 354 354 354 353 353 352 351 351 349 346 345 343 342 342 341 339 339 339 338 337 337 338 338 337 336 334 334 335 336 337
357 357 357 356 356 356 356 356 356 356 356 355 354 354 353 352 352 352 351 351 350 348 346 343 342 343 342 339 339 339 338 337 338 338 338 337 336 334 334 336 337 336
357 358 357 357 357 357 357 357 357 357 356 354 353 353 352 352 352 351 351 351 350 349 347 345 344 345 343 340 339 339 338 337 338 339 338 336 336 335 333 335 337 336
357 358 358 358 358 358 358 358 357 357 355 354 353 352 352 352 351 351 351 351 350 349 348 346 347 346 343 340 339 338 338 338 338 338 337 336 337 336 333 334 336 336
359 358 359 359 359 359 358 358 357 356 355 354 353 353 352 352 352 351 351 351 351 350 348 346 347 346 343 341 340 338 338 339 339 338 337 337 338 337 336 336 335 336
360 359 360 359 360 359 359 358 357 356 355 354 354 353 353 352 352 352 351 352 351 350 349 346 346 345 343 341 341 339 338 338 339 339 338 338 338 338 337 337 336 337
361 361 360 360 360 360 360 358 357 356 355 355 354 353 353 353 353 352 352 352 351 351 349 346 345 344 342 342 342 340 338 338 339 339 338 338 338 338 337 337 336 337
362 362 361 361 361 360 360 359 357 356 355 355 355 354 354 354 353 352 352 351 351 350 349 347 345 344 343 343 342 341 339 338 339 339 338 338 337 337 338 338 337 336
362 362 361 361 361 361 360 360 358 357 356 355 355 355 355 354 354 353 352 351 351 350 349 348 346 345 344 343 343 342 340 339 339 339 339 338 337 337 337 338 338 337
362 362 362 361 361 360 360 360 359 358 357 356 356 355 356 355 354 354 353 351 351 350 349 348 346 346 345 344 343 343 341 339 339 339 339 338 337 337 337 337 337 337
363 362 362 362 361 361 360 360 359 358 357 357 356 356 356 355 355 354 353 352 351 350 349 348 347 346 345 344 344 343 342 340 339 339 339 338 338 337 337 336 336 336
362 363 362 361 361 361 360 360 359 359 358 357 357 356 355 355 355 354 353 352 350 349 349 348 347 346 345 345 344 344 342 341 340 339 339 339 339 338 338 338 337 336
363 362 362 362 362 361 360 360 359 359 359 358 357 357 356 355 355 355 354 352 351 350 349 348 347 346 346 345 344 344 343 342 340 339 339 339 339 339 339 339 338 337
363 363 362 362 362 361 361 360 359 359 359 358 357 357 356 356 355 355 354 353 352 351 349 348 347 347 346 345 345 344 343 342 341 340 339 339 339 339 339 339 339 338
363 363 363 362 362 361 361 360 359 359 358 358 358 357 356 356 356 355 355 354 353 351 350 349 347 347 346 345 345 345 344 343 341 340 340 339 339 339 339 339 339 338
363 363 362 362 362 361 361 361 360 359 359 358 358 357 357 356 356 355 355 354 354 352 351 350 349 348 347 346 345 345 344 343 341 340 340 339 339 339 339 338 338 338
363 363 362 362 362 361 361 361 360 359 359 358 357 357 357 357 356 355 355 355 354 353 352 351 350 349 348 347 346 345 344 343 342 341 340 340 339 339 339 339 339 338
362 363 362 362 362 361 361 361 360 360 359 358 357 357 357 357 357 356 355 355 354 354 353 352 351 350 349 347 346 345 345 344 342 341 341 341 340 340 340 340 340 339
363 363 362 362 362 361 361 361 360 360 359 358 358 357 357 357 356 356 355 355 354 354 353 352 352 351 349 348 346 346 345 344 343 342 341 341 340 340 340 340 340 339
363 362 362 362 361 361 361 361 361 360 360 359 358 358 357 358 357 357 356 355 354 354 353 353 352 350 349 348 347 347 345 344 343 342 341 341 340 340 339 339 339 339
363 363 362 361 361 361 361 361 361 361 361 360 359 358 358 358 358 357 357 356 355 354 354 353 351 350 349 349 348 347 345 344 343 342 341 341 340 340 339 338 338 339
363 363 363 362 361 361 361 361 362 361 361 361 359 359 358 358 358 358 357 357 355 354 354 352 351 350 349 348 348 347 345 344 343 342 341 340 339 339 338 338 338 339
363 363 363 362 361 361 360 361 361 361 362 361 360 360 359 359 359 358 357 357 355 355 354 352 351 350 349 349 348 346 345 345 343 342 341 340 339 338 338 339 339 339
363 363 363 363 362 362 361 361 361 361 362 361 360 360 359 359 359 358 357 356 355 354 353 352 351 350 349 348 348 346 346 345 343 341 340 339 339 338 338 339 339 339

ECMWFNIL_925_thetae_033.txt.gz
Theta_e
353 353 353 352 352 352 352 352 351 352 353 354 354 354 354 353 353 354 354 354 353 353 351 346 343 341 340 339 338 339 337 336 338 339 339 340 338 335 336 337 337 337
353 353 353 353 353 352 352 351 351 352 353 354 354 354 354 353 353 354 354 354 353 352 350 346 344 343 342 340 337 336 336 337 339 340 340 339 337 334 334 336 337 337
354 353 353 353 353 353 352 352 351 352 353 354 354 354 353 353 354 354 353 353 353 352 350 348 346 345 344 342 339 336 335 336 339 340 340 337 335 333 333 335 336 336
354 354 353 353 353 353 352 352 352 352 353 353 353 353 353 353 354 354 354 353 353 352 350 349 347 346 346 344 342 340 337 336 338 340 339 336 334 334 333 334 335 335
354 354 354 353 353 353 353 353 352 353 353 353 353 353 353 354 354 354 354 353 352 351 350 350 348 347 346 346 345 343 340 338 338 339 339 336 336 336 334 334 334 335
355 354 354 354 353 353 353 353 353 353 354 353 353 353 353 353 354 354 353 353 353 352 351 350 349 347 346 346 346 344 343 340 339 339 339 337 336 337 336 335 334 334
355 355 354 354 354 353 353 353 353 353 354 354 354 353 354 354 354 354 353 353 353 352 351 350 349 347 346 346 346 345 343 340 339 339 338 337 337 337 338 337 336 335
355 355 355 355 355 354 354 353 353 353 353 354 354 354 354 354 353 353 353 353 353 352 351 350 349 348 346 345 345 344 342 339 338 339 338 337 337 337 338 337 337 335
355 355 355 355 355 355 355 354 354 353 354 354 354 354 354 353 353 353 353 352 352 351 351 350 350 349 347 345 344 343 342 340 339 339 338 338 337 338 338 337 336 335
355 355 355 356 356 355 355 355 354 354 354 354 354 354 354 353 353 353 352 352 351 351 351 350 350 349 348 346 344 343 343 341 340 339 338 338 337 337 338 337 336 336
356 356 356 356 356 356 356 355 355 355 354 355 355 354 354 354 353 352 352 351 351 350 350 350 350 349 348 347 345 344 344 343 341 339 339 338 337 337 338 337 337 337
357 356 356 356 356 356 356 356 356 356 355 355 355 354 354 354 353 352 352 351 351 351 350 350 350 349 348 348 347 345 345 343 341 339 339 338 338 338 338 338 337 338
358 358 357 357 357 356 357 357 356 356 356 355 355 355 355 354 353 352 352 351 351 351 350 350 350 349 349 348 347 345 344 343 341 340 339 339 338 338 338 338 338 338
358 358 358 358 358 357 357 357 357 357 356 356 356 355 355 354 354 353 352 352 351 351 350 350 349 349 349 348 347 345 343 342 341 340 340 339 339 338 337 338 338 338
358 358 358 358 359 358 358 358 358 357 357 356 356 356 355 354 354 354 353 352 352 351 351 350 350 349 349 348 347 345 343 342 341 341 341 340 339 339 338 338 338 338
358 359 359 359 359 359 359 358 358 358 358 357 357 356 355 355 354 354 353 353 352 351 351 350 350 349 349 348 347 345 344 343 342 342 341 341 340 339 339 338 338 338
359 359 359 360 359 359 359 359 359 358 358 358 357 356 356 355 354 354 354 353 353 352 351 350 350 349 349 348 347 346 345 344 343 342 342 342 341 340 339 338 338 337
359 359 360 360 360 360 359 359 359 358 358 358 357 357 356 355 355 354 354 354 353 352 352 351 350 350 349 348 347 346 345 345 344 343 342 342 341 341 340 339 338 338
359 360 360 360 360 360 360 360 359 359 359 358 357 357 356 356 355 355 355 354 354 353 353 352 351 350 349 349 347 347 346 345 345 344 343 343 342 342 341 339 338 338
360 361 360 360 361 360 360 360 359 359 359 358 358 357 356 356 356 355 355 354 354 353 353 352 352 351 350 349 348 347 347 346 346 344 344 343 342 342 342 340 339 339
361 361 361 361 361 360 360 360 359 359 359 358 358 357 357 356 355 355 355 355 354 354 353 353 352 351 350 349 348 348 348 347 346 345 344 343 343 343 342 341 340 339
361 361 361 361 361 360 360 360 360 359 359 358 358 357 357 356 356 356 356 355 354 354 353 353 353 352 351 350 349 349 348 347 346 345 344 343 343 342 342 341 340 339
361 361 361 361 361 361 360 360 360 359 359 358 358 357 357 356 356 356 355 355 355 354 354 354 353 352 352 351 351 350 349 348 346 345 343 343 343 343 342 341 340 340
362 361 362 361 361 361 361 360 360 360 359 359 358 357 357 356 356 356 355 356 355 354 354 354 353 353 352 352 352 351 350 348 347 345 343 343 343 342 341 341 341 340
361 362 361 361 361 361 360 361 360 360 359 359 358 358 357 356 356 356 355 355 355 355 355 354 353 353 352 352 352 351 351 349 347 345 343 343 342 341 341 340 340 340
361 361 362 361 361 361 360 360 360 360 360 359 358 358 358 357 356 356 356 355 355 355 355 354 354 353 352 352 352 352 351 350 347 345 343 343 342 341 340 340 339 339

ECMWFNIL_925_thetae_036.txt.gz
Theta_e
352 352 351 351 351 350 350 350 351 351 351 351 351 351 350 347 348 351 351 352 353 353 353 354 353 353 352 350 346 344 343 340 337 336 337 338 339 339 339 337 335 336
352 352 352 351 351 351 351 350 350 351 351 351 350 350 349 347 347 350 351 352 353 353 353 353 353 353 352 348 345 344 342 340 338 337 337 338 338 339 339 338 336 336
352 352 352 352 351 351 351 351 350 350 350 350 350 350 349 347 348 350 351 352 353 353 353 353 353 353 352 348 344 342 341 339 338 338 337 337 337 339 339 339 338 336
353 352 352 352 352 351 351 351 351 351 351 350 350 350 349 349 350 352 352 352 353 353 353 353 353 352 352 349 344 341 339 339 338 338 338 337 336 338 339 339 338 335
352 352 352 352 352 351 351 351 351 351 351 350 350 349 349 349 351 352 353 353 353 353 353 353 353 352 352 349 345 341 339 339 339 338 337 336 336 338 339 339 337 334
353 352 352 352 352 351 351 351 351 351 351 351 350 350 349 349 351 353 353 353 353 353 353 353 353 352 351 350 346 343 341 341 340 338 336 335 335 337 339 339 336 334
353 352 352 352 352 352 352 351 351 351 351 351 351 350 349 349 351 352 353 353 353 353 353 353 353 352 351 350 348 346 344 343 343 341 339 337 336 337 339 339 337 335
352 353 352 352 352 352 352 352 351 352 351 351 351 350 350 349 349 351 352 353 352 352 353 353 353 352 351 350 348 347 346 345 345 344 342 340 339 338 338 339 337 336
353 353 352 353 352 352 352 352 352 352 352 352 351 351 351 349 349 351 352 352 352 352 353 353 353 352 351 351 349 348 347 346 346 345 344 343 341 340 339 339 338 337
353 353 353 353 353 352 352 352 352 352 352 352 352 351 351 350 350 351 351 352 352 352 353 352 352 352 351 351 350 349 348 347 345 345 344 344 343 341 340 338 338 337
353 353 353 353 353 353 352 352 352 352 352 352 352 352 352 351 351 351 351 352 352 352 352 352 352 352 351 351 350 349 349 347 346 344 344 344 343 341 340 338 338 338
352 353 353 353 353 353 353 353 353 353 352 352 352 352 352 352 352 352 351 352 352 352 352 352 352 351 351 350 350 349 348 348 346 344 343 342 342 341 339 338 338 338
352 353 353 353 354 353 353 353 353 353 353 353 353 352 352 352 352 352 352 352 352 352 352 352 351 351 351 350 350 349 348 348 346 345 343 342 341 340 340 339 338 338
353 353 353 353 354 354 354 354 354 354 353 353 353 353 352 352 352 352 352 352 352 352 352 352 351 351 350 350 350 349 348 347 346 345 343 342 341 341 340 340 339 338
353 353 353 353 353 353 354 354 354 354 354 354 354 353 353 353 352 352 352 352 352 352 351 351 351 350 350 350 349 349 348 347 346 345 344 343 342 341 341 340 339 339
354 354 354 354 354 354 354 354 354 355 354 354 354 354 354 353 353 352 352 352 352 351 351 351 350 350 350 350 349 349 348 347 346 346 345 344 343 341 341 340 340 339
354 355 355 355 355 355 354 354 355 355 355 355 355 354 354 353 353 353 353 352 352 351 351 351 350 351 350 350 349 349 349 348 347 346 345 344 343 342 341 341 340 339
355 355 356 355 355 356 355 355 355 355 355 355 355 355 354 354 354 353 353 353 352 352 351 351 351 351 350 350 349 349 349 348 347 346 345 345 344 343 342 341 341 340
355 355 356 356 356 356 356 356 356 355 356 355 355 355 355 354 354 354 353 353 352 352 352 351 351 351 350 350 350 349 349 349 347 347 346 345 344 344 343 342 341 341
355 355 356 356 356 356 356 356 356 356 356 356 356 356 355 355 355 354 354 353 353 353 352 351 352 351 351 350 350 350 349 349 348 347 346 346 345 344 344 343 342 341
355 355 356 356 356 356 357 357 357 357 357 356 356 356 356 356 355 354 354 354 353 353 353 352 352 351 351 350 350 350 350 349 348 347 346 346 345 345 344 343 343 342
355 356 356 356 357 357 357 357 357 357 357 357 357 356 356 356 356 355 355 354 354 353 353 353 352 352 351 350 350 350 350 349 348 347 346 345 345 345 344 343 343 342
356 356 356 357 357 357 357 357 358 358 357 358 357 357 356 357 356 355 355 355 354 354 353 353 353 352 352 351 351 350 350 349 348 347 346 346 346 345 344 343 343 342
356 357 357 357 357 358 358 358 358 358 358 358 357 357 357 357 356 356 356 355 355 354 354 353 352 352 352 352 351 351 350 349 349 347 346 345 345 344 344 343 343 343
357 357 358 358 358 358 358 358 358 358 358 358 358 357 357 357 357 356 356 355 355 354 354 354 353 353 352 352 352 351 351 350 349 346 345 345 344 344 343 343 343 343
357 358 358 358 359 359 359 359 359 358 359 358 358 358 357 357 357 356 356 355 355 354 354 354 353 353 352 352 352 351 351 351 349 346 345 345 344 343 343 343 342 342

ECMWFNIL_925_thetae_039.txt.gz
Theta_e
356 355 354 354 354 353 353 352 351 351 352 352 352 351 350 350 350 351 352 352 353 355 354 352 353 353 352 353 354 354 353 353 350 345 340 335 335 338 339 338 339 339
356 355 354 354 354 352 352 351 350 351 351 350 350 350 349 349 349 350 351 351 352 354 353 353 353 353 353 353 353 353 353 352 350 346 341 337 336 337 338 338 339 338
356 356 355 355 355 353 352 352 351 350 350 349 349 349 349 349 349 349 351 351 352 352 352 352 353 352 352 353 353 353 353 351 348 345 342 340 337 336 337 338 340 339
356 356 355 355 355 354 353 353 352 351 351 350 349 349 349 350 350 350 350 350 350 350 350 351 352 351 352 353 353 353 353 350 347 344 343 341 338 336 336 337 339 339
355 355 355 355 355 355 353 353 352 351 351 351 350 350 350 350 350 350 350 349 350 349 349 352 353 351 352 353 353 353 353 351 347 344 343 342 338 336 336 337 337 338
355 355 355 355 355 355 354 353 352 352 351 351 351 350 350 350 350 350 351 349 349 349 349 351 353 351 351 353 353 353 353 351 348 344 342 341 338 337 337 337 337 337
356 355 355 355 355 355 354 354 353 352 352 351 351 351 351 351 350 350 350 350 349 348 347 349 351 351 352 353 353 353 352 352 349 344 341 340 339 337 337 337 337 337
355 355 355 355 355 355 355 354 353 352 352 351 352 351 351 351 351 350 350 350 350 348 345 346 350 351 352 353 353 353 352 351 350 346 342 339 339 339 338 337 336 336
356 356 355 355 355 355 355 355 354 353 352 352 352 352 351 351 351 351 350 350 350 348 346 346 349 351 352 353 352 352 352 352 350 348 344 341 340 340 340 339 337 337
356 356 356 355 355 355 355 355 354 354 353 352 352 353 353 351 351 351 351 350 350 349 348 347 348 351 352 352 352 352 352 352 350 349 346 344 342 341 341 341 340 339
356 356 356 355 355 355 355 355 354 355 354 353 353 354 353 352 351 351 351 351 350 349 348 348 349 350 352 352 352 352 352 352 351 350 348 346 344 343 342 342 342 342
356 356 356 356 355 355 355 355 355 355 355 354 354 353 354 353 352 352 351 351 351 350 349 348 349 350 351 351 352 352 352 352 351 350 349 348 346 345 344 342 342 343
356 356 356 356 356 356 355 355 355 355 355 355 354 354 354 354 353 352 351 351 350 350 349 349 350 351 351 351 351 352 352 352 351 350 350 348 347 347 345 344 343 342
356 356 357 356 356 356 356 356 355 355 355 355 355 354 355 355 354 353 352 352 351 351 350 350 351 351 351 351 351 351 352 351 351 350 350 349 348 347 346 345 344 343
355 356 357 356 356 356 356 356 356 356 355 355 355 355 355 355 355 354 353 352 352 351 351 351 352 352 351 351 351 351 352 351 351 350 349 349 348 347 346 345 344 344
354 355 357 357 356 356 356 356 356 356 356 356 355 355 355 355 355 355 355 354 352 352 352 353 353 352 351 351 351 351 351 351 351 350 349 349 348 347 346 345 345 344
353 355 356 356 356 356 356 356 357 357 356 356 356 356 355 355 355 355 355 355 354 353 354 354 354 353 352 351 351 351 351 351 350 350 349 349 348 347 346 345 345 344
354 355 355 356 356 357 357 356 356 357 357 357 357 356 356 355 355 356 355 356 355 355 355 355 354 353 352 351 351 351 351 351 350 350 349 348 348 347 346 346 345 344
355 356 356 356 356 356 357 357 357 357 358 358 358 357 357 357 356 356 356 356 355 356 356 355 354 353 352 351 351 351 350 351 350 350 349 349 348 347 347 346 345 345
355 356 357 358 358 357 358 358 358 358 358 358 358 358 358 358 357 357 357 356 356 356 356 356 355 354 352 351 351 351 351 350 350 350 349 349 348 348 347 347 346 345
356 358 358 359 358 358 358 358 358 358 358 358 359 359 359 359 358 357 358 357 357 356 356 356 355 354 353 352 351 351 351 350 349 349 349 349 348 348 348 347 347 346
357 359 359 360 360 359 359 359 359 359 359 359 359 359 359 359 358 358 358 358 357 357 356 356 356 354 353 352 351 351 350 350 349 349 350 349 348 348 348 347 347 346
358 359 360 360 360 360 360 360 359 360 360 359 359 359 359 358 358 358 358 358 358 357 357 357 356 355 354 352 352 351 350 349 349 349 350 350 349 348 348 347 347 346
358 358 359 360 360 360 360 360 360 360 360 360 359 359 359 359 359 359 358 358 358 357 357 357 357 356 354 353 352 351 350 350 348 349 350 351 350 349 348 348 347 347
357 357 357 359 360 360 360 361 361 360 360 360 359 359 359 359 359 358 359 359 359 358 357 357 357 357 355 354 353 352 351 350 349 349 351 351 351 350 349 349 348 347
356 357 357 358 360 360 360 360 361 360 360 360 360 359 359 359 359 359 359 359 359 358 358 356 357 357 356 354 354 352 352 350 349 350 351 351 351 351 350 350 349 347

ECMWFNIL_925_thetae_042.txt.gz
Theta_e
361 361 363 362 361 360 360 360 360 360 359 359 359 359 359 360 360 360 361 363 363 362 362 361 360 359 358 358 358 358 357 356 354 351 351 351 347 343 342 343 343 343
360 361 362 362 362 361 360 361 361 361 361 359 359 359 360 361 361 361 362 363 364 362 361 361 360 359 359 359 358 359 358 356 354 352 352 351 347 343 342 343 344 344
361 361 361 362 363 362 360 361 361 361 361 360 359 359 360 361 362 363 362 363 363 361 360 360 359 358 359 359 359 359 358 357 355 353 352 352 348 344 342 342 343 344
362 361 361 362 363 362 361 361 362 361 361 360 360 359 359 361 362 363 363 362 361 361 361 360 360 359 359 360 359 359 359 357 356 354 353 353 350 346 343 342 343 344
362 362 362 362 363 363 363 362 362 362 361 360 360 360 360 361 362 362 363 363 361 361 361 361 361 360 360 360 359 359 359 357 356 355 353 353 351 348 345 343 343 344
362 363 363 363 364 363 363 363 362 362 361 360 360 360 360 361 361 361 361 362 361 360 360 361 361 360 360 359 359 360 360 358 356 355 354 354 352 349 346 344 344 345
364 364 364 364 364 363 363 363 362 362 361 361 360 361 361 361 361 360 360 361 361 360 360 361 362 361 359 359 359 360 360 359 357 355 354 354 352 350 347 345 345 345
364 364 365 364 364 363 363 363 362 362 361 361 361 361 361 361 362 361 360 360 361 361 361 361 362 362 360 359 361 361 361 359 358 357 355 355 353 351 349 347 346 346
364 364 365 364 364 363 363 362 362 362 361 361 361 360 361 361 361 361 361 361 361 361 362 362 363 363 362 361 361 362 360 359 359 358 357 356 354 353 351 349 348 347
364 364 364 363 363 362 362 362 361 362 362 361 360 360 361 361 361 361 361 362 362 362 363 362 363 364 363 362 361 360 359 359 359 359 358 357 355 353 352 350 349 348
363 363 362 363 362 361 361 361 360 361 361 361 361 360 360 361 361 361 362 363 363 363 363 363 363 364 364 362 361 360 359 359 360 359 358 358 356 354 353 351 350 349
363 362 361 361 361 360 360 360 360 359 360 361 361 360 360 360 361 361 362 363 363 363 363 364 364 364 364 362 360 360 360 359 360 360 359 358 357 355 354 353 351 350
362 362 362 361 361 361 359 359 359 359 359 360 361 361 360 360 360 362 362 362 363 363 363 364 364 364 364 363 361 360 361 360 359 360 359 359 358 356 355 354 353 351
362 362 362 361 361 361 360 359 360 359 360 360 360 361 360 359 360 361 362 362 363 364 363 363 364 364 364 363 362 361 361 361 360 360 360 359 358 357 356 355 354 353
362 363 363 362 362 362 361 360 360 360 361 360 360 361 361 360 359 360 362 363 363 363 364 363 363 364 363 363 362 362 361 361 360 360 360 359 359 358 357 356 355 354
363 363 363 363 363 363 363 362 361 361 361 361 361 361 361 361 360 360 362 363 363 363 363 363 363 363 361 360 359 360 361 361 360 360 360 359 359 359 358 357 356 354
364 364 364 364 363 363 363 363 362 361 362 362 362 363 362 362 361 361 361 362 363 364 363 363 363 361 360 358 357 357 359 361 360 360 360 360 359 359 358 357 356 355
365 365 365 365 365 364 364 364 363 362 362 363 363 363 363 362 362 362 361 362 363 363 363 363 363 361 359 357 356 355 355 358 360 360 360 360 359 359 359 357 357 356
366 366 366 365 365 365 364 365 364 363 363 363 363 364 363 363 363 362 362 362 362 363 363 362 363 361 359 357 356 355 353 355 358 360 360 359 359 359 358 358 357 356
365 367 366 366 366 366 365 365 364 364 364 363 363 364 364 364 363 362 363 363 362 363 363 362 362 361 360 357 356 355 354 353 355 358 359 359 359 359 358 358 358 357
365 366 366 366 366 366 366 366 365 365 364 363 363 364 364 364 364 363 363 363 363 363 363 362 362 361 360 359 357 355 354 353 353 356 358 359 359 358 358 358 357 357
364 364 364 365 366 366 366 365 365 365 364 364 363 363 364 364 364 363 363 363 363 363 363 362 362 360 359 359 358 356 355 353 353 354 356 358 358 358 357 356 356 357
363 363 365 365 365 366 365 365 365 365 364 365 364 363 363 364 364 364 363 363 363 363 363 363 362 361 359 358 357 357 355 353 353 354 356 357 358 357 355 355 355 356
363 364 365 366 365 366 365 365 365 365 365 365 364 363 362 363 364 364 363 363 363 363 363 363 363 362 361 358 357 356 355 354 353 354 356 356 357 356 355 355 355 355
364 364 365 366 366 366 365 365 364 364 364 364 364 363 362 362 363 363 363 363 363 363 363 363 363 364 362 360 358 356 355 354 353 354 356 356 356 355 354 354 354 354
364 364 365 365 366 366 365 365 364 364 364 364 364 363 362 362 362 362 363 363 363 362 362 362 363 363 362 361 359 357 355 354 354 356 356 356 356 355 355 355 354 354

ECMWFNIL_925_thetae_045.txt.gz
Theta_e
363 364 364 362 361 361 360 362 364 364 362 360 359 360 360 359 357 357 359 360 362 363 362 362 362 363 362 361 360 360 358 357 356 354 352 351 351 349 345 344 345 346
363 363 364 363 362 363 361 361 362 363 362 360 357 357 359 359 358 359 359 360 362 362 363 363 363 364 363 360 359 361 360 359 357 354 352 350 351 350 345 344 345 346
364 363 364 363 363 364 363 361 361 362 363 362 359 357 357 359 360 360 360 360 361 362 362 362 362 364 363 360 359 361 361 360 358 354 352 351 352 351 346 343 345 346
365 364 364 363 362 364 364 362 362 363 362 362 361 359 357 357 359 361 362 361 362 362 362 362 362 362 363 361 359 360 360 360 359 355 353 352 352 352 348 343 344 346
365 365 364 363 362 363 365 364 362 363 362 361 362 361 359 358 359 362 364 363 363 364 362 362 362 361 362 362 360 361 361 361 360 357 355 353 352 352 349 345 344 346
365 365 364 363 363 363 365 365 363 363 363 361 361 362 361 360 360 361 363 364 364 363 361 361 362 362 362 362 361 361 361 361 360 359 356 354 353 352 351 347 345 346
365 365 364 363 364 364 365 366 365 364 363 362 361 361 362 362 362 362 363 364 365 363 360 359 361 362 361 362 362 362 361 360 359 359 357 355 354 353 352 349 346 346
365 366 366 364 364 365 365 365 366 365 364 363 362 362 363 363 363 364 363 364 365 364 362 359 360 363 362 362 364 363 361 360 359 358 357 356 355 354 353 351 348 347
365 365 366 365 364 365 365 364 366 366 365 364 363 362 363 363 363 364 364 364 364 364 363 361 361 364 364 363 364 364 362 360 360 360 359 358 356 356 355 353 350 348
366 365 365 365 363 363 363 363 363 365 365 365 363 360 362 364 364 364 365 365 364 363 364 363 362 364 365 364 364 364 363 362 361 362 361 359 357 356 356 356 352 350
366 365 365 364 363 361 361 361 361 362 364 364 363 359 358 362 364 365 365 366 366 364 363 364 364 364 365 365 364 364 364 363 363 363 363 361 359 357 357 357 355 352
366 366 364 364 364 361 359 360 360 359 362 364 364 361 357 359 363 365 366 367 367 366 364 365 365 365 365 365 364 364 365 364 363 363 364 362 361 359 358 358 356 354
366 367 365 364 363 363 360 359 359 358 359 362 363 362 360 358 360 364 366 367 368 367 366 366 366 366 366 366 365 364 365 365 364 363 364 364 362 361 359 358 357 356
367 367 367 365 365 365 362 358 358 357 357 359 362 363 363 358 357 362 366 367 368 368 367 367 367 366 367 368 367 364 364 365 364 362 363 364 363 362 360 358 357 356
368 368 368 367 366 366 364 359 357 358 357 358 361 363 363 361 357 359 364 367 368 368 368 368 367 367 367 367 367 366 364 363 364 363 361 362 364 363 360 359 358 357
369 368 369 368 367 367 367 362 359 359 359 359 360 362 363 363 360 358 361 366 367 369 369 368 368 367 366 364 365 366 365 363 363 363 362 361 363 363 362 360 358 357
370 369 370 369 368 367 367 366 362 361 361 361 361 362 363 364 363 361 361 363 367 368 369 369 368 367 364 363 362 363 364 364 363 363 363 361 361 362 362 361 359 358
370 371 371 370 369 369 368 368 366 362 362 363 363 363 364 365 365 364 362 362 365 368 368 369 368 366 363 362 361 359 360 363 363 363 363 362 361 361 362 362 360 359
372 372 372 371 371 370 369 370 368 365 365 365 365 365 366 366 366 366 365 364 364 367 367 367 368 367 364 361 360 359 358 359 362 363 363 362 362 360 361 362 361 360
372 373 373 372 372 371 370 370 370 368 367 366 366 367 366 367 368 367 367 366 364 365 367 367 367 367 366 362 360 359 357 357 359 362 363 362 362 361 361 361 362 361
374 373 373 373 373 372 371 371 370 370 368 366 366 367 367 368 368 368 367 367 366 366 366 367 366 366 367 365 361 359 358 357 358 361 363 363 362 362 362 361 362 362
374 374 374 374 373 373 372 371 371 371 369 367 366 367 367 368 368 368 367 367 367 366 365 366 366 365 365 365 363 361 359 358 358 360 361 362 363 363 363 363 362 362
373 372 373 374 373 373 372 371 371 372 370 369 366 366 367 368 368 368 367 367 367 367 367 366 365 365 364 364 364 363 360 359 359 360 361 362 362 363 364 364 363 362
373 372 372 374 374 373 372 371 371 371 371 369 367 366 366 366 367 368 367 367 366 366 367 367 366 365 364 364 363 363 362 360 358 360 361 361 362 363 364 365 364 362
371 372 372 373 373 373 372 371 370 370 370 369 368 367 365 364 366 366 367 368 367 366 366 366 366 366 365 365 363 362 362 360 359 360 362 361 362 362 362 364 364 363
371 371 372 372 373 373 372 371 370 369 369 369 368 368 366 365 365 364 366 367 367 367 367 365 366 366 366 365 364 362 361 360 359 361 362 361 362 362 362 363 363 362

ECMWFNIL_925_thetae_051.txt.gz
Theta_e
355 356 356 357 356 357 358 358 357 357 357 357 356 357 356 356 355 355 356 357 357 357 359 360 361 361 361 359 358 358 358 359 359 357 356 355 352 347 343 344 346 346
356 356 356 357 357 357 358 359 358 357 357 357 356 357 357 357 357 356 357 358 357 358 359 360 361 361 360 359 358 358 357 358 358 357 356 355 354 350 344 343 345 347
356 356 356 356 356 357 358 359 359 358 357 357 357 357 358 358 358 358 358 358 358 359 359 360 361 360 360 359 358 358 358 358 358 357 357 355 354 352 346 342 344 346
357 356 356 355 356 356 357 358 359 359 358 357 357 358 358 358 359 360 359 359 359 359 360 359 360 360 359 358 358 358 358 358 358 357 357 356 354 353 349 344 343 344
357 356 356 356 356 356 356 357 358 359 359 358 358 359 359 358 358 359 360 359 358 359 359 359 359 359 360 359 358 358 358 358 359 358 357 357 355 354 351 347 345 343
357 357 356 356 356 356 357 356 356 358 359 360 359 360 361 360 359 359 359 359 359 359 359 359 358 359 360 360 358 358 359 359 358 358 358 357 356 354 351 350 348 346
358 357 357 356 356 356 357 356 355 356 358 360 360 360 361 361 361 360 359 359 359 359 359 359 359 359 360 361 359 359 360 359 359 358 358 357 356 354 352 350 350 349
358 358 357 357 357 357 357 356 356 356 356 359 360 361 361 360 361 361 360 359 358 359 359 359 359 360 360 361 361 360 361 361 360 359 358 358 357 354 352 351 350 349
359 358 357 357 358 358 358 357 357 356 356 357 359 361 361 360 360 360 360 359 358 359 360 360 360 360 361 362 361 361 362 362 361 360 359 358 357 356 353 351 351 351
360 359 358 358 358 358 358 358 357 357 356 357 357 358 361 362 360 358 359 360 359 358 359 360 361 361 361 362 362 362 362 362 361 360 359 358 357 357 355 352 351 352
361 360 359 358 358 358 358 358 357 357 357 356 357 357 359 361 361 359 358 359 360 359 359 359 360 361 361 361 361 361 362 362 361 360 359 359 358 356 356 354 353 352
362 360 359 359 358 358 358 358 358 358 357 357 357 357 358 359 361 361 358 357 359 359 359 359 358 360 361 361 361 361 361 361 360 359 359 359 359 357 356 355 354 353
363 361 360 359 359 357 357 357 357 357 358 358 357 357 358 359 360 361 360 358 357 358 359 360 359 360 360 361 361 361 361 361 360 359 359 358 359 359 358 356 355 354
363 362 361 360 359 358 357 357 356 356 357 358 358 358 358 359 360 361 361 360 358 357 358 360 361 360 361 361 362 361 361 361 360 360 359 358 358 359 359 358 356 355
363 362 361 361 360 359 358 357 356 356 356 357 358 359 358 358 358 360 361 361 360 359 358 358 361 361 361 361 361 361 361 361 360 360 359 359 358 358 359 359 358 356
362 362 361 361 361 360 358 357 357 357 356 356 358 359 358 357 357 358 360 360 361 360 360 359 360 361 362 362 361 361 360 361 361 360 360 360 359 358 359 359 358 358
362 362 361 361 361 361 360 358 358 357 357 356 357 359 359 358 358 358 359 360 361 361 361 361 360 361 362 362 362 361 360 360 360 361 361 361 360 359 358 358 359 358
364 362 362 361 361 361 361 360 358 357 357 357 357 359 360 360 359 358 358 360 360 361 361 362 361 361 361 362 362 362 361 360 360 361 361 361 361 360 359 359 359 359
365 364 363 362 361 360 360 360 359 357 357 357 357 358 360 361 361 360 359 359 361 361 362 361 362 362 361 361 362 362 361 360 360 360 361 361 361 361 360 359 359 359
367 365 364 363 362 361 360 361 360 358 357 357 358 358 359 361 362 361 360 359 360 361 362 362 362 362 362 361 361 361 361 361 360 359 360 361 361 361 360 360 360 360
368 366 365 364 363 362 361 361 360 360 358 357 358 358 358 360 361 362 362 360 359 360 361 363 363 363 363 363 362 362 361 361 361 360 359 359 360 360 360 360 359 359
368 367 366 366 365 364 363 362 361 361 359 358 358 358 358 359 360 361 362 362 361 360 360 361 362 363 363 363 363 363 362 362 361 360 360 359 359 359 359 359 359 359
369 368 367 367 366 366 365 364 363 362 361 360 358 358 359 359 359 360 361 362 362 361 360 360 361 362 364 364 365 364 364 363 362 361 360 359 359 358 358 358 359 359
369 369 368 367 367 367 366 366 365 363 363 362 360 359 359 359 359 359 360 361 362 362 362 361 360 361 363 364 366 366 366 365 363 361 360 360 360 359 359 359 358 358
370 370 369 368 368 368 368 367 367 365 365 365 363 362 360 359 360 360 360 361 361 362 363 362 362 361 361 363 365 367 368 367 365 362 361 360 361 360 360 359 359 358
371 371 371 370 369 369 369 369 368 368 367 367 366 365 363 361 361 361 361 361 361 362 362 362 363 362 362 362 363 365 367 368 366 364 362 362 361 361 361 360 359 359

ECMWFNIL_925_thetae_057.txt.gz
Theta_e
353 353 353 352 352 352 351 351 351 350 349 350 350 350 351 351 351 351 351 351 350 350 351 352 350 350 351 352 353 355 357 358 357 358 358 358 357 354 352 352 348 342
353 353 353 353 352 352 352 351 351 350 349 349 349 349 350 351 351 351 350 351 351 351 351 352 352 351 352 352 353 354 357 358 358 359 358 358 358 356 354 353 350 345
353 353 353 353 352 352 352 351 351 350 350 349 348 348 348 349 350 351 351 351 351 351 351 353 353 353 352 353 353 354 355 357 358 358 359 359 358 358 357 356 352 347
354 353 353 353 352 351 351 352 352 351 351 350 349 349 349 349 350 351 351 351 351 352 351 353 353 353 354 353 353 354 354 356 358 359 359 358 358 358 358 358 354 349
354 353 353 352 352 352 351 352 352 351 351 351 351 350 351 350 351 351 352 352 352 352 352 353 353 353 354 354 354 354 354 354 356 359 360 358 357 358 358 359 355 352
354 353 353 352 352 351 351 351 351 352 352 351 351 351 351 351 351 352 353 352 352 353 353 353 354 353 354 354 354 355 354 354 355 358 360 359 357 358 358 358 357 355
353 353 353 353 352 352 352 350 351 352 352 352 352 352 352 352 352 352 352 353 352 353 353 353 353 353 353 354 355 355 355 355 355 357 359 359 358 358 357 358 358 356
353 353 353 353 352 352 352 351 351 351 352 353 353 352 352 352 352 352 352 353 353 353 353 353 353 353 353 354 355 355 355 356 356 357 359 359 358 358 357 357 357 356
353 353 353 353 352 352 351 351 351 351 351 353 353 353 353 353 353 353 353 354 354 354 353 353 353 353 353 354 354 355 355 356 357 357 358 359 359 358 357 357 357 356
353 353 352 353 352 352 352 351 352 352 352 352 352 353 354 354 354 354 354 354 355 354 354 354 354 353 353 354 355 355 355 356 357 357 357 358 358 358 357 357 357 356
353 353 353 353 352 352 352 352 351 352 352 352 352 353 354 354 354 354 354 354 354 354 355 354 354 354 354 354 355 355 356 356 356 357 357 357 358 358 357 356 356 356
353 353 352 353 353 352 352 352 352 352 352 352 352 353 353 353 354 355 355 354 354 354 354 354 354 355 354 354 356 356 356 356 356 357 357 357 357 357 357 357 355 356
354 354 353 353 353 353 353 353 352 352 352 352 352 352 353 353 354 354 355 354 354 354 355 355 354 355 355 355 356 356 357 357 357 357 357 357 357 357 356 356 356 356
355 355 354 353 354 353 353 353 353 353 352 352 352 352 353 353 353 354 355 355 355 355 355 355 355 356 356 356 356 356 356 357 357 357 357 357 356 356 356 356 356 356
356 356 355 355 355 354 354 354 353 353 353 352 353 352 352 352 353 353 354 355 355 355 355 356 356 355 355 355 355 356 356 356 356 357 357 357 357 357 357 357 356 356
356 356 356 356 355 355 355 354 353 353 353 353 353 353 353 352 352 353 354 355 355 355 355 356 356 356 355 355 355 355 356 356 357 357 357 357 357 357 357 357 356 357
358 357 357 357 356 356 356 355 354 354 353 354 353 353 353 353 353 352 352 353 354 355 355 355 356 355 355 355 356 356 356 356 356 357 357 357 357 357 358 357 357 356
358 358 358 357 357 357 356 356 355 355 354 354 354 353 354 353 353 353 353 352 353 353 355 355 355 355 355 356 356 356 356 357 357 357 357 357 357 358 358 357 357 357
359 359 359 358 358 358 357 357 356 355 355 354 354 354 354 353 353 353 353 352 352 353 353 354 355 355 355 355 355 356 356 357 357 357 357 358 358 358 358 358 358 358
360 360 359 359 359 358 358 357 356 356 355 355 355 354 354 354 354 353 353 353 353 353 353 353 353 354 355 355 355 355 356 356 356 357 357 357 357 357 357 358 358 357
361 361 360 360 359 359 359 358 357 357 356 355 355 355 354 354 354 354 353 353 353 353 352 353 353 353 354 354 355 355 355 356 356 356 356 357 357 357 357 357 357 357
361 361 361 361 360 360 359 359 358 358 357 356 355 355 355 354 354 354 353 353 354 353 353 353 353 353 353 354 354 355 355 355 356 356 356 357 357 357 357 357 357 357
362 362 362 361 361 361 360 360 359 358 358 357 357 356 355 355 354 354 353 354 354 353 353 353 353 353 354 354 354 355 356 356 356 356 356 356 356 356 357 356 357 357
363 363 363 362 362 361 361 361 360 359 359 358 357 357 356 355 355 354 354 353 353 354 353 354 354 353 354 353 354 355 355 356 356 356 356 356 356 356 357 357 357 357
364 364 364 364 363 362 362 361 360 360 360 359 358 358 357 356 355 355 354 354 353 354 353 354 354 354 354 354 354 354 355 356 356 356 356 355 355 356 356 356 356 357
364 365 364 364 364 363 362 362 361 361 360 360 359 359 357 357 356 355 355 355 353 354 354 353 354 354 354 354 354 354 355 355 356 356 355 355 356 356 356 357 357 357

ECMWFNIL_925_thetae_060.txt.gz
Theta_e
350 350 350 350 351 351 351 351 351 351 351 351 351 351 351 351 350 351 350 349 349 349 349 349 349 350 350 350 349 348 349 350 352 353 354 356 356 357 356 355 353 352
351 351 351 350 350 351 351 351 351 351 351 351 351 350 351 351 351 351 349 349 349 349 349 349 350 350 350 351 350 350 350 351 352 354 355 356 356 356 357 357 356 355
352 351 351 351 351 351 351 351 351 351 351 351 351 350 350 351 351 351 350 350 350 350 349 350 350 350 350 351 352 351 350 351 352 353 355 357 357 357 357 357 357 357
352 352 351 351 351 351 351 351 351 351 351 350 351 350 349 350 349 350 350 350 350 350 350 349 350 349 350 351 352 352 351 351 352 353 354 356 357 357 357 357 357 357
352 352 352 351 352 351 351 351 351 351 351 351 350 350 349 349 349 349 349 350 350 350 350 350 349 349 350 350 351 353 352 351 351 352 353 354 355 357 357 357 357 357
352 352 352 352 351 352 351 351 351 351 351 350 350 350 350 348 348 348 348 349 349 350 350 349 350 349 349 350 351 352 352 352 352 353 353 353 353 355 356 357 357 357
352 352 352 352 351 351 351 351 351 351 351 351 350 350 349 349 349 348 348 348 348 348 349 349 349 350 350 350 351 352 352 352 353 353 353 353 353 354 354 356 357 357
352 352 352 352 351 352 352 351 351 351 351 351 350 350 350 349 350 349 348 349 349 349 349 350 350 351 351 351 351 352 352 352 352 353 353 354 354 354 354 355 356 357
352 352 352 352 352 351 351 352 351 351 351 351 350 350 350 350 350 350 350 350 350 350 350 350 351 351 351 352 351 352 352 352 352 353 353 354 354 354 354 354 355 357
352 352 352 352 352 352 352 352 351 351 351 350 351 350 350 350 350 350 350 350 351 350 350 351 351 351 352 352 352 352 352 352 352 352 353 354 354 354 355 355 355 355
352 352 352 352 352 352 352 352 351 351 350 351 350 350 350 350 350 351 350 351 351 351 351 351 351 351 351 352 352 352 352 352 352 353 353 353 353 353 354 354 355 355
352 352 352 352 352 352 352 352 351 351 351 351 351 350 350 350 350 351 351 351 351 351 351 351 351 351 352 352 353 353 352 353 352 353 353 353 354 354 354 354 354 354
353 352 352 352 352 352 352 352 352 351 351 351 351 350 351 350 351 351 351 351 351 351 352 352 352 352 352 352 353 352 353 353 353 353 354 354 354 354 354 354 355 355
352 352 352 352 352 352 352 352 351 352 351 351 351 351 351 350 351 351 351 351 351 351 352 352 352 353 353 352 353 353 353 353 353 353 354 354 355 355 355 355 354 355
352 352 352 352 352 352 352 352 352 351 352 351 351 351 351 351 351 351 351 352 351 352 352 352 352 353 352 352 352 353 353 353 354 354 354 354 355 355 355 355 355 355
352 352 352 352 352 352 352 352 352 352 351 351 351 351 351 351 351 351 352 352 352 352 352 353 353 353 352 352 352 352 353 353 353 354 354 354 355 355 356 356 355 355
352 352 352 352 352 352 352 352 352 351 352 351 351 351 351 351 351 351 351 352 352 352 352 353 353 352 352 352 352 353 353 354 354 354 354 354 355 355 355 355 355 355
353 352 353 352 352 352 352 352 352 352 352 352 351 352 351 351 351 351 351 351 352 352 352 353 353 352 352 352 353 353 353 354 354 354 354 354 354 354 355 355 354 355
353 353 353 353 353 353 352 353 352 352 352 352 352 352 352 351 351 351 351 351 351 352 352 352 352 352 352 353 353 353 354 354 354 354 354 354 354 354 354 354 355 355
354 354 354 354 354 354 354 353 353 353 353 352 352 352 352 352 352 352 352 352 352 351 351 351 352 352 352 352 352 353 354 354 354 354 354 354 354 354 354 354 355 355
355 355 355 355 355 355 354 354 354 354 354 353 353 353 353 353 353 352 352 352 352 351 351 352 351 351 351 352 352 352 353 353 354 354 354 354 354 355 355 355 356 356
356 356 356 356 356 355 355 356 355 355 354 354 354 353 353 353 353 352 353 352 352 352 351 351 352 351 351 351 351 352 352 353 353 354 354 354 354 354 354 355 355 355
357 357 356 356 357 357 356 356 356 356 356 355 355 354 354 354 354 353 353 353 352 352 352 352 352 352 351 351 351 351 352 352 353 353 354 354 353 353 354 354 354 355
358 358 358 358 358 357 357 357 356 357 356 356 356 355 355 355 354 354 354 353 353 353 353 353 352 352 352 351 351 352 352 352 352 353 353 353 353 353 353 354 354 354
359 358 358 358 359 358 358 358 358 357 358 356 356 356 356 355 355 354 354 354 354 354 353 353 353 353 352 352 352 352 352 352 352 352 352 352 352 353 353 353 354 354
359 359 359 358 359 359 359 358 358 358 358 357 357 357 356 356 356 355 355 354 354 354 353 353 353 353 353 353 352 352 352 352 352 352 352 352 352 352 353 353 353 354

ECMWFNIL_925_thetae_063.txt.gz
Theta_e
353 353 352 352 352 350 350 349 349 350 349 350 351 351 350 349 349 349 349 349 350 350 350 350 349 349 350 350 349 350 351 352 354 353 349 350 355 357 357 357 356 356
353 353 352 353 352 350 349 349 349 350 348 348 349 349 348 348 349 349 349 349 349 350 350 349 349 349 349 350 349 350 351 351 354 355 350 349 355 357 357 358 357 356
353 353 352 353 353 351 351 351 350 349 350 349 349 348 348 349 350 350 349 349 349 350 350 349 349 349 349 349 349 349 351 351 353 355 353 349 353 357 357 357 357 357
354 354 353 353 353 352 352 353 352 350 351 350 349 349 349 350 350 350 350 350 350 350 350 349 349 349 349 349 349 349 350 351 351 353 355 353 351 354 356 357 358 358
354 354 353 353 353 353 353 352 352 351 351 351 350 350 349 350 350 350 350 350 350 350 350 349 349 349 349 349 349 349 350 353 353 352 355 356 354 355 356 356 356 357
355 354 354 354 353 353 353 351 351 351 351 351 351 350 350 350 350 350 351 351 350 351 351 350 349 349 350 350 349 350 351 355 357 355 356 357 357 356 356 353 353 355
355 355 354 354 354 354 353 352 352 351 351 352 351 350 350 350 350 350 350 350 350 351 351 350 349 349 350 351 350 350 351 354 356 357 358 358 357 357 356 353 352 353
355 355 354 355 354 354 354 353 353 352 351 352 352 351 350 350 350 350 350 350 350 350 350 349 348 348 349 351 351 351 352 354 355 356 358 358 358 358 357 356 354 353
355 355 355 355 355 355 354 354 354 353 352 352 352 352 351 350 350 351 350 349 349 349 348 348 348 347 348 350 350 350 352 354 355 354 354 356 357 357 356 356 355 354
356 356 356 355 355 355 354 354 354 354 353 352 352 353 352 351 351 351 350 349 349 349 348 348 348 348 348 349 349 349 351 353 353 353 352 353 354 355 356 356 355 354
356 356 355 355 355 354 355 354 354 354 354 353 353 353 353 352 351 350 350 350 349 349 348 348 348 349 349 349 350 351 350 352 353 352 352 352 352 353 355 354 354 354
356 356 355 355 355 355 355 355 354 354 354 353 353 353 353 353 353 352 351 350 350 349 349 348 348 349 349 350 351 352 351 351 352 352 352 352 353 353 354 354 353 353
356 356 356 355 355 355 355 355 354 354 354 353 354 353 354 354 354 353 352 350 350 349 349 349 348 349 349 350 351 352 352 351 352 353 354 354 353 354 355 356 354 354
356 356 356 355 356 355 355 355 354 354 354 354 353 354 354 354 354 354 353 352 351 350 350 350 349 349 350 350 350 351 352 352 353 354 355 356 355 355 356 356 356 356
356 356 356 356 355 355 355 355 355 354 354 354 354 354 354 354 354 355 354 354 353 352 352 352 352 352 351 350 350 351 352 353 354 355 356 356 357 357 356 356 356 357
356 356 356 356 356 355 355 354 355 355 355 354 354 354 354 354 354 354 355 355 355 354 354 354 354 353 351 350 350 350 352 354 356 356 355 356 357 357 357 357 356 357
355 356 356 355 355 355 355 354 355 355 355 355 354 354 354 354 354 354 355 355 355 355 356 355 355 353 351 350 349 350 351 354 356 356 356 356 357 357 358 358 357 358
356 356 355 355 355 355 354 354 354 355 355 355 355 354 354 354 355 355 355 354 355 355 356 356 355 353 351 350 350 349 350 352 355 357 357 357 357 357 358 358 358 358
356 356 356 355 355 354 354 354 355 355 355 355 355 354 354 354 355 354 355 355 355 355 356 356 356 354 352 350 350 350 350 351 353 356 357 357 358 358 358 358 358 358
356 356 356 356 355 354 355 355 355 355 355 355 355 355 355 355 355 355 355 355 355 355 355 356 355 355 353 351 351 350 350 351 352 354 356 357 358 358 358 358 358 359
356 356 356 356 355 355 355 356 356 355 355 355 355 356 356 355 355 355 355 355 355 355 355 355 355 354 353 352 352 351 351 351 352 353 355 356 357 358 358 358 358 359
356 356 357 357 356 356 356 356 356 356 356 356 356 356 356 356 355 355 356 356 356 355 355 355 355 354 353 352 352 351 351 352 352 352 353 356 357 357 358 358 358 358
356 357 357 357 357 357 357 357 356 356 356 356 356 356 356 356 356 356 356 356 356 356 356 356 355 354 353 353 352 351 351 351 352 352 353 355 356 357 357 358 357 357
357 357 358 358 358 358 358 357 357 357 357 357 357 356 356 357 357 357 356 356 356 356 356 356 356 355 354 353 352 352 351 351 351 352 353 355 356 356 357 357 357 356
358 358 359 359 359 359 358 358 358 358 358 358 357 357 357 357 357 357 357 357 357 357 356 356 356 356 355 354 353 352 352 351 351 352 354 355 356 356 356 357 357 355
359 359 359 359 360 360 359 359 359 359 359 359 359 358 358 358 358 358 358 358 358 357 357 356 356 356 356 355 354 353 353 352 351 352 354 355 355 355 356 357 357 357

ECMWFNIL_925_thetae_066.txt.gz
Theta_e
357 357 358 358 358 357 356 356 355 354 353 352 353 354 355 357 357 357 357 359 360 359 359 359 359 358 357 357 357 357 357 357 357 356 357 357 358 358 359 360 360 359
356 357 357 358 359 358 357 357 356 355 355 354 352 353 356 358 358 358 358 358 359 358 358 359 359 358 357 357 358 358 358 359 358 356 357 358 357 357 358 359 359 359
356 356 357 357 359 359 357 356 357 357 356 356 354 354 356 358 359 359 358 358 358 357 358 358 359 358 358 358 358 358 358 359 359 357 358 359 357 357 357 358 358 358
357 356 356 357 358 359 357 357 358 358 356 356 356 355 355 356 358 359 360 359 358 358 358 358 358 358 358 359 358 358 357 359 360 359 359 360 359 358 357 358 357 357
358 357 357 357 358 359 358 358 358 358 357 356 356 356 356 357 358 358 360 360 358 358 358 358 359 358 358 359 359 358 357 357 359 360 360 360 359 359 358 357 358 358
359 359 358 358 359 359 359 358 358 358 357 356 356 357 358 358 358 357 358 359 359 358 357 357 358 358 357 359 359 359 358 356 357 359 360 360 359 359 358 358 359 359
361 360 359 359 360 359 359 359 358 358 358 357 356 357 358 358 359 358 357 358 358 358 357 356 358 358 357 358 360 361 359 358 358 359 360 360 359 359 359 359 360 361
361 361 360 361 361 360 359 359 359 359 359 358 357 357 358 358 359 358 357 358 358 358 358 357 359 360 359 357 359 361 361 359 359 360 361 360 360 360 361 361 362 362
362 362 362 361 360 360 359 359 359 359 359 358 357 357 358 358 358 358 358 359 358 359 360 359 359 361 360 359 359 361 362 359 358 360 361 361 360 361 361 361 362 362
362 362 362 361 360 359 359 359 358 359 359 359 358 357 358 358 358 358 358 360 360 360 360 361 361 361 360 360 359 360 361 360 359 360 361 362 361 360 361 361 361 362
362 362 361 361 361 359 359 359 358 358 359 359 358 357 357 358 359 358 359 360 361 360 360 361 361 361 360 359 358 360 360 360 360 361 362 362 362 361 360 361 361 361
362 362 361 361 360 359 359 358 358 358 359 359 359 358 357 357 359 359 359 360 360 361 360 361 361 361 361 359 357 358 360 360 359 360 361 362 362 361 361 361 362 361
362 362 361 361 361 360 358 358 358 358 358 359 359 359 357 356 358 359 360 360 361 361 360 361 361 361 361 361 359 357 359 360 359 359 360 362 362 361 360 360 361 361
362 362 361 361 361 361 360 359 359 358 358 359 359 359 358 356 356 359 360 360 360 361 360 360 361 361 361 362 361 359 359 360 360 360 358 360 361 361 360 359 359 359
362 362 362 362 362 362 361 360 359 359 359 359 360 360 359 357 357 357 360 361 361 362 361 360 360 361 361 362 362 362 360 358 360 360 359 358 360 360 359 359 358 356
363 363 362 362 362 362 362 361 360 360 360 360 360 360 359 358 358 358 359 361 361 362 362 361 361 360 360 359 358 360 361 359 359 360 361 360 359 360 359 359 358 357
363 363 363 363 363 363 363 362 361 361 361 361 361 361 360 360 360 360 359 359 361 362 362 362 361 360 359 356 354 354 358 360 360 360 362 362 361 361 360 359 358 358
364 364 364 364 364 364 364 363 362 362 362 362 362 362 362 361 361 361 360 359 360 361 362 361 361 360 358 355 353 351 351 357 360 360 361 362 362 362 361 360 358 358
364 364 365 365 364 364 364 364 363 363 362 363 362 362 362 362 362 361 361 361 360 360 361 361 361 361 359 356 354 352 349 351 356 358 359 360 362 362 361 361 361 361
365 365 365 365 365 365 365 365 364 363 363 362 362 363 363 363 363 361 362 362 361 360 361 360 360 360 360 358 356 354 352 351 353 356 357 358 360 362 362 362 362 363
365 366 365 365 366 365 365 365 364 364 364 363 362 362 363 363 363 362 363 362 362 361 361 360 359 359 359 358 357 355 354 352 353 355 357 357 359 361 361 362 363 363
365 365 365 366 365 365 365 365 364 365 364 363 362 362 362 363 362 362 362 362 362 362 361 361 360 359 358 358 357 356 355 354 354 355 357 357 359 360 361 362 363 363
364 364 365 365 365 365 365 364 364 365 364 364 362 362 361 362 362 362 362 362 361 362 362 361 361 359 358 357 356 356 355 354 354 356 357 358 359 360 360 361 362 363
363 363 365 365 365 365 365 364 364 364 364 364 363 361 360 361 362 362 362 362 361 361 362 362 361 361 359 357 356 356 355 354 355 357 358 359 359 360 360 361 362 362
363 364 364 365 365 365 364 364 364 364 364 363 363 361 360 360 361 361 362 362 361 361 361 361 361 361 360 358 357 356 354 355 356 358 358 359 360 360 361 361 362 361
363 363 364 364 365 365 364 364 363 363 363 363 363 362 361 361 360 360 361 362 361 361 361 361 360 361 361 359 358 357 355 354 356 358 359 360 360 361 361 362 362 362

ECMWFNIL_925_thetae_069.txt.gz
Theta_e
359 360 361 359 356 353 354 356 355 354 352 348 349 352 351 351 353 352 352 356 359 359 359 359 361 361 360 359 360 359 359 359 358 356 357 358 358 359 359 360 361 361
358 360 361 361 359 357 355 355 356 355 354 350 347 350 352 353 354 354 353 355 357 359 359 359 360 361 360 358 358 360 359 359 359 356 356 358 358 357 358 358 359 360
359 360 361 361 360 358 356 355 356 355 354 353 350 348 351 354 355 357 356 355 355 356 357 359 359 361 361 359 358 359 358 359 360 356 355 357 358 357 356 356 357 358
359 360 360 360 360 359 358 355 356 357 354 354 353 350 349 351 354 357 358 357 356 354 356 358 358 359 360 360 359 359 357 358 360 358 357 358 359 358 357 355 356 356
361 360 360 360 359 360 360 357 356 357 355 353 355 354 351 351 354 357 359 360 358 356 355 358 358 358 359 360 360 360 358 357 358 359 360 360 360 359 357 356 356 356
362 361 361 360 360 360 361 359 358 357 356 354 354 355 354 353 355 356 359 361 359 356 354 355 358 358 358 360 360 360 358 355 354 358 361 362 360 358 356 355 356 358
362 361 361 361 360 360 361 362 360 358 357 356 354 355 356 356 356 357 358 360 359 356 354 354 356 358 357 358 360 360 360 357 355 356 359 362 361 359 357 356 356 358
361 362 362 361 360 361 362 363 362 360 359 357 356 356 356 357 358 358 357 358 359 357 355 354 355 358 358 357 359 361 361 360 357 357 359 361 361 361 361 359 358 359
363 363 362 361 361 361 361 362 362 361 360 359 358 356 356 357 358 359 358 357 357 357 358 356 356 358 359 357 358 360 361 360 357 358 359 360 362 361 361 361 360 360
363 363 362 362 361 361 360 360 360 361 361 360 359 355 356 358 359 359 360 359 358 358 359 360 359 360 360 359 358 359 361 361 359 358 359 361 362 361 360 360 359 359
363 362 362 362 361 359 359 359 359 359 360 361 360 356 355 358 359 360 360 361 361 359 361 361 361 361 361 360 358 358 359 361 361 360 359 361 362 362 361 360 359 359
362 362 362 362 361 359 358 358 357 357 358 360 360 357 355 356 360 360 360 361 362 361 361 362 363 363 362 360 358 358 359 359 360 360 360 360 362 363 362 361 360 360
363 362 361 362 361 359 358 357 357 355 356 359 359 358 356 355 358 361 360 361 363 362 362 363 364 363 363 362 358 356 358 359 358 359 360 360 362 363 361 360 359 360
363 362 360 361 361 359 357 357 356 355 354 356 358 359 357 354 356 360 361 361 363 364 363 364 365 364 363 364 362 357 357 359 359 358 358 360 361 361 360 357 356 356
364 363 362 361 361 360 358 357 357 356 354 355 358 359 358 355 353 357 361 362 363 364 364 362 364 364 364 364 364 362 357 356 359 359 357 357 359 360 359 358 355 352
364 364 362 362 362 362 360 358 357 357 356 355 358 360 359 357 355 354 359 361 362 363 364 363 362 363 363 361 361 362 360 356 356 359 358 356 356 358 358 357 356 354
366 365 364 363 362 363 362 360 358 358 358 357 359 360 361 360 358 356 356 359 361 363 364 362 361 359 360 360 357 357 360 360 356 357 359 359 356 357 357 355 354 353
368 367 367 365 364 365 365 362 360 359 359 360 360 362 363 362 360 358 357 357 359 362 363 362 360 358 359 359 356 352 353 358 359 356 357 359 359 357 356 356 354 351
369 368 369 368 368 368 368 366 363 361 361 362 362 364 364 365 363 361 360 358 358 360 362 362 360 359 359 358 356 352 349 353 358 357 355 357 359 358 356 356 356 355
370 370 370 370 369 369 370 368 365 364 364 364 364 364 366 366 364 363 362 361 360 360 362 362 361 360 361 359 357 354 351 351 354 357 355 354 357 359 358 357 358 359
370 370 370 371 371 370 371 370 368 367 366 364 364 365 366 367 366 364 364 364 362 360 361 362 361 360 361 360 359 358 356 354 355 356 357 356 356 358 361 361 360 361
371 371 371 371 371 370 371 370 369 369 368 366 365 365 367 368 366 365 365 365 364 362 361 361 361 360 360 361 361 359 358 356 356 358 358 358 358 358 361 362 363 364
370 371 371 371 371 372 371 370 370 370 369 367 366 365 366 366 367 366 364 365 365 364 362 362 360 359 359 359 360 361 359 358 357 359 360 359 360 359 360 362 364 364
370 370 371 372 372 371 370 371 371 370 370 368 366 365 363 364 366 365 365 364 365 365 365 363 360 359 360 359 359 359 359 358 358 359 360 361 361 361 361 362 363 362
370 370 371 371 371 371 371 370 370 369 370 368 366 364 362 362 364 365 365 364 364 365 365 364 362 360 360 360 359 359 358 358 359 361 361 362 363 363 363 363 363 362
370 371 371 372 372 371 370 370 369 369 369 369 368 365 362 362 362 363 364 365 363 362 363 363 362 361 361 361 360 360 357 357 360 361 362 362 363 363 363 364 364 364

ECMWFNIL_925_thetae_072.txt.gz
Theta_e
353 352 351 349 347 346 349 350 348 347 347 348 349 349 349 350 349 353 354 354 356 357 357 358 359 359 360 360 360 358 358 358 359 358 357 358 359 359 359 359 359 359
356 355 353 352 349 347 349 352 350 349 348 348 349 350 349 348 348 349 352 353 355 358 359 359 359 360 361 362 361 359 359 359 360 359 358 358 358 359 358 358 358 359
358 358 357 355 353 350 350 351 352 351 350 348 347 349 350 350 349 349 351 353 354 359 360 360 360 360 361 362 360 360 361 361 361 360 357 357 357 359 358 357 357 357
359 360 359 358 357 353 351 351 353 353 352 350 347 347 349 351 351 351 351 353 354 358 360 359 359 360 361 362 360 360 360 360 361 361 358 356 356 358 359 358 356 356
359 360 361 360 359 356 353 351 353 354 353 352 350 347 346 348 352 353 353 353 354 356 359 358 358 358 360 361 360 359 360 359 359 359 359 358 357 359 359 358 357 356
358 359 360 361 360 359 357 354 353 353 353 353 353 351 347 347 352 355 355 355 355 356 357 357 358 359 360 361 361 360 360 359 358 359 359 359 359 360 359 358 356 356
359 360 360 361 361 360 360 357 354 354 355 354 352 353 351 348 349 353 355 357 357 356 356 355 356 358 359 360 361 360 361 359 357 357 358 359 360 361 360 358 355 356
360 361 360 361 361 360 360 359 357 355 355 355 353 353 353 350 350 351 355 358 359 358 356 354 355 357 358 359 359 360 360 360 358 356 357 358 360 362 360 358 357 356
361 361 361 361 361 361 360 360 359 356 355 355 354 352 353 353 351 352 353 356 359 359 358 354 354 356 357 358 359 360 360 361 359 355 356 358 359 361 362 360 359 358
361 361 362 361 361 360 360 360 359 358 356 356 354 353 353 355 354 353 354 356 359 360 359 355 354 355 357 357 358 359 359 360 360 357 356 357 358 361 363 362 362 360
362 361 362 361 360 359 359 358 359 359 358 357 355 354 354 355 356 356 356 356 357 359 359 357 355 355 356 357 357 359 359 360 361 360 358 357 357 359 361 362 362 360
363 362 362 361 361 359 358 357 358 359 360 359 357 355 354 356 357 358 358 357 356 357 358 357 358 356 356 357 358 358 359 360 361 361 359 359 358 359 360 361 361 360
363 362 361 362 361 359 358 358 358 359 359 358 357 356 354 355 357 357 358 359 358 357 357 358 358 358 358 358 359 358 358 359 361 361 361 360 359 359 360 361 362 362
363 362 361 362 361 359 358 358 358 358 358 360 358 357 354 354 356 358 359 360 360 359 357 358 358 359 360 359 359 358 358 358 359 360 360 360 359 359 359 362 362 362
362 362 362 362 361 359 358 358 358 357 357 358 359 359 356 354 354 357 359 359 361 362 360 360 359 359 360 361 360 358 357 358 358 358 359 359 359 360 360 361 361 361
363 363 362 361 361 360 359 358 357 357 357 358 359 360 358 356 352 355 360 360 360 362 363 361 360 361 361 361 360 357 355 356 356 358 358 357 357 359 359 360 360 359
364 363 361 362 362 361 360 359 358 358 356 356 359 360 359 357 354 354 358 361 361 362 363 362 362 362 362 362 359 357 355 353 354 357 357 357 357 357 357 358 358 358
365 363 364 363 363 362 361 359 358 358 356 356 357 359 359 358 356 354 356 359 361 362 364 364 363 362 362 361 360 358 356 353 352 353 355 357 357 356 356 356 356 355
365 365 364 363 364 363 362 360 359 358 358 356 357 358 359 359 358 356 355 356 360 362 362 364 363 362 360 360 359 358 357 355 353 353 353 355 356 356 356 355 354 354
366 366 366 364 364 364 363 362 359 359 359 358 357 359 360 361 360 358 357 355 358 360 363 363 363 362 359 359 359 359 356 354 354 354 353 353 354 357 358 356 354 354
367 367 367 366 365 364 364 363 361 360 360 358 357 358 360 362 360 360 359 357 356 358 361 362 361 362 360 359 358 357 356 354 354 355 356 354 354 355 357 358 357 355
369 369 369 368 367 365 366 364 363 362 361 360 358 358 359 362 362 361 361 359 358 357 359 360 361 360 360 360 359 358 357 356 355 355 354 355 355 356 356 357 357 356
370 370 369 369 368 367 367 366 364 363 362 360 359 358 359 362 363 363 363 362 360 358 358 359 359 360 360 361 360 359 357 357 357 355 356 355 355 356 357 358 359 359
370 370 371 370 369 368 368 368 366 364 363 361 360 359 361 363 364 365 364 362 362 360 359 359 358 358 359 360 361 360 359 359 358 357 358 357 356 355 356 357 358 359
371 371 371 371 370 369 370 370 368 366 363 362 361 361 362 363 365 365 365 363 361 361 361 361 360 359 358 359 360 359 359 360 359 359 360 360 359 359 358 356 355 355
373 373 372 372 373 371 371 372 371 367 365 363 363 362 361 363 364 365 366 365 363 362 363 363 362 360 359 359 359 359 359 360 359 360 360 361 361 361 361 360 358 355

ECMWFNIL_925_thetae_075.txt.gz
Theta_e
345 344 344 347 347 344 341 340 340 341 340 343 349 353 353 352 352 353 355 356 355 354 357 358 357 356 356 355 354 355 356 355 356 356 356 357 357 358 359 359 359 358
346 346 344 345 347 346 344 340 339 340 340 340 342 347 352 352 352 351 352 354 354 352 354 356 357 357 357 357 356 354 355 356 357 357 357 357 357 357 358 358 358 357
348 347 347 344 344 344 345 343 340 339 339 341 340 341 345 349 352 353 353 353 353 353 353 354 356 357 357 358 357 356 354 354 356 356 357 358 357 357 356 357 357 357
350 348 347 346 344 343 344 345 344 341 340 341 341 341 340 342 347 350 353 354 353 354 353 353 355 356 357 357 358 358 356 353 353 353 356 358 357 356 357 356 357 357
351 349 348 347 345 344 344 346 346 345 342 341 342 343 343 341 342 344 348 352 354 353 353 354 355 356 358 358 358 360 358 355 355 354 356 358 357 355 356 357 357 356
353 351 349 348 346 346 345 345 347 346 345 344 343 344 347 346 345 343 343 348 352 354 353 354 354 356 358 359 358 359 359 357 357 357 357 357 357 356 356 358 357 357
356 354 352 350 349 347 346 345 347 348 348 347 346 345 347 349 349 347 345 346 350 353 354 354 355 356 357 359 359 359 359 357 357 358 358 356 356 356 357 358 358 357
357 356 355 354 352 350 349 346 347 348 349 350 349 347 347 348 350 350 349 348 349 352 354 354 355 356 357 357 358 359 359 358 358 359 358 357 356 355 355 357 359 358
358 358 356 356 354 353 352 350 348 348 349 351 351 350 348 347 347 349 351 350 350 351 353 354 357 357 356 355 357 358 359 357 357 358 358 358 357 356 354 356 357 358
358 358 357 357 357 355 355 354 351 350 350 351 351 351 351 349 346 346 351 353 352 352 353 353 356 356 356 355 355 357 358 358 357 356 356 358 358 357 356 355 355 355
359 357 357 358 358 358 357 356 356 352 351 351 352 352 352 352 349 346 350 354 354 354 353 353 354 355 355 356 355 356 358 357 357 356 355 356 357 357 357 356 356 354
359 358 357 357 357 357 357 358 358 356 354 353 352 352 352 353 352 348 349 352 355 355 355 354 354 354 355 355 355 356 357 357 357 356 356 355 356 356 357 357 358 357
359 358 357 357 357 357 357 358 358 358 356 355 353 353 353 352 353 351 349 350 353 355 356 356 356 355 354 355 356 356 357 358 358 357 357 356 356 356 355 356 357 358
360 359 357 357 357 357 357 358 358 358 357 356 355 354 353 353 352 353 352 350 351 353 355 357 357 357 356 355 356 356 357 357 358 358 358 357 357 357 357 357 356 357
360 359 358 357 357 357 357 358 358 358 357 357 356 354 354 352 352 353 354 352 352 353 354 357 359 359 358 356 355 355 356 357 358 358 359 358 357 358 359 358 358 358
361 359 359 359 359 357 357 358 357 357 358 357 356 355 354 353 353 353 354 354 354 355 355 357 358 359 358 357 355 355 355 356 358 358 358 359 359 359 359 359 358 358
361 360 360 359 359 358 357 357 357 356 357 358 358 357 354 354 353 354 355 355 356 356 356 357 357 357 358 358 357 356 356 356 357 358 358 358 359 359 359 358 358 358
362 361 360 360 359 359 358 357 357 356 356 357 359 358 357 354 355 355 356 356 357 357 358 357 356 356 357 356 357 357 356 357 357 358 358 358 358 358 358 358 358 357
362 361 361 360 359 360 359 358 357 357 357 357 359 358 357 356 355 354 355 357 357 357 358 359 358 357 357 357 357 357 357 357 357 357 358 358 357 357 357 357 358 358
363 362 361 361 360 360 360 359 358 358 358 357 358 359 358 357 356 354 355 357 357 357 358 359 359 358 358 357 357 357 357 357 357 357 357 356 357 357 356 356 356 356
364 363 362 362 361 361 360 360 358 358 358 357 358 359 359 358 358 357 355 356 358 358 359 360 360 359 359 359 358 358 358 358 358 358 356 354 354 356 356 356 355 355
364 363 363 362 361 362 362 361 359 358 358 358 357 358 359 359 358 358 356 356 358 360 359 359 361 360 360 359 359 359 359 359 360 359 357 355 353 354 355 355 355 354
364 364 363 362 362 363 362 362 361 359 358 359 358 357 359 360 359 359 358 356 356 358 360 360 361 360 360 361 359 360 360 360 361 360 359 357 355 354 354 354 354 353
365 364 363 363 363 363 362 363 361 360 359 358 359 357 358 360 360 359 358 357 355 356 358 361 361 361 361 361 361 360 360 360 360 360 360 358 356 355 355 355 355 356
366 365 365 364 363 363 363 363 363 361 360 358 359 358 357 358 360 360 358 358 357 357 357 357 360 361 361 361 361 361 360 360 359 360 360 359 357 356 355 354 355 357
367 366 365 365 364 363 363 363 363 362 361 359 359 359 358 358 359 360 360 359 358 359 358 356 357 358 359 360 360 360 360 360 359 359 358 358 358 357 356 354 353 352

ECMWFNIL_925_thetae_078.txt.gz
Theta_e
346 346 344 342 341 342 343 342 341 342 343 346 349 349 349 349 352 354 355 354 355 355 353 352 353 354 354 354 354 355 356 354 354 354 354 355 356 357 358 359 357 357
344 345 345 343 341 341 342 341 341 341 340 341 345 347 347 348 350 352 354 354 355 355 355 354 356 356 354 353 353 355 356 355 355 354 354 356 356 356 357 359 359 358
343 343 344 344 343 341 341 342 342 342 341 340 342 346 348 348 348 349 351 352 353 354 355 355 357 358 356 354 352 354 355 356 355 355 355 356 356 355 355 357 358 358
344 343 343 344 345 341 340 342 344 344 342 341 341 343 344 346 348 348 349 350 351 352 354 355 356 357 357 356 354 354 354 354 355 356 357 356 357 357 355 356 357 357
346 344 343 343 345 344 341 341 342 344 343 342 341 341 342 343 346 348 348 349 350 351 352 353 353 355 357 356 356 355 354 353 354 355 356 357 357 357 356 356 356 356
348 346 344 343 344 345 344 342 341 341 341 341 341 341 341 341 344 346 348 349 350 351 351 352 353 353 355 355 357 356 355 354 352 353 355 354 355 356 356 356 355 355
349 348 345 344 344 344 346 345 342 340 339 340 339 339 340 341 343 344 346 348 349 350 352 352 353 352 352 354 356 356 356 355 353 353 354 352 352 355 357 356 355 355
350 349 348 346 345 344 344 345 344 342 340 339 338 339 339 339 340 341 342 345 348 349 351 353 353 352 352 353 354 356 357 356 355 354 354 353 353 355 356 356 356 355
351 350 350 348 347 346 344 344 344 343 342 342 340 339 339 339 338 338 338 339 342 346 349 351 352 353 353 353 352 354 356 357 356 355 355 354 354 354 353 353 355 356
353 352 351 350 348 347 346 344 343 343 343 344 343 342 341 341 340 339 338 337 338 342 345 347 350 352 353 353 352 352 353 356 357 356 355 354 353 353 352 353 354 354
355 354 353 352 350 349 348 346 345 344 344 344 344 344 343 342 342 342 341 341 342 342 343 344 347 350 353 353 352 351 351 353 355 356 356 355 353 352 353 354 355 354
356 355 355 354 352 351 350 348 347 346 345 345 345 346 345 345 344 344 344 344 345 345 345 345 346 349 352 353 352 352 353 353 354 355 356 356 354 352 352 354 355 356
357 356 356 355 355 354 352 350 349 348 346 345 345 346 347 347 346 346 346 346 347 348 348 347 347 349 351 352 353 353 354 355 355 355 356 357 356 353 352 354 355 356
359 358 357 356 356 355 355 353 352 351 349 348 347 346 347 348 348 348 347 346 347 348 350 350 350 350 351 352 354 354 355 355 356 355 356 356 356 354 353 353 353 354
359 359 358 357 357 356 356 355 355 353 352 351 350 348 348 349 349 349 349 348 347 347 348 350 351 351 352 352 353 354 355 356 355 355 356 356 356 355 354 352 352 353
360 359 359 358 358 357 356 356 355 355 354 353 353 351 350 349 349 349 350 349 349 348 348 350 352 352 352 351 352 352 353 354 356 355 355 356 356 355 355 354 353 353
361 360 360 358 357 357 357 356 356 355 355 355 355 354 353 352 351 350 350 350 350 349 349 350 351 352 352 352 352 352 352 353 355 355 356 356 357 356 356 355 354 353
362 361 360 359 358 358 356 356 356 355 355 356 355 356 355 354 353 352 351 351 351 351 350 350 351 352 352 353 353 353 353 353 354 355 356 357 357 356 356 355 355 355
362 362 361 360 359 358 357 357 356 355 355 356 356 356 356 355 354 353 352 351 351 352 351 351 350 351 352 352 354 353 354 355 355 355 356 356 356 357 357 356 356 355
363 362 361 361 360 359 358 357 357 356 356 356 355 355 355 356 355 354 353 352 352 352 353 352 351 351 351 352 353 353 355 355 356 355 355 355 355 356 356 356 357 356
363 363 361 361 360 359 358 358 357 356 356 355 355 356 356 356 355 354 353 353 352 352 353 352 353 352 352 352 352 353 355 356 357 357 355 355 356 356 356 356 356 356
363 363 363 362 361 360 359 358 358 358 357 356 356 355 355 356 356 355 354 353 352 352 353 354 353 353 353 353 352 353 354 356 357 358 357 357 356 356 356 356 357 357
361 362 363 362 362 360 359 359 359 358 357 357 356 355 356 355 356 356 355 354 353 352 353 354 354 354 354 354 353 354 354 355 357 357 358 357 357 356 356 356 356 356
359 360 362 362 362 362 360 360 359 358 358 357 357 356 355 355 356 356 356 356 355 354 354 354 355 354 355 355 355 354 355 355 356 356 357 357 356 357 356 356 356 356
357 358 359 361 362 362 361 361 360 359 359 358 357 357 355 356 356 356 356 357 356 354 354 355 355 355 355 356 355 356 356 356 356 356 357 357 357 357 357 356 356 355
356 357 358 360 362 363 362 361 361 360 360 358 358 357 356 356 355 356 357 357 356 356 355 355 355 356 356 356 356 357 357 357 357 357 357 357 357 358 358 357 357 357

ECMWFNIL_925_thetae_081.txt.gz
Theta_e
348 348 346 345 347 347 346 347 347 348 348 348 348 348 347 345 343 347 350 352 352 351 353 353 353 353 353 355 355 355 355 355 354 354 354 354 355 355 354 355 356 356
348 348 346 345 346 347 346 346 346 347 346 346 347 347 347 345 343 344 348 351 353 352 353 353 353 352 352 353 354 355 355 354 354 354 354 354 354 355 354 354 355 356
347 348 346 345 345 345 345 345 345 346 345 345 345 346 347 347 345 344 346 350 353 353 353 353 353 353 352 352 353 354 354 354 354 354 354 354 354 355 355 355 355 357
347 347 347 346 345 343 342 343 344 345 345 344 344 345 345 345 346 346 346 348 351 353 353 353 353 353 352 352 353 354 354 353 353 354 354 354 353 354 355 355 355 356
347 346 346 347 346 344 343 343 343 343 344 344 344 343 343 342 343 345 346 347 349 351 352 353 353 353 353 353 354 355 355 354 353 354 355 354 354 354 355 356 355 355
347 345 345 346 346 346 345 343 342 342 342 343 342 341 341 340 340 343 345 346 347 349 351 351 352 352 352 353 354 356 356 355 353 354 355 354 354 356 356 356 356 355
347 346 345 345 345 346 345 344 342 341 341 342 341 340 340 340 339 340 343 345 346 347 348 348 349 350 351 352 353 355 356 356 355 354 355 354 354 355 355 356 356 355
348 347 345 345 344 345 345 344 343 342 341 341 341 340 340 341 340 339 341 344 345 346 346 346 347 348 350 352 352 353 354 355 355 355 355 355 354 354 353 354 355 354
348 347 347 345 344 344 344 344 344 342 341 341 341 341 341 341 341 340 340 342 343 345 346 346 347 347 349 351 351 352 352 352 354 354 355 356 355 354 352 352 353 352
348 348 347 347 345 344 343 343 344 344 343 342 341 342 343 343 343 341 341 342 342 343 345 346 347 347 349 351 351 351 352 351 351 352 353 354 354 354 353 352 352 351
349 348 348 347 346 345 344 342 343 344 344 344 342 342 343 342 343 342 341 343 342 342 343 344 345 345 347 349 349 351 352 352 352 352 352 352 352 353 354 354 354 352
350 349 349 349 347 347 346 344 343 343 343 344 344 344 343 341 341 341 341 341 341 341 341 342 342 343 344 344 345 348 351 352 353 353 353 352 352 352 353 354 355 354
352 351 350 349 349 348 347 345 345 343 342 343 343 344 344 343 342 340 340 339 339 339 340 340 340 340 340 340 340 344 349 351 352 353 353 353 352 352 352 353 353 353
353 352 351 351 350 349 349 348 347 345 344 343 343 343 343 343 343 343 341 341 340 339 340 340 340 340 340 339 340 342 346 349 350 352 352 353 353 352 352 352 353 353
354 353 353 352 352 351 350 349 349 347 346 345 344 344 343 343 343 343 343 343 342 342 341 341 342 343 342 341 341 343 346 347 349 350 351 352 352 352 352 353 352 352
355 355 354 354 353 352 352 351 351 350 349 347 347 345 345 344 344 344 344 345 344 344 344 343 344 344 344 343 343 343 346 347 349 350 350 351 352 352 352 352 352 351
356 355 355 355 354 354 354 353 352 352 351 350 349 348 347 346 345 345 345 345 345 345 345 345 345 345 345 345 345 345 347 348 349 350 351 351 352 352 352 352 351 351
357 357 356 356 356 355 355 354 354 354 353 352 351 350 349 348 347 347 346 346 346 346 346 346 346 346 346 346 346 347 348 349 350 351 351 352 352 352 352 352 352 351
358 358 358 357 357 356 356 355 355 354 354 354 354 353 352 351 350 349 348 347 347 347 347 347 347 347 347 347 347 347 348 349 350 351 352 352 352 352 352 352 352 353
358 359 358 358 358 358 357 357 356 356 355 355 355 354 354 353 353 352 351 350 349 348 348 348 348 348 348 348 348 348 348 349 350 351 351 352 352 352 352 352 352 353
359 359 359 359 358 358 358 357 357 356 356 355 355 355 354 354 354 354 353 352 351 351 350 350 350 349 349 349 349 348 348 349 351 352 352 352 352 352 353 352 352 353
360 360 359 359 359 358 358 357 357 357 356 356 356 355 355 355 354 354 354 354 353 353 352 351 351 350 350 350 349 350 349 349 351 352 353 353 353 353 353 353 353 353
360 360 360 360 360 359 359 358 358 357 357 356 356 355 355 355 354 354 354 354 354 354 353 352 352 351 351 351 350 350 350 350 350 352 353 353 353 354 354 354 354 354
361 361 361 361 360 360 360 359 359 358 358 357 356 356 356 355 355 355 354 354 354 354 353 353 353 352 352 351 351 351 351 351 351 351 352 353 353 353 354 354 354 355
359 360 361 361 361 361 360 360 360 359 358 358 357 356 356 355 355 355 354 354 354 354 354 354 353 353 353 352 352 351 351 352 352 351 352 352 353 353 354 355 355 355
357 358 359 360 361 361 361 361 360 359 359 358 358 357 356 356 355 355 355 354 354 354 354 354 354 353 353 353 352 352 352 352 352 352 352 352 353 353 353 354 355 355

ECMWFNIL_925_thetae_084.txt.gz
Theta_e
350 349 349 348 347 347 347 348 347 348 348 348 348 348 348 348 348 348 349 349 350 350 350 351 351 352 353 354 355 355 356 354 354 354 354 354 354 354 355 356 356 357
350 349 348 348 347 346 347 348 347 347 347 348 348 347 347 348 348 348 347 347 349 349 350 351 351 352 353 353 354 354 355 354 353 353 354 354 354 354 353 353 355 356
349 349 348 348 347 347 346 347 347 347 347 347 347 347 347 347 347 347 346 345 346 347 348 350 351 352 353 353 353 353 353 353 353 353 353 354 354 354 353 353 354 355
349 349 348 348 347 347 346 347 346 346 347 347 347 347 346 347 346 346 347 345 344 344 345 348 349 351 353 353 354 354 353 352 353 353 353 353 353 354 353 353 354 355
348 348 348 347 347 347 346 346 346 346 346 346 346 347 346 346 345 345 346 346 345 343 343 345 348 351 352 353 353 353 353 353 353 353 353 352 352 353 353 353 353 354
348 347 347 347 346 347 346 345 345 344 345 346 346 346 346 346 345 344 345 346 345 344 343 344 346 348 350 352 353 353 353 353 353 354 354 353 352 352 353 353 353 354
348 347 347 347 346 346 346 345 345 344 344 346 345 345 344 345 345 344 344 344 344 344 343 343 344 344 347 349 352 353 353 353 353 354 356 355 354 354 353 354 354 354
348 348 347 346 346 346 345 345 344 343 343 344 343 343 342 343 344 343 343 343 342 341 342 342 343 343 344 346 348 350 351 351 352 353 354 355 355 355 354 353 354 354
348 347 347 346 346 346 345 344 343 342 342 343 341 342 342 342 342 342 344 343 342 341 340 341 342 343 343 344 344 345 347 349 350 351 352 353 354 354 354 354 354 353
348 347 347 347 346 346 345 345 344 342 342 342 342 343 342 342 341 341 342 342 341 340 339 340 341 342 343 342 341 341 342 344 346 349 351 352 352 352 352 353 353 352
348 348 347 347 346 346 345 344 344 343 342 342 343 343 344 343 342 341 341 341 341 340 341 340 340 341 341 342 341 341 341 342 344 346 348 349 350 351 351 351 352 351
348 347 348 347 346 346 345 344 343 343 343 342 342 343 343 343 343 341 341 341 341 341 341 341 341 341 341 342 341 341 341 342 343 344 345 347 348 349 350 351 351 350
348 348 347 347 347 347 346 344 344 343 342 342 342 343 343 343 342 342 341 341 341 341 342 342 343 343 343 343 342 342 342 342 343 344 344 344 345 346 349 349 350 350
348 348 347 347 347 346 346 346 345 344 343 343 342 342 343 342 342 342 341 342 341 341 341 342 343 343 343 343 342 341 342 342 342 342 342 342 342 343 346 347 349 349
349 349 348 348 347 347 347 346 346 345 344 343 342 341 342 341 341 342 341 342 342 341 341 341 341 341 341 341 341 340 340 340 340 340 340 340 341 341 344 346 347 348
349 349 349 349 348 347 347 347 347 347 345 345 344 342 342 341 341 342 342 342 342 342 342 341 341 341 340 340 339 339 340 340 340 340 339 339 340 343 345 345 345 346
350 350 350 350 349 349 349 348 348 348 347 346 345 344 343 343 342 342 342 342 342 342 342 342 342 341 340 340 340 340 340 340 341 341 340 341 342 343 344 345 345 346
351 351 351 351 350 351 350 349 349 349 348 348 347 346 345 344 344 343 343 342 342 343 343 342 342 341 341 340 341 341 342 342 342 342 342 343 343 344 345 346 347 348
351 351 352 351 352 351 351 351 351 350 350 349 349 348 347 346 346 345 344 344 343 343 343 343 343 343 342 342 342 342 342 343 343 343 344 345 345 345 346 347 348 348
352 353 353 353 353 352 352 352 352 352 351 350 350 350 349 348 348 347 346 346 345 345 345 344 344 344 344 343 343 343 343 343 344 345 345 346 346 346 347 347 348 348
353 353 354 354 353 354 353 353 353 353 353 352 352 352 351 350 350 349 348 347 347 347 346 346 345 345 345 345 345 345 345 345 345 346 346 347 347 347 347 348 347 348
355 354 355 354 354 355 354 355 354 354 353 353 353 353 352 352 352 351 351 350 350 349 348 347 348 348 347 347 347 346 346 346 346 346 346 347 347 347 348 348 348 348
354 356 356 355 356 356 356 355 355 355 355 354 354 354 354 354 354 353 352 352 352 351 350 350 350 350 349 349 348 348 347 347 347 347 347 347 347 348 348 348 348 349
352 353 354 356 357 357 357 356 356 357 356 355 355 355 355 354 355 354 354 354 353 353 353 353 352 352 351 351 350 349 348 348 348 347 348 348 348 348 349 349 349 349
353 353 354 356 358 358 357 357 357 357 357 356 356 356 356 355 355 355 354 355 355 354 354 354 354 353 352 352 352 351 350 349 349 348 348 349 348 349 349 349 349 350
353 355 355 357 359 359 358 358 358 357 357 357 357 356 356 356 356 355 355 355 354 355 354 354 354 354 353 353 352 352 352 351 350 349 348 349 349 349 350 349 350 350

ECMWFNIL_925_thetae_087.txt.gz
Theta_e
350 351 349 348 348 347 347 346 346 347 348 349 349 348 348 348 349 349 349 348 347 348 348 349 349 350 351 352 353 355 355 356 357 356 354 354 356 357 358 357 358 359
350 350 350 349 349 348 348 346 346 346 347 348 348 348 348 348 348 348 349 348 347 348 348 349 349 350 351 352 352 353 355 355 355 355 353 353 355 356 357 358 358 358
350 350 350 349 349 349 348 348 347 346 347 347 347 348 348 347 348 348 348 348 348 348 348 348 349 349 350 352 352 352 354 353 354 355 353 353 354 355 357 358 358 358
350 350 350 350 349 349 349 348 348 347 346 347 347 347 348 348 347 347 347 347 348 348 348 347 348 349 350 352 352 353 353 352 353 353 352 352 352 353 356 357 357 358
350 350 350 349 350 349 349 349 348 347 346 346 347 347 347 347 347 347 347 347 347 347 347 347 347 347 349 351 352 352 353 354 354 352 351 352 352 353 356 355 355 355
350 350 350 350 349 349 349 349 348 347 346 346 346 346 347 347 347 347 346 346 346 346 346 347 347 346 347 348 350 352 353 355 355 353 352 353 355 356 356 355 354 355
350 350 349 349 349 349 349 348 348 347 346 345 345 345 346 346 346 346 346 346 346 345 345 345 347 347 346 346 347 349 351 353 353 352 352 354 355 356 356 355 355 355
350 350 349 349 349 349 348 348 347 346 345 345 345 344 344 344 345 345 345 345 345 345 344 344 344 346 346 345 346 347 348 351 352 351 351 353 354 354 354 354 353 354
351 350 350 349 350 349 349 348 347 346 345 345 344 344 343 342 342 343 344 344 343 343 343 343 343 344 344 344 344 344 346 348 350 350 350 352 353 352 352 352 352 353
351 351 350 350 350 349 349 349 347 347 346 344 344 345 344 342 340 341 342 342 341 341 342 342 342 342 342 341 341 342 344 345 347 347 347 349 351 351 352 352 352 353
351 351 351 350 350 349 349 349 348 347 346 344 345 345 344 342 340 339 340 340 339 339 340 340 340 340 341 340 339 339 341 343 344 344 344 345 346 347 347 348 349 351
352 351 351 350 350 349 349 349 348 348 347 345 344 344 344 343 342 339 339 338 338 339 339 339 339 339 340 339 339 340 340 341 343 343 343 343 343 344 345 345 345 345
351 351 351 351 350 349 349 349 349 348 347 346 345 344 344 344 343 341 338 337 337 338 338 339 339 339 339 339 339 340 340 340 342 343 343 343 342 344 347 348 347 346
351 351 351 351 350 350 349 349 348 348 348 347 346 345 345 344 344 343 340 338 338 338 337 338 339 340 340 339 339 339 340 340 341 342 343 345 344 343 346 348 349 349
351 351 351 351 351 350 349 349 348 348 347 347 347 346 346 345 344 344 343 342 340 340 338 339 340 340 340 339 339 339 339 340 341 341 343 345 344 345 346 347 347 349
349 350 350 351 350 349 349 349 349 349 348 347 347 346 346 345 344 345 344 344 342 341 341 341 341 341 340 338 338 339 340 340 341 341 342 343 343 343 346 347 347 349
348 349 349 350 349 349 349 349 349 350 348 347 347 346 345 345 345 345 345 344 344 343 343 343 342 341 339 337 338 339 340 341 342 341 341 341 342 342 344 346 347 349
349 349 349 349 349 348 349 348 349 350 349 349 347 346 346 345 345 345 345 345 345 345 345 344 343 341 338 337 338 338 340 341 342 344 344 343 343 343 343 345 347 349
351 352 351 350 350 349 349 349 349 349 350 350 349 348 348 347 346 346 346 345 346 346 346 345 344 342 340 339 339 338 339 340 341 344 346 346 345 345 344 345 346 347
353 353 353 353 352 352 351 351 350 350 350 350 351 351 349 348 347 347 347 346 346 346 346 346 346 345 343 342 341 340 340 340 341 343 345 348 347 346 346 346 345 345
353 352 352 353 352 352 352 352 352 352 352 352 351 352 351 350 349 349 349 348 347 347 347 347 346 346 345 344 344 343 342 341 341 342 345 348 349 347 345 345 345 345
353 351 351 351 351 351 352 351 351 352 353 353 353 353 353 352 352 351 351 350 349 349 348 348 348 347 346 346 345 344 344 343 342 343 344 346 349 349 347 345 345 346
352 351 352 351 351 351 351 351 351 352 352 353 354 354 353 354 354 353 352 352 351 351 350 350 350 349 348 348 347 346 345 344 344 344 344 345 347 348 348 347 346 346
350 350 351 352 352 352 351 351 352 353 352 353 354 355 354 355 355 355 355 354 354 353 352 352 352 351 350 350 349 348 347 345 345 345 345 346 346 347 349 349 347 347
349 351 352 353 352 353 352 352 352 352 353 354 354 355 355 356 356 356 356 356 356 355 354 354 354 353 353 352 351 350 349 347 347 346 346 347 348 349 350 350 349 348
345 349 352 353 354 354 354 353 353 353 354 355 356 357 357 357 358 358 358 358 357 357 356 356 356 355 355 354 353 352 352 350 348 348 348 349 350 350 352 352 351 350

ECMWFNIL_925_thetae_090.txt.gz
Theta_e
356 356 357 357 356 354 354 354 354 354 355 355 355 355 356 357 358 357 358 358 359 359 359 360 360 360 360 361 361 360 362 362 360 361 362 361 359 358 359 359 358 358
356 356 357 356 356 355 354 354 354 353 354 355 354 354 356 357 358 357 357 357 357 357 357 358 359 359 359 360 361 361 361 361 360 359 360 360 359 359 359 358 359 359
357 356 357 356 355 355 355 354 355 354 353 354 354 353 355 356 356 357 357 357 356 355 356 357 357 358 359 359 360 360 359 360 360 358 359 360 359 358 358 358 358 358
358 356 356 355 353 354 355 354 354 355 353 353 353 353 353 353 354 357 357 357 356 356 356 357 357 357 357 358 359 358 358 358 359 358 359 359 359 359 359 358 358 358
358 357 355 355 354 354 354 354 353 354 353 352 352 353 354 354 355 355 356 357 357 356 356 357 357 356 356 357 358 357 357 357 357 358 359 359 359 358 358 358 359 359
359 358 356 356 355 354 354 354 354 353 352 352 352 352 354 356 355 353 354 356 355 354 353 354 356 355 354 356 358 357 357 355 355 358 359 359 358 357 356 356 358 359
359 358 357 356 355 354 355 355 354 353 351 351 351 352 353 354 355 353 353 355 354 352 351 352 355 356 355 355 357 358 358 357 356 358 359 359 358 358 357 356 357 358
359 359 358 357 355 355 355 354 354 353 352 351 351 352 353 353 353 353 352 353 353 353 353 353 356 358 356 354 356 358 358 356 355 358 360 359 358 359 359 358 358 358
358 358 358 358 356 355 354 353 352 352 353 352 350 350 352 352 351 351 352 354 353 353 355 356 357 358 356 354 356 358 357 355 353 355 358 358 357 358 358 357 358 358
359 358 358 358 356 354 353 352 351 351 353 353 351 348 349 351 351 351 351 355 355 354 355 356 356 357 356 355 355 357 357 356 354 355 357 357 355 354 354 354 355 356
358 358 357 357 356 354 353 352 351 351 351 352 351 349 347 349 351 351 352 354 355 354 354 355 355 356 356 354 354 356 356 355 354 355 356 356 354 353 353 353 352 352
357 357 356 356 356 355 353 352 352 351 351 352 352 350 348 347 349 352 352 353 354 352 352 354 355 354 355 354 352 352 354 354 353 354 356 356 354 354 354 353 352 351
356 357 356 355 356 355 354 353 352 351 351 351 352 352 350 347 347 349 352 352 352 351 350 352 354 354 355 355 353 351 353 354 352 351 353 354 354 353 352 352 352 352
355 356 356 356 356 356 355 354 353 352 352 352 352 352 351 349 347 348 350 351 351 351 349 350 353 354 355 355 354 352 352 353 353 351 349 350 352 351 351 350 349 349
355 355 356 357 357 357 357 355 354 354 354 353 353 353 352 351 349 348 349 350 351 351 351 349 349 351 353 353 353 353 352 351 352 352 350 348 349 350 350 350 349 347
356 355 355 356 357 357 357 356 355 354 354 354 354 354 353 352 352 350 350 350 351 352 352 350 348 348 349 349 348 349 351 350 350 351 352 352 351 351 350 349 349 348
356 356 356 356 357 358 358 357 356 354 354 355 355 354 354 354 353 353 351 350 351 352 352 352 349 347 347 346 342 340 343 348 350 351 353 354 353 352 352 350 348 347
357 358 358 357 358 358 358 358 358 356 355 355 355 355 355 355 354 354 353 352 351 351 351 351 351 350 348 346 344 339 337 341 347 348 350 352 353 353 352 352 350 348
356 358 358 358 358 358 358 358 358 357 356 355 356 355 355 355 355 354 354 353 352 351 351 351 351 351 350 348 346 344 341 340 343 346 346 348 350 352 352 353 352 351
356 357 357 358 358 359 358 358 357 357 356 355 355 355 355 356 355 355 354 355 354 353 352 352 352 351 351 349 348 347 346 344 343 345 346 346 347 349 351 353 353 354
356 356 357 358 358 359 359 358 357 357 357 355 355 354 355 356 355 355 355 355 354 354 354 353 353 352 351 350 348 348 347 345 344 345 346 346 347 348 350 351 353 354
355 357 357 358 359 360 360 359 358 358 357 357 356 354 353 355 356 356 356 355 355 354 354 354 353 352 351 350 349 349 348 347 345 345 347 347 348 348 350 351 353 355
350 353 356 357 359 360 359 358 358 358 358 358 357 356 354 354 354 355 356 356 356 355 355 355 355 354 352 351 350 350 348 347 346 346 348 349 349 349 350 351 354 355
344 348 352 356 357 358 357 357 357 357 357 357 357 357 356 354 355 355 355 356 357 357 357 356 356 356 354 353 352 351 349 348 347 348 350 350 351 351 352 352 353 355
340 343 347 352 355 356 356 357 357 356 357 356 356 357 356 355 355 355 355 356 357 358 358 357 357 357 356 355 353 352 351 349 348 350 351 352 353 353 354 354 354 354
339 341 343 346 351 355 357 357 357 356 357 356 356 357 356 356 356 356 357 358 357 356 356 357 358 358 357 357 356 354 353 351 349 351 353 354 355 355 356 356 356 357

ECMWFNIL_925_thetae_093.txt.gz
Theta_e
355 357 357 356 355 352 351 351 353 354 356 356 355 355 355 356 357 359 358 359 360 360 362 362 362 361 361 363 363 362 363 364 361 361 363 364 361 359 358 358 358 358
355 356 356 356 355 354 352 351 351 352 354 356 355 354 355 355 356 358 359 360 359 358 360 361 361 361 360 362 364 362 363 364 362 361 363 362 360 359 359 357 358 359
357 356 356 355 354 354 352 351 351 352 351 353 354 354 355 355 356 357 358 358 357 357 358 359 359 361 361 361 363 363 362 363 362 360 361 362 360 359 358 357 356 358
358 356 356 354 352 352 352 350 352 352 350 350 351 352 353 353 355 357 357 357 357 356 356 357 357 358 359 359 361 361 360 360 360 359 360 361 361 359 358 358 357 357
360 356 355 354 352 351 351 351 350 351 350 349 349 349 350 351 352 355 357 357 357 356 355 356 356 356 356 358 358 359 358 357 357 358 358 359 359 358 357 357 358 358
362 359 356 355 353 352 351 351 350 350 349 348 348 347 349 351 352 353 355 357 356 354 353 354 355 355 355 356 357 357 356 354 354 356 357 358 358 357 355 355 356 357
363 362 359 356 354 353 352 351 351 351 349 347 347 347 347 349 353 353 353 355 355 353 351 351 352 353 353 354 356 357 357 355 354 355 357 358 358 356 355 354 355 356
361 362 361 358 354 353 352 351 352 352 350 347 346 347 347 348 351 352 351 352 353 353 352 351 351 353 354 354 354 357 358 355 354 355 357 358 358 357 356 355 355 356
360 360 361 359 355 353 352 350 350 352 352 350 347 346 347 348 349 349 350 351 351 352 353 352 352 355 356 354 354 356 358 356 352 352 355 357 357 356 356 355 355 355
360 359 359 358 354 352 350 348 347 349 351 351 348 345 345 347 349 349 349 351 352 352 353 354 355 356 356 354 354 355 358 358 355 352 352 354 354 354 353 353 353 353
360 359 357 357 355 352 351 348 346 345 347 349 349 346 343 345 348 349 349 352 353 353 353 355 355 356 356 355 353 354 356 357 356 354 353 353 353 352 352 351 351 351
359 359 357 357 356 353 351 349 347 345 345 346 348 347 344 343 345 349 349 350 353 354 354 354 355 356 357 356 353 351 353 355 354 354 353 353 353 352 351 350 349 349
359 359 358 357 356 355 352 350 349 347 345 346 347 347 345 343 343 346 349 350 352 354 353 353 354 355 355 356 355 351 350 353 353 351 351 351 351 350 349 348 348 348
358 358 358 357 357 357 355 352 350 349 348 347 346 347 347 345 342 343 347 349 351 353 353 352 353 354 355 356 356 353 350 350 351 351 349 348 348 348 348 347 346 346
357 357 358 359 359 358 357 356 353 351 350 349 348 348 347 347 345 343 344 347 350 352 353 351 349 351 352 354 355 355 351 348 348 350 349 346 346 346 346 346 345 344
356 357 358 359 359 359 359 358 356 354 353 352 351 350 349 349 348 347 345 345 347 350 352 352 349 346 347 350 352 353 352 348 346 346 348 347 346 344 344 344 343 343
356 357 358 358 359 360 360 360 359 357 355 354 354 353 353 353 352 351 349 347 347 348 350 350 348 345 344 346 348 349 350 349 347 346 346 347 347 347 346 345 342 341
356 357 359 358 359 360 361 362 361 359 356 356 356 356 356 356 355 354 354 352 350 348 348 349 349 347 345 344 345 345 345 346 346 345 344 345 346 348 349 348 345 342
354 355 356 357 357 358 360 362 362 361 358 356 357 357 357 358 358 358 357 356 355 352 350 349 349 348 348 346 346 345 343 343 344 343 342 341 343 345 347 348 348 347
352 354 353 353 354 354 356 359 360 361 361 357 356 356 357 358 359 358 358 358 358 356 354 353 351 349 349 348 349 348 347 346 346 346 344 341 341 341 343 345 348 350
349 352 352 353 354 354 355 355 355 356 357 357 357 356 357 359 358 359 359 358 359 358 357 356 354 352 351 350 350 350 350 349 349 349 349 348 346 345 344 344 346 349
343 346 349 352 354 355 355 355 354 354 353 354 356 356 357 358 358 359 359 359 359 359 358 357 356 354 353 352 351 351 351 351 349 350 351 352 351 351 349 349 348 348
341 342 345 349 352 355 356 355 354 354 353 353 353 354 356 357 358 358 359 359 359 358 358 359 358 356 354 353 352 352 352 350 350 350 352 353 353 353 353 352 351 351
342 342 343 345 347 351 355 356 355 354 353 353 352 353 356 358 358 357 357 358 358 358 359 359 358 358 357 356 354 353 352 351 350 351 352 353 354 355 355 354 354 353
342 343 343 343 344 346 350 352 353 352 353 353 352 352 355 358 358 357 357 357 357 357 358 359 358 358 358 357 356 354 354 352 351 353 354 354 355 356 356 357 356 355
340 342 343 343 343 345 347 349 350 352 354 354 353 352 353 357 358 358 358 358 357 357 358 358 357 357 357 358 358 357 356 354 352 353 355 356 356 357 357 358 358 358

ECMWFNIL_925_thetae_096.txt.gz
Theta_e
357 357 357 357 357 357 357 358 356 356 356 356 357 357 356 357 356 355 358 359 359 361 362 362 362 360 361 362 360 357 358 358 359 358 359 361 360 359 358 357 357 357
358 358 358 358 357 356 355 355 356 355 355 356 356 356 355 356 357 357 357 358 359 360 361 361 362 361 361 361 359 359 359 359 360 360 360 361 360 359 358 358 356 356
357 358 358 357 357 355 353 353 353 354 355 356 355 354 354 355 357 358 358 359 360 359 359 361 362 362 361 361 360 361 361 360 360 360 361 361 360 359 358 358 355 356
356 357 357 356 355 355 353 351 351 352 353 355 355 355 355 354 355 357 358 359 359 358 358 360 360 361 361 361 361 362 361 361 361 360 360 362 362 360 359 358 356 356
356 356 356 355 354 354 353 351 351 352 352 352 354 354 354 354 355 356 358 358 358 357 357 358 359 359 360 360 361 361 360 360 360 359 359 360 361 360 358 357 357 357
357 356 356 354 353 353 353 351 350 352 352 351 351 352 352 352 354 356 358 358 358 358 357 357 357 358 358 358 360 360 360 358 357 357 357 358 358 358 357 356 356 356
359 357 356 355 353 352 352 351 350 350 351 350 349 350 350 350 352 354 356 357 358 357 356 355 356 357 357 357 357 359 358 357 355 355 356 358 358 358 357 356 355 355
361 359 357 355 354 353 351 351 350 351 350 350 349 348 348 349 351 352 353 356 357 357 356 354 353 355 355 355 356 357 358 357 355 354 355 357 358 358 358 357 356 355
361 361 359 356 354 352 351 351 350 350 350 349 349 349 348 349 350 351 351 354 356 356 354 353 353 352 353 354 355 355 357 357 355 353 353 355 358 359 358 357 357 356
356 358 360 357 354 351 350 350 350 350 351 350 348 347 348 348 348 351 352 351 353 355 354 353 352 351 352 354 355 354 356 357 356 354 353 354 356 357 357 357 356 355
352 353 357 358 356 353 351 350 348 349 350 351 349 346 347 348 347 349 352 351 351 352 352 353 352 352 353 355 355 355 355 356 357 356 354 353 355 355 356 355 354 354
353 352 354 356 356 353 351 349 349 347 349 351 350 347 345 347 347 348 350 350 350 350 352 353 353 353 354 355 357 355 355 356 357 357 356 354 353 354 354 353 352 352
355 353 353 353 355 353 350 349 348 347 346 348 349 348 346 345 346 347 348 349 350 351 352 352 353 354 354 355 357 355 353 354 356 357 357 355 354 354 353 352 351 350
355 354 353 352 355 353 350 347 346 345 345 346 347 347 346 345 344 345 347 348 350 351 352 353 353 354 355 356 357 356 354 354 354 355 356 355 354 353 352 351 349 349
353 353 352 352 353 354 354 353 350 348 345 344 347 347 346 345 343 343 346 348 349 351 352 353 354 354 355 356 356 356 356 353 352 352 354 353 352 351 351 349 348 347
353 353 352 353 354 354 353 352 352 353 351 348 346 345 346 346 344 343 344 346 349 350 351 353 353 353 354 354 355 355 355 354 351 349 351 352 351 350 349 348 348 347
354 353 352 353 354 355 354 354 353 352 351 353 352 348 346 346 347 345 344 344 346 349 351 352 352 351 351 352 353 353 353 354 351 348 348 350 350 349 348 347 345 345
354 354 353 353 354 355 354 353 354 353 351 353 355 354 350 347 347 348 347 346 345 346 348 350 351 352 349 349 350 350 350 351 352 351 349 347 348 349 348 347 346 344
353 353 353 354 355 354 354 354 354 356 354 354 356 356 356 354 352 351 350 349 348 347 348 348 349 351 349 348 347 347 347 348 349 350 349 347 346 346 347 347 347 345
349 351 351 353 355 355 355 354 354 355 357 356 356 356 355 355 356 356 355 354 354 352 352 351 350 349 349 348 347 346 346 346 346 347 347 345 344 344 345 345 346 346
346 348 346 348 351 354 356 356 355 355 356 357 358 357 354 353 354 356 357 357 357 356 355 356 354 352 351 349 348 347 345 345 345 345 346 345 344 343 343 343 343 345
343 345 344 344 347 350 354 355 356 356 356 356 356 356 355 353 353 354 355 356 356 356 355 356 356 355 354 352 349 349 348 346 345 345 346 346 346 347 345 344 343 342
342 343 343 343 344 346 349 351 354 356 357 356 355 355 355 355 354 353 353 354 354 355 356 355 356 358 358 355 353 351 350 348 346 346 347 348 349 349 350 350 350 348
341 343 343 343 343 344 345 347 349 352 355 356 356 356 355 354 354 354 353 353 353 354 355 356 357 358 358 358 356 354 352 350 348 347 348 349 350 351 352 353 353 353
338 341 344 345 345 345 345 345 346 348 351 353 354 355 355 354 354 354 355 354 353 353 354 355 356 358 358 359 359 356 355 353 350 349 349 351 352 353 353 353 353 353
335 338 341 342 344 346 346 345 346 347 349 351 352 353 355 355 355 356 355 356 355 356 354 354 354 356 357 358 358 358 356 355 352 351 352 353 354 354 354 355 355 355

ECMWFNIL_925_thetae_099.txt.gz
Theta_e
355 354 353 352 353 354 354 354 355 356 356 356 357 357 358 357 357 359 358 358 359 358 357 358 358 358 358 358 356 356 357 359 359 358 359 360 358 358 359 357 356 356
354 355 354 355 355 354 355 355 355 357 356 355 355 355 358 357 356 358 358 356 358 360 359 359 360 359 359 359 357 356 356 357 358 358 359 360 359 358 358 357 357 356
355 356 355 356 356 356 356 356 355 356 356 356 355 354 356 357 356 358 357 356 357 360 361 360 359 358 358 359 356 354 355 355 356 358 359 360 359 358 358 358 356 355
356 356 356 356 357 356 356 357 356 355 355 356 356 355 355 356 356 357 358 357 357 359 361 360 359 358 358 360 357 353 353 354 355 358 360 360 360 359 358 359 358 356
356 357 356 356 357 356 355 355 355 355 355 355 356 356 354 354 355 356 358 358 358 359 360 359 360 359 358 360 359 356 356 357 357 358 359 359 361 360 358 358 358 356
356 357 357 356 357 356 355 354 353 353 353 354 354 355 355 354 355 355 356 358 359 359 359 358 359 360 359 359 359 360 359 359 359 357 356 357 358 357 356 357 357 355
355 356 357 357 356 356 355 354 352 352 352 352 353 353 354 355 355 355 355 357 358 358 358 358 357 358 359 359 359 360 359 358 359 358 355 355 354 355 356 357 357 356
355 355 355 357 356 355 354 353 351 352 351 351 352 352 352 353 354 356 356 356 357 357 357 357 357 356 357 358 358 358 357 356 358 358 357 356 355 355 356 355 355 356
357 356 355 356 356 355 354 353 351 351 350 350 351 351 351 351 351 353 355 356 357 356 355 356 357 356 355 356 357 357 356 355 355 354 355 357 356 357 357 356 355 355
358 358 358 357 356 355 354 353 352 351 350 350 350 350 350 350 350 350 352 354 356 357 356 355 356 355 355 355 355 355 355 354 353 352 353 355 355 356 357 357 356 354
355 357 358 357 356 355 353 351 351 351 350 350 350 350 349 349 349 350 349 350 353 355 356 356 355 354 353 354 353 353 354 354 353 353 353 355 354 353 353 354 356 355
352 352 353 355 356 356 352 349 348 349 350 350 350 350 349 348 348 349 349 349 350 352 354 355 355 354 353 352 352 352 353 354 354 353 353 354 355 354 353 353 354 355
352 351 352 354 355 355 354 350 347 347 348 349 350 349 349 349 348 347 348 349 350 350 351 352 353 354 353 352 352 352 353 353 355 355 353 352 353 354 354 354 354 354
354 354 353 353 353 353 353 352 348 346 346 348 350 350 349 349 348 347 347 347 348 349 351 350 350 352 352 352 352 352 353 354 354 355 354 353 353 352 352 353 353 353
353 354 354 353 353 352 352 352 349 348 346 346 348 350 351 349 347 347 347 346 347 348 350 350 349 349 350 351 351 352 353 355 355 355 355 354 354 354 353 353 353 352
352 353 353 354 353 352 352 352 351 349 346 345 347 349 351 351 348 346 346 347 347 347 348 350 349 349 349 350 351 352 352 354 355 355 355 355 354 355 356 355 354 352
352 352 353 353 353 353 352 353 353 351 348 346 346 347 348 350 350 348 346 346 347 347 347 349 350 349 349 349 350 352 352 353 354 355 354 354 354 354 355 355 354 353
353 353 354 353 354 354 353 354 353 352 351 349 348 347 347 349 352 352 348 345 345 347 347 348 349 349 349 349 350 351 352 352 353 354 353 353 353 353 352 352 352 352
352 352 354 354 354 355 354 354 353 352 352 351 351 349 348 350 354 354 352 348 346 347 347 348 348 349 349 349 350 351 352 351 351 352 352 351 351 350 350 350 349 350
348 350 351 352 353 354 354 354 354 354 354 353 353 352 351 352 354 355 355 353 352 351 350 349 349 350 350 350 350 350 351 351 351 351 351 350 349 348 348 348 348 349
344 346 347 348 348 350 352 353 355 356 356 355 355 355 354 354 355 355 355 355 355 355 354 353 351 351 353 352 352 351 350 350 350 350 351 350 349 349 348 347 346 347
342 343 344 344 344 346 348 350 352 354 354 355 356 355 355 356 356 356 355 354 354 354 355 356 355 354 355 355 355 354 353 351 349 349 350 351 350 349 348 347 347 346
340 340 341 342 343 344 345 346 348 349 350 353 355 356 356 356 355 356 356 355 354 353 353 354 355 355 356 356 356 355 355 354 351 348 348 348 349 349 348 347 346 346
339 340 340 343 344 343 343 344 344 345 347 348 351 353 355 355 355 355 355 355 355 355 354 353 353 354 354 354 355 356 356 356 355 352 349 348 347 348 348 348 347 346
336 337 339 340 341 343 344 344 343 344 346 348 349 350 351 353 354 355 355 355 355 355 355 355 354 354 353 353 354 355 354 354 354 355 353 351 349 348 348 348 348 347
332 333 335 336 337 340 342 343 343 344 346 347 348 349 349 349 351 352 353 354 355 355 355 356 355 355 354 355 355 354 353 353 353 352 352 351 350 348 348 349 349 349

ECMWFNIL_925_thetae_102.txt.gz
Theta_e
356 355 355 354 354 353 353 353 353 354 355 355 355 354 355 356 356 357 357 357 357 358 359 358 357 357 356 357 357 356 356 356 357 356 355 355 354 355 358 357 355 356
356 355 355 353 353 353 353 353 354 354 354 355 355 354 354 354 355 356 356 357 358 359 359 358 356 356 357 357 356 355 356 356 358 358 357 357 356 356 358 357 357 357
356 355 354 353 352 352 353 353 354 355 355 355 355 355 356 355 355 356 356 356 356 358 358 357 357 357 358 358 357 356 355 356 357 357 358 358 356 357 358 357 357 357
356 354 353 353 351 352 352 352 353 354 354 355 355 355 356 356 357 357 356 356 356 356 357 358 359 359 360 359 358 358 356 355 355 356 357 358 358 358 358 357 357 357
354 355 353 353 352 352 352 352 353 353 354 355 355 353 354 356 357 358 357 357 357 356 356 357 360 360 360 359 359 359 357 355 355 355 357 358 359 359 358 357 358 358
353 354 354 354 354 354 354 354 354 354 353 355 355 354 354 354 355 357 357 357 358 357 355 357 359 359 359 358 358 360 359 358 356 357 358 358 359 359 359 357 357 357
355 354 354 354 354 355 355 355 355 355 353 354 355 355 355 355 354 355 355 356 357 357 357 356 358 358 358 358 358 359 358 358 358 359 359 358 357 357 356 355 356 356
356 355 354 355 355 355 356 355 355 356 354 354 355 354 355 355 355 353 353 354 355 357 358 358 358 358 358 358 358 359 358 356 356 357 358 358 357 357 355 353 354 356
356 355 355 356 356 355 356 356 355 355 354 354 353 353 353 354 355 354 353 354 354 356 357 357 358 358 358 357 357 358 358 357 355 354 355 358 358 357 356 355 354 354
356 355 355 356 357 357 356 356 356 355 354 352 351 352 351 351 353 354 354 355 354 355 355 355 356 356 356 357 356 356 356 356 355 354 354 355 356 356 356 356 355 355
356 355 355 355 356 356 356 356 356 355 354 352 351 351 351 350 351 352 353 353 354 355 355 355 355 355 355 356 356 355 354 353 354 354 353 353 352 352 353 354 355 355
356 356 355 355 355 355 356 355 355 355 354 352 352 351 350 350 350 351 351 351 352 353 354 355 355 355 355 355 355 355 355 354 353 353 353 353 352 351 351 353 355 354
355 356 356 356 355 355 355 355 354 354 352 352 351 351 350 350 350 350 350 350 350 350 351 351 352 354 355 355 355 354 354 353 353 352 352 352 353 352 352 353 353 354
354 355 355 355 355 355 355 355 354 353 351 349 349 349 350 350 350 350 350 350 349 348 349 349 349 351 353 354 355 355 354 353 352 352 351 351 352 353 353 352 352 352
352 353 353 353 354 354 354 355 355 354 352 350 348 347 348 349 350 350 349 349 349 348 348 348 348 349 350 351 352 353 353 353 352 351 351 351 351 352 353 353 351 350
352 352 352 353 353 353 354 354 354 353 353 351 349 347 347 348 348 350 350 348 348 348 348 348 348 348 349 348 349 350 351 352 352 351 351 351 352 353 353 354 353 352
353 353 352 352 353 353 352 352 352 352 352 352 351 349 348 347 347 349 351 350 348 347 347 348 347 347 347 348 348 348 349 350 351 350 350 351 352 353 354 354 354 354
352 353 352 352 352 352 352 352 352 353 352 352 352 351 350 349 347 349 351 353 352 349 347 347 347 347 347 346 347 348 348 349 349 350 350 350 351 352 352 353 354 354
352 352 352 353 353 353 353 353 353 353 353 353 353 352 351 351 350 349 350 353 355 353 349 346 346 347 347 347 346 347 347 348 348 349 350 350 350 351 351 351 351 351
348 349 349 350 351 352 353 354 354 355 355 354 354 353 352 352 352 351 350 351 354 355 353 350 348 348 348 348 349 349 349 350 350 350 351 351 351 351 351 351 350 349
342 344 345 345 346 347 348 350 352 353 354 354 355 355 354 354 353 353 353 352 353 355 354 354 352 351 351 350 350 351 351 350 351 351 352 352 353 353 353 352 351 350
338 339 341 342 343 344 344 345 346 348 349 350 352 354 355 355 355 355 355 354 355 355 355 355 354 354 353 353 353 353 352 352 352 352 352 352 352 352 352 352 352 352
338 338 339 340 340 342 343 343 342 343 345 347 349 350 352 354 355 355 355 355 355 355 355 355 354 354 354 353 354 354 354 354 354 354 354 354 354 353 352 352 351 351
335 335 335 336 337 339 342 343 341 341 342 344 347 349 350 351 352 353 354 355 355 355 355 355 355 355 355 354 354 353 353 353 354 354 354 354 355 355 354 353 352 351
330 331 332 333 333 333 335 337 338 339 340 341 344 347 349 350 350 351 352 353 354 354 354 354 354 354 354 354 354 354 354 354 354 353 353 353 353 354 354 354 354 353
328 328 330 331 330 327 326 328 331 335 338 341 341 343 346 348 349 349 349 349 349 349 350 351 351 352 353 354 354 354 354 354 354 354 354 354 353 353 353 353 353 353

ECMWFNIL_925_thetae_105.txt.gz
Theta_e
353 353 352 351 352 352 353 352 352 353 353 354 354 352 352 354 354 355 355 356 356 354 352 354 357 358 357 357 356 356 357 356 356 356 356 355 355 355 354 356 357 356
353 354 353 352 352 353 354 353 352 353 352 353 354 352 352 353 354 355 355 356 356 355 353 354 356 358 357 356 356 356 357 356 356 357 357 356 356 356 355 356 358 357
352 355 355 354 353 353 354 353 352 352 352 353 353 353 353 353 353 354 355 355 355 355 354 354 356 357 356 356 356 356 356 355 355 356 357 357 357 357 356 357 357 357
352 355 357 355 355 354 354 353 352 352 352 352 353 354 354 354 353 353 354 355 355 355 354 355 357 357 357 356 356 357 357 355 355 356 356 356 356 356 356 357 357 356
352 354 356 356 355 354 353 352 353 352 353 353 353 354 355 354 355 355 355 355 355 355 355 355 356 356 357 357 357 358 358 357 356 355 354 354 356 357 358 358 357 357
351 353 355 355 354 354 353 352 352 353 354 354 354 354 355 354 355 355 356 356 356 356 356 356 356 356 357 358 358 359 358 357 357 356 355 353 354 355 357 359 358 357
351 352 354 355 354 353 352 351 351 352 353 353 353 354 355 355 354 354 355 356 356 356 356 356 356 355 357 358 359 359 357 357 357 357 357 355 354 354 355 357 357 355
352 351 351 354 354 353 352 351 351 352 352 352 353 353 354 354 354 354 354 354 355 356 356 356 356 355 356 357 357 357 357 356 356 357 357 356 355 354 353 354 355 354
353 352 351 353 354 354 353 353 352 353 353 353 354 354 353 353 354 354 355 354 354 356 355 356 356 356 356 356 357 357 356 356 356 356 356 355 355 354 353 354 355 355
354 352 351 352 353 353 353 353 353 354 355 355 355 355 353 353 354 354 354 354 354 355 355 355 355 356 356 357 357 357 357 356 355 356 356 355 353 353 352 353 354 355
355 353 351 351 352 353 352 353 354 354 355 355 355 355 354 353 353 353 353 353 353 353 354 354 355 355 356 357 357 357 357 356 356 355 354 354 353 353 352 352 352 353
355 354 354 353 353 352 352 353 354 354 354 354 354 354 354 353 352 351 351 350 351 351 352 353 354 354 355 355 355 355 355 355 355 355 355 354 353 352 352 352 351 351
356 355 355 354 354 354 353 353 355 355 355 354 354 354 354 354 352 351 350 350 350 350 350 351 352 353 354 354 355 355 354 354 354 354 355 354 354 352 352 352 351 351
356 356 355 355 354 354 354 354 355 355 355 355 355 354 354 354 352 351 351 350 350 350 350 350 350 351 351 352 353 354 354 354 354 354 354 354 353 353 352 351 351 351
355 356 355 355 355 354 354 354 354 354 355 354 353 352 351 351 351 350 350 350 350 350 349 350 350 350 350 350 350 351 351 352 353 354 354 353 353 353 352 352 351 351
351 353 354 354 354 354 354 354 354 354 354 354 353 351 350 348 348 348 349 349 349 349 349 349 349 349 349 348 348 349 348 349 350 351 352 353 353 353 352 351 351 350
349 351 352 352 353 353 353 353 354 354 354 354 353 352 351 350 348 347 347 347 348 349 349 349 349 349 349 348 348 348 348 348 348 349 350 350 351 352 351 351 350 349
351 351 351 351 351 351 352 352 352 351 352 352 353 353 352 352 350 349 348 347 347 348 350 351 350 349 349 348 348 347 347 348 348 349 350 350 350 350 350 350 349 349
351 351 350 351 352 352 352 351 351 351 351 351 352 352 352 352 351 351 350 348 347 348 350 352 352 351 349 348 347 347 347 348 349 350 350 350 351 351 351 350 350 350
348 349 350 350 351 351 352 353 353 353 353 353 353 353 353 352 352 351 351 350 349 348 349 352 353 353 351 349 348 347 346 347 348 349 350 350 350 351 351 350 350 350
344 345 346 347 347 347 348 349 351 352 352 352 353 354 354 354 353 353 352 351 352 351 351 352 353 354 353 351 349 347 347 347 348 349 350 350 350 350 350 350 350 351
341 340 341 342 343 344 345 344 344 345 346 348 350 352 354 355 355 354 354 354 354 353 353 353 353 354 353 353 352 351 350 349 349 349 349 350 350 350 350 350 350 350
334 334 335 336 337 339 340 339 340 342 343 344 346 348 351 354 355 355 354 355 354 354 354 354 354 354 354 353 353 353 353 352 352 352 352 351 351 351 351 352 352 352
327 328 330 331 330 329 329 331 334 337 340 342 343 344 347 351 353 353 353 354 354 355 355 355 354 354 354 354 354 353 353 353 353 353 353 353 353 353 353 353 353 354
325 325 326 326 324 323 323 325 327 330 334 337 340 342 344 346 349 350 351 351 352 353 355 355 356 356 354 354 354 354 353 354 353 354 353 353 353 353 353 353 353 354
323 323 323 322 322 322 322 324 325 326 327 328 331 336 339 341 345 347 348 349 349 350 350 351 352 353 353 352 352 352 352 352 353 353 353 353 353 353 352 353 353 353

ECMWFNIL_925_thetae_108.txt.gz
Theta_e
350 351 351 351 352 352 352 351 351 352 351 352 352 352 352 350 350 353 354 355 355 355 353 351 352 355 356 356 355 355 355 355 355 355 356 355 354 354 354 355 356 357
350 351 351 351 352 352 352 351 351 351 350 351 352 353 353 351 350 353 354 354 355 355 355 353 351 354 356 356 356 355 355 356 356 355 355 356 355 355 355 355 356 357
351 351 351 352 352 352 351 351 351 352 352 352 352 352 354 352 351 353 354 354 355 355 356 355 353 353 356 356 355 355 355 355 356 354 355 356 357 356 356 356 356 356
351 351 351 352 352 351 351 351 352 353 353 352 352 352 353 352 352 353 353 353 354 355 355 355 354 353 355 356 355 355 355 355 356 355 354 355 356 356 356 355 356 356
352 352 352 352 353 353 352 351 352 353 353 352 351 351 352 353 353 353 353 353 353 354 355 354 354 354 355 356 356 356 355 355 356 356 355 354 354 354 355 355 356 356
352 352 352 352 352 354 354 353 353 353 353 352 351 351 352 352 353 353 353 353 354 355 355 354 354 354 355 356 356 356 357 356 357 357 356 355 354 353 353 355 356 356
352 352 352 352 352 355 355 354 354 354 353 352 351 351 352 352 353 354 353 354 355 355 355 355 355 355 355 355 356 356 357 358 357 357 357 356 355 354 352 353 355 355
350 351 352 351 352 354 355 355 354 353 352 352 351 351 352 353 353 354 354 354 354 354 354 354 355 356 356 355 355 356 357 358 358 357 356 355 355 354 352 352 354 354
350 351 352 352 352 353 355 354 353 352 352 351 351 352 352 352 352 353 353 354 354 353 353 353 354 355 356 356 355 355 356 356 357 357 357 356 355 354 353 353 353 353
351 351 352 352 351 352 354 354 353 352 351 351 351 352 352 352 353 353 353 353 354 354 354 354 354 354 355 355 355 355 356 356 356 356 356 356 356 355 354 354 353 352
352 352 352 352 351 351 352 354 353 352 352 352 352 352 353 353 354 354 353 353 353 354 354 353 354 354 354 354 354 354 355 355 356 356 355 355 355 355 354 353 353 352
352 352 352 352 352 351 351 352 353 353 352 352 352 353 354 354 354 354 353 353 353 353 352 352 352 352 353 353 353 354 354 355 355 355 354 354 353 353 353 354 353 352
352 353 353 353 353 352 351 351 352 353 353 353 352 353 353 354 353 354 353 353 353 352 351 351 350 350 351 351 351 352 353 354 354 354 354 354 353 352 353 353 353 353
353 354 354 354 354 354 353 353 352 352 351 351 352 352 353 353 352 353 353 353 353 352 351 351 350 350 350 350 350 350 351 352 352 353 353 353 353 352 353 353 353 352
354 354 354 354 354 354 354 354 353 353 352 352 352 352 353 354 353 353 354 353 353 352 352 351 350 350 349 349 349 349 349 350 350 351 351 351 351 351 351 352 352 352
350 352 353 354 354 353 353 353 353 354 354 353 353 354 354 354 354 353 353 352 351 351 351 350 350 349 349 349 349 349 349 349 349 349 350 350 350 349 349 349 350 350
347 350 353 353 353 353 353 353 353 352 353 353 354 353 354 353 352 352 351 351 350 349 349 349 349 349 349 348 349 349 348 348 348 348 349 349 349 349 349 348 348 349
346 347 348 349 350 351 351 351 351 351 351 351 352 353 352 351 351 350 350 349 348 348 347 347 347 347 348 347 348 348 349 348 348 348 348 348 348 348 348 348 348 348
348 347 347 348 349 350 350 350 349 349 349 348 349 351 352 352 352 351 351 350 349 348 347 347 347 346 346 346 347 348 349 349 348 347 347 347 347 347 347 348 348 348
346 347 347 348 349 350 351 351 350 350 349 348 349 350 350 351 352 351 352 351 351 350 349 349 348 347 348 348 348 349 350 350 349 348 347 347 347 346 347 347 348 348
340 341 341 342 344 346 347 348 348 349 349 349 351 351 351 352 352 352 352 351 351 351 350 350 349 349 350 350 350 351 351 351 349 348 347 347 346 346 347 347 348 349
336 337 337 337 338 339 340 342 343 344 345 347 349 351 352 353 353 353 353 352 352 352 352 351 351 351 351 351 352 353 353 352 351 349 348 348 347 347 348 348 349 349
332 333 331 331 333 334 335 337 338 340 342 344 345 347 350 353 355 354 354 354 354 353 353 353 353 353 353 353 353 353 353 353 352 351 351 350 350 350 350 351 351 351
327 326 325 326 328 329 330 331 332 334 337 340 342 344 345 348 352 353 353 354 354 355 355 354 354 354 354 354 354 353 353 352 352 352 352 352 352 352 352 352 352 352
323 322 322 323 325 326 328 329 328 329 331 334 338 342 343 346 348 349 350 351 352 352 353 354 354 355 354 354 353 353 353 353 353 353 353 353 353 353 353 352 352 352
322 321 320 323 327 328 328 329 329 329 330 330 332 335 338 341 344 346 349 350 349 348 349 351 351 352 353 353 353 352 352 352 352 352 352 352 352 352 352 352 353 352

ECMWFNIL_925_thetae_114.txt.gz
Theta_e
357 357 357 357 356 357 358 358 358 358 358 357 357 357 357 357 356 357 357 358 360 360 362 363 362 362 362 363 362 361 362 362 361 360 360 359 358 357 357 357 358 358
357 357 357 356 356 357 358 358 358 358 358 358 357 357 358 357 357 357 357 358 359 360 362 362 362 362 362 363 363 362 363 362 361 360 360 360 359 358 357 357 358 358
357 357 356 355 355 356 356 357 358 359 358 358 357 357 357 357 357 358 357 358 359 359 361 361 362 362 361 363 364 362 363 363 361 360 361 360 360 359 358 357 358 358
357 356 356 354 353 354 355 356 357 358 357 357 357 356 357 357 358 358 358 359 359 360 361 361 362 361 360 363 363 361 363 363 361 361 361 360 360 359 358 358 358 359
356 356 356 355 354 354 355 355 356 356 356 357 357 357 358 358 358 358 358 359 359 360 360 360 361 360 361 363 362 361 362 361 360 361 361 360 360 359 357 358 359 359
356 356 356 355 355 355 355 356 356 356 356 356 356 357 358 358 358 357 358 358 358 358 358 358 360 359 360 362 363 362 362 360 360 362 361 360 360 359 358 358 359 360
355 356 356 355 355 355 356 356 356 356 355 355 356 356 357 358 358 357 357 357 357 357 357 358 360 361 360 361 362 363 362 360 361 362 361 361 360 359 359 359 359 360
354 354 355 355 354 355 355 355 355 356 356 355 356 356 357 357 357 357 357 357 357 357 358 359 361 362 361 360 361 363 362 360 359 361 361 361 360 361 360 359 359 360
354 353 354 354 354 354 354 354 355 356 356 356 356 356 356 357 356 356 357 358 358 358 359 359 361 361 359 360 362 363 362 360 359 360 361 360 359 360 359 358 358 358
353 352 353 354 353 352 352 353 353 354 356 356 356 355 355 356 356 356 357 359 358 358 359 359 359 359 359 359 360 361 361 360 360 360 360 360 359 358 358 357 357 357
354 353 352 352 352 352 352 352 352 353 355 356 355 355 354 355 356 355 357 358 358 357 358 358 358 358 359 358 358 358 360 360 360 361 360 360 360 359 358 357 356 355
357 355 353 352 351 351 351 352 352 352 353 355 355 355 354 354 355 355 355 357 357 357 357 358 358 358 359 359 358 358 359 359 359 359 360 360 360 359 358 357 356 355
358 357 356 353 352 352 351 352 352 352 353 354 355 355 355 354 354 354 354 355 357 357 356 357 358 358 359 360 359 358 358 359 359 358 358 358 358 357 356 356 355 355
357 357 358 356 356 355 355 353 353 352 353 354 355 355 355 354 352 352 353 354 354 355 355 356 357 358 358 359 359 358 357 357 358 357 356 356 355 355 354 354 354 353
357 358 360 360 360 360 359 357 355 354 353 354 355 355 355 354 352 350 351 352 352 354 354 354 355 355 356 356 357 357 356 355 355 355 355 355 354 355 354 353 354 352
357 360 361 361 361 362 361 360 358 356 355 355 355 355 354 354 354 353 352 351 351 353 353 353 352 352 353 354 355 355 354 354 354 354 355 355 354 355 354 353 353 351
354 357 359 359 360 361 360 359 359 357 356 357 356 357 356 356 355 355 353 351 350 351 351 351 350 349 352 353 353 351 351 353 354 354 354 355 354 354 354 352 351 350
350 352 354 355 357 358 357 358 358 357 357 356 356 357 357 357 356 355 354 352 350 349 349 349 348 347 350 352 351 350 349 350 351 352 351 352 352 353 353 352 350 349
351 351 351 352 354 354 355 355 355 356 356 356 355 356 357 357 357 355 354 353 351 350 350 349 347 348 350 350 350 350 349 348 349 351 351 351 351 351 352 353 353 352
351 350 350 350 350 351 352 353 353 354 355 355 355 356 356 357 357 356 356 355 353 353 353 351 349 350 351 351 351 351 351 350 349 351 352 351 351 352 351 353 354 356
348 347 348 347 348 348 349 349 351 352 353 354 354 354 355 356 356 356 357 357 356 355 355 354 353 353 353 353 352 352 352 351 351 352 353 352 352 352 352 353 355 357
341 342 343 344 344 345 346 347 348 349 351 352 352 352 354 355 355 355 355 356 357 357 357 357 355 355 354 353 353 353 352 352 352 353 354 353 353 352 353 356 358 359
335 336 338 339 340 341 341 342 344 346 349 351 352 352 354 354 354 355 355 356 357 357 357 357 356 355 354 352 352 352 351 353 355 355 356 356 356 356 356 357 358 358
331 332 332 334 335 336 336 337 338 340 343 347 349 351 351 352 352 353 353 354 354 352 354 355 354 352 352 352 352 352 351 353 355 356 356 357 358 357 358 359 359 357
329 330 330 329 329 330 330 331 333 335 338 341 344 346 347 347 348 348 348 348 347 346 349 351 350 350 351 352 352 353 353 353 355 356 357 357 357 357 356 357 356 355
328 329 330 330 330 330 330 328 328 330 333 336 339 340 341 342 344 345 345 345 344 345 344 343 343 344 347 349 351 352 353 354 354 355 354 354 353 352 353 353 352 352

ECMWFNIL_925_thetae_117.txt.gz
Theta_e
358 358 358 358 358 357 358 358 357 358 358 357 356 356 357 357 357 357 358 360 360 362 364 363 362 362 362 363 363 360 362 362 359 358 360 361 359 358 357 356 356 357
357 358 358 358 358 359 359 358 357 358 358 359 357 356 358 358 357 357 359 361 360 361 364 364 362 362 361 362 363 361 362 364 360 359 361 361 360 358 358 356 356 357
357 358 358 357 358 358 357 357 358 359 358 358 357 357 358 358 357 357 358 360 359 359 361 361 361 361 360 363 365 361 361 363 361 359 362 362 360 359 358 356 355 356
358 357 356 355 355 356 356 356 358 359 358 357 357 355 356 356 357 357 358 359 359 360 360 360 361 361 360 363 364 360 360 363 362 361 364 363 361 360 358 357 356 356
357 357 356 355 353 354 355 355 356 357 356 357 357 355 356 358 359 358 358 358 359 360 361 361 361 360 361 363 363 360 360 360 360 361 363 363 361 358 356 358 358 358
356 356 356 356 355 354 355 355 355 355 355 356 356 356 356 358 358 358 358 358 358 357 358 359 359 359 359 362 363 361 359 358 358 360 361 361 360 358 356 358 360 360
354 355 355 355 355 355 355 355 355 356 355 355 355 355 356 357 358 358 358 359 357 357 356 357 359 359 359 361 363 362 361 358 358 360 361 361 361 360 359 359 361 361
352 353 354 354 354 354 354 355 356 356 356 355 354 355 356 357 357 357 358 358 357 357 357 358 361 361 359 360 361 363 363 359 357 359 359 360 361 361 360 359 360 360
351 352 353 353 352 352 353 353 354 355 355 355 355 355 355 356 357 357 358 358 356 358 358 359 362 362 359 359 361 363 364 361 358 359 360 360 360 359 359 358 357 358
351 351 351 352 351 351 351 351 352 353 355 355 355 355 355 355 356 356 358 359 357 359 360 360 361 361 358 358 360 362 362 360 359 360 361 361 360 358 358 358 356 356
351 351 350 351 351 351 350 351 351 351 353 354 354 354 353 354 356 356 358 360 358 358 360 360 360 360 359 357 357 358 358 358 357 358 359 359 358 357 357 357 356 355
353 352 351 350 351 351 350 350 350 351 351 351 352 354 353 353 355 355 356 359 359 358 357 359 359 359 359 358 358 357 358 358 357 357 358 358 357 357 356 356 355 353
356 353 352 350 350 351 350 350 350 350 350 350 351 352 353 353 354 354 355 356 358 357 355 356 359 358 358 359 358 357 358 359 358 357 357 357 357 355 354 354 353 353
358 355 353 351 350 350 350 351 351 351 350 350 350 351 353 353 352 353 355 354 355 356 354 354 356 357 357 358 359 358 358 359 359 358 357 357 356 355 354 352 352 351
359 357 356 354 353 354 354 353 352 352 352 351 351 351 352 353 353 352 353 354 354 354 354 353 353 354 355 356 357 358 358 357 357 356 355 355 355 354 353 352 351 351
360 361 360 358 358 358 358 357 355 353 353 353 352 353 352 353 354 353 352 352 353 354 353 352 351 350 351 353 354 356 357 356 355 353 353 354 355 354 354 352 351 350
359 361 361 359 361 363 362 361 359 357 356 354 354 354 355 355 356 355 354 352 352 352 353 353 351 348 348 349 351 354 355 355 353 352 353 355 354 354 354 352 350 349
357 359 359 357 359 363 365 364 363 362 360 357 356 356 356 357 356 356 355 354 353 352 352 351 350 348 346 347 349 351 352 352 351 350 350 351 351 351 352 351 350 348
356 356 357 357 357 359 362 363 363 364 362 359 358 357 357 357 357 356 356 355 353 352 350 348 347 346 345 346 348 350 351 350 349 348 348 348 349 349 349 349 351 350
356 355 355 355 356 355 356 357 358 360 359 359 359 358 357 358 357 356 355 354 353 352 349 348 348 348 348 348 349 350 350 349 349 348 348 347 348 349 349 349 350 350
354 355 354 354 354 353 352 353 354 356 356 358 359 357 356 357 356 356 355 353 353 352 349 349 351 351 351 349 350 350 349 349 350 350 349 347 348 350 350 350 350 350
348 350 350 351 351 351 350 351 353 353 354 354 355 355 356 355 353 353 355 355 354 352 350 350 351 352 352 351 351 352 351 351 353 353 352 351 349 349 349 351 353 354
343 344 344 345 346 347 348 349 350 350 351 351 352 353 354 353 350 351 353 354 353 351 350 351 352 352 353 353 353 353 353 354 355 355 354 352 350 350 352 354 355 355
338 338 339 339 340 342 344 344 345 346 347 348 349 350 350 349 349 351 354 354 352 352 352 352 351 351 352 354 354 354 353 353 355 356 354 351 351 351 352 354 354 355
334 335 336 336 336 338 340 341 342 343 344 345 345 346 346 347 348 349 351 351 350 351 352 351 348 347 349 351 353 353 352 352 354 356 354 352 352 350 350 351 352 353
334 335 335 335 336 336 336 336 336 336 339 342 342 342 344 345 345 345 347 347 347 347 348 347 345 344 345 348 350 351 352 353 354 354 353 352 352 351 351 352 352 351

ECMWFNIL_925_thetae_120.txt.gz
Theta_e
359 358 357 358 359 358 358 359 359 358 358 359 358 358 358 357 355 354 356 358 358 361 361 359 360 358 358 359 358 359 358 356 357 357 357 358 358 356 355 355 354 354
359 358 357 359 358 357 358 358 358 357 357 357 356 356 356 356 356 355 356 358 359 361 361 360 360 358 359 360 358 359 358 355 357 359 358 359 359 357 356 354 354 354
358 358 358 358 357 357 358 357 357 357 356 357 357 356 356 357 357 356 358 360 359 359 361 361 361 358 360 360 355 357 359 356 357 359 358 359 359 358 357 355 353 353
358 358 358 357 357 357 357 356 357 358 357 357 357 356 356 356 357 357 358 359 359 359 359 360 361 359 360 358 352 354 358 357 358 358 358 358 358 358 357 356 354 353
358 358 358 356 355 356 357 356 356 357 357 357 356 357 355 355 356 356 357 358 358 360 360 359 360 359 360 359 355 355 359 359 360 358 358 358 360 359 357 356 356 355
358 357 357 356 355 354 355 355 355 356 356 356 356 356 354 354 356 357 357 358 358 359 359 359 360 359 359 361 360 358 359 360 360 358 358 360 361 359 357 356 357 358
357 357 357 356 355 354 354 354 355 356 355 355 355 355 355 356 357 357 357 358 357 356 356 357 359 359 358 359 361 360 360 359 359 358 358 360 361 360 358 357 358 359
356 357 357 356 356 354 354 354 355 356 355 354 354 355 356 356 357 357 356 357 357 356 356 356 356 357 358 359 361 362 361 360 359 358 358 359 360 360 360 358 358 359
353 355 356 356 355 354 354 354 354 355 355 354 355 355 355 355 356 357 355 356 357 356 357 357 357 359 358 359 360 361 361 361 359 358 359 359 359 359 359 359 358 358
352 353 354 354 354 353 353 353 352 354 355 355 355 354 354 354 356 356 356 357 357 356 357 358 359 361 360 358 358 359 361 362 360 357 358 360 360 359 358 358 357 356
351 351 352 352 352 351 351 351 351 352 354 355 354 354 353 354 355 356 356 358 357 357 358 360 359 360 360 358 357 358 359 360 359 357 358 359 359 359 357 357 357 356
351 351 351 351 351 350 350 350 350 351 352 354 354 354 354 354 355 355 355 357 359 357 357 359 360 359 359 360 359 357 357 358 356 356 357 357 358 358 357 356 356 356
352 351 351 350 351 351 350 350 349 349 350 352 354 354 354 354 353 354 354 356 359 359 357 357 359 359 359 360 359 358 357 357 357 356 356 356 356 355 355 355 353 353
354 353 352 351 350 350 350 350 350 349 350 351 352 351 352 353 353 353 354 354 357 359 358 356 356 358 358 358 358 358 357 356 357 357 356 355 355 354 354 354 352 351
358 355 354 353 352 351 350 350 350 349 350 351 351 350 350 351 352 352 353 353 355 356 356 355 354 355 357 357 357 357 357 356 357 357 356 355 355 355 354 353 352 350
358 357 356 354 353 353 352 351 351 352 351 351 351 350 350 351 351 351 352 352 352 354 354 354 353 351 353 354 355 356 357 357 357 356 356 355 354 353 353 353 352 350
359 358 360 357 355 355 355 355 354 354 354 353 353 352 351 351 351 352 353 352 352 353 353 353 352 351 350 351 353 354 354 355 356 356 355 353 352 352 352 353 353 351
360 359 361 360 358 357 358 358 357 357 356 355 355 354 352 353 353 354 354 353 353 352 351 352 352 350 349 349 349 349 350 352 354 354 352 350 350 350 350 350 350 350
357 357 358 359 359 358 359 360 359 359 359 358 358 355 351 351 352 353 355 355 355 354 352 351 350 349 348 347 348 349 350 351 351 350 349 348 347 347 347 347 348 348
354 355 355 356 356 357 359 359 359 359 358 358 359 356 353 353 352 350 350 352 354 354 351 350 350 349 347 346 348 350 350 351 351 351 349 347 346 346 346 347 348 348
353 354 353 353 353 353 356 356 356 357 357 356 357 355 354 354 353 351 351 351 352 352 350 349 347 348 348 347 348 351 352 352 351 351 350 349 348 348 347 348 350 351
350 350 350 350 350 351 353 354 354 355 355 355 356 354 354 355 354 353 352 351 352 352 351 349 348 348 349 349 351 351 351 351 351 352 353 352 351 350 348 348 350 353
345 345 345 345 347 348 349 350 352 353 352 353 353 352 353 355 355 354 353 352 352 352 352 350 349 349 350 351 351 351 351 351 352 355 356 355 354 353 350 350 351 353
341 341 341 341 343 344 345 346 347 349 349 349 350 350 351 352 353 353 351 351 352 352 352 351 351 351 351 352 352 352 352 352 354 357 359 356 355 354 352 351 352 352
338 339 339 339 340 340 341 342 344 345 346 346 347 348 348 349 350 349 348 349 350 350 351 350 350 350 350 350 351 352 353 353 353 356 357 356 355 354 353 352 352 352
337 337 337 337 338 338 337 338 339 341 343 344 345 346 347 347 348 347 346 347 347 347 347 347 346 346 346 347 348 349 351 352 353 354 354 354 354 354 354 353 353 352

ECMWFNIL_925_thetae_123.txt.gz
Theta_e
353 352 354 353 352 352 353 355 357 358 358 356 355 356 357 356 355 356 355 356 358 357 358 358 358 357 356 357 358 358 358 356 356 357 356 358 357 356 355 354 354 355
355 354 354 354 353 353 354 355 356 357 358 358 356 355 357 358 356 355 354 356 358 357 358 358 356 355 355 357 358 357 357 355 355 357 357 357 357 357 356 354 355 356
357 356 356 355 355 356 357 357 357 358 357 358 357 355 356 358 357 355 353 356 358 358 358 358 356 354 356 358 358 356 356 354 355 357 357 357 357 358 358 356 354 354
358 358 357 356 358 358 358 358 357 358 357 357 357 355 355 356 356 355 354 356 358 358 359 359 359 357 356 359 359 356 356 355 357 358 357 358 358 357 358 358 354 352
358 359 357 357 358 358 357 357 357 357 356 356 356 356 355 356 357 356 356 358 358 358 359 359 360 359 357 358 358 355 354 355 358 358 356 356 356 355 357 357 355 353
358 358 358 357 358 356 356 357 357 356 356 356 356 356 356 356 357 357 356 358 358 358 360 359 359 360 359 358 357 355 354 356 359 358 356 355 355 357 358 358 357 355
357 358 357 357 357 356 356 356 356 356 356 357 356 356 356 356 355 356 356 357 357 357 359 360 359 359 359 359 359 357 356 358 360 358 355 355 356 357 359 359 357 356
358 358 357 357 357 356 355 355 356 356 356 356 356 355 356 355 353 355 356 357 357 357 358 358 358 358 359 359 359 359 358 358 358 356 355 355 356 357 358 359 358 357
358 358 357 357 356 355 355 354 354 355 355 356 356 356 355 355 354 355 356 357 357 357 356 357 358 357 357 358 358 358 359 359 358 357 356 357 356 356 358 359 358 357
357 358 357 356 356 356 355 354 353 354 355 355 355 355 355 355 355 355 357 356 356 357 356 356 356 357 356 357 358 359 360 360 360 360 358 356 356 357 358 358 358 357
356 356 356 356 356 356 355 354 354 354 355 355 354 354 354 355 355 355 356 357 356 356 357 356 356 356 357 358 358 359 359 359 360 361 359 357 357 358 359 358 358 358
354 354 356 356 355 355 355 354 353 353 353 354 354 354 354 354 354 355 356 356 356 356 356 356 357 358 358 359 359 358 358 358 358 360 359 358 357 358 358 358 357 356
352 352 353 354 354 353 352 352 352 352 352 353 354 354 354 353 353 354 355 355 356 356 357 356 357 358 359 359 359 358 358 357 357 358 357 357 357 357 357 357 357 355
352 353 352 352 353 352 351 351 350 350 350 350 352 354 354 353 353 354 355 355 355 356 357 357 357 358 358 359 359 359 359 358 357 357 357 356 356 356 356 356 356 354
352 353 352 352 352 352 352 351 350 350 350 350 351 353 354 354 353 353 353 353 354 356 357 357 357 357 358 358 358 358 358 358 357 357 356 356 356 355 355 354 354 353
352 352 352 352 352 352 352 352 351 350 350 351 352 352 353 352 352 352 352 351 352 352 354 355 355 356 356 356 357 358 357 357 357 356 356 356 356 355 355 354 353 353
354 352 352 352 353 352 352 352 352 351 351 352 353 353 352 352 351 351 351 350 350 350 350 351 351 352 353 354 354 355 356 356 356 356 356 356 355 354 352 352 351 350
357 356 355 354 355 354 354 354 354 353 352 353 354 354 354 353 352 352 350 349 349 348 349 350 350 351 352 352 350 351 354 356 355 355 354 354 353 351 349 349 349 349
357 357 357 358 359 358 356 355 355 356 355 355 355 355 355 353 352 351 350 349 349 349 349 349 350 351 351 351 350 349 351 355 355 353 353 353 351 348 347 349 350 350
355 356 357 358 358 358 357 357 357 358 357 357 357 356 356 355 352 351 351 350 350 351 351 351 351 351 350 350 349 349 348 350 352 353 352 351 349 348 348 349 350 350
353 355 355 355 355 354 355 355 355 356 357 357 357 356 356 355 354 353 352 351 351 352 352 352 351 351 350 349 348 348 347 346 348 352 353 351 350 350 348 348 349 349
349 351 350 350 351 352 352 351 350 351 354 355 356 356 355 355 354 353 352 351 351 352 351 350 349 349 349 349 348 347 347 348 350 352 352 352 352 351 350 349 348 347
343 344 345 347 349 351 350 350 350 350 352 353 354 354 354 354 354 354 353 351 351 351 351 350 349 349 348 349 349 349 348 349 351 352 353 354 354 353 351 350 350 349
340 341 342 343 346 347 347 348 349 349 350 351 351 352 351 351 352 353 351 350 350 351 352 351 350 349 349 350 350 350 350 351 351 353 355 356 356 355 353 352 352 351
339 339 339 339 340 341 342 344 346 346 347 348 348 348 348 348 349 349 348 347 348 349 350 350 349 348 348 350 350 350 351 351 352 354 356 356 356 355 354 353 352 352
337 337 337 337 337 337 338 339 342 344 345 346 346 346 346 346 346 347 347 346 346 346 346 345 345 345 346 348 349 350 351 352 352 353 354 355 355 355 354 353 352 352

ECMWFNIL_925_thetae_126.txt.gz
Theta_e
351 351 350 351 352 351 352 353 353 353 354 355 355 355 355 355 355 356 356 356 357 358 358 357 357 356 356 356 356 355 355 356 356 356 357 357 357 356 356 355 353 353
351 350 350 351 351 350 352 353 354 354 354 355 355 354 355 356 356 355 355 356 357 357 356 357 357 357 356 356 356 356 356 356 356 355 356 356 357 356 356 356 355 354
351 352 350 351 351 350 351 352 354 354 355 356 356 355 355 355 356 355 354 355 356 356 356 357 357 358 356 356 355 355 356 357 355 354 356 355 355 356 356 357 356 355
350 351 351 351 352 351 350 351 352 353 355 357 357 356 355 355 356 357 355 355 355 355 356 357 358 357 356 355 356 355 355 355 354 354 355 355 355 357 357 357 357 355
350 353 352 352 353 352 351 351 352 353 354 355 357 357 356 355 356 357 356 355 354 356 357 357 358 358 356 355 357 358 357 355 354 354 354 354 356 357 356 356 356 355
352 353 354 354 355 354 353 353 354 355 355 356 356 356 357 356 356 356 356 354 353 355 356 357 358 358 356 355 356 359 358 355 353 354 355 354 355 354 355 357 356 356
355 355 356 355 356 355 355 356 357 357 356 356 356 355 356 356 354 356 356 355 354 355 357 358 358 359 357 357 357 357 356 353 353 355 356 355 354 353 355 358 357 357
356 357 356 357 357 356 357 358 357 357 357 356 356 356 355 355 355 356 356 356 355 356 358 357 358 358 358 358 359 358 357 355 355 357 357 356 354 354 355 358 359 358
357 357 357 357 357 357 357 358 356 356 357 356 356 356 356 356 355 356 357 356 356 356 357 357 358 359 358 358 358 358 359 357 356 356 356 354 354 354 354 356 358 359
358 357 358 357 357 357 357 357 356 355 356 357 356 356 356 356 356 356 355 356 355 356 357 356 357 357 358 358 358 358 359 358 357 358 356 355 355 354 354 355 357 358
359 358 358 357 357 357 357 356 356 355 356 356 356 355 355 355 355 355 355 354 354 355 356 356 356 356 356 358 357 357 358 358 358 359 358 358 357 356 355 356 357 357
359 358 357 357 357 357 357 356 355 355 354 354 355 355 355 355 355 355 354 353 355 355 356 356 356 355 356 357 357 357 357 357 358 359 359 359 359 358 357 357 358 358
359 359 358 357 357 356 356 356 355 355 354 353 353 354 355 355 354 354 354 355 355 354 354 354 354 353 353 353 354 356 356 357 359 358 358 358 359 359 357 356 358 357
357 358 358 357 356 355 355 355 355 355 354 353 353 354 354 354 353 353 355 356 355 353 353 354 354 352 352 351 352 352 353 357 358 358 357 357 358 358 357 357 357 357
356 356 356 356 356 356 355 354 355 354 354 354 352 353 354 354 354 353 354 354 354 354 354 354 354 351 350 350 350 350 352 355 357 358 358 357 357 357 357 357 357 357
353 353 353 354 355 355 355 355 354 353 352 352 351 352 353 354 354 354 353 353 353 354 354 354 354 352 352 351 352 351 351 353 355 356 358 358 356 355 355 355 355 355
351 350 350 352 352 353 354 355 354 353 352 351 350 351 352 353 354 353 352 351 352 353 354 354 353 353 353 352 352 353 353 354 354 355 357 357 356 354 355 354 354 354
351 350 350 351 351 351 351 353 355 354 354 353 352 351 352 353 353 353 352 352 352 351 352 353 352 352 352 352 352 352 354 356 354 353 355 356 356 355 355 355 354 352
352 351 352 352 352 353 353 354 355 355 355 354 354 353 352 352 351 351 351 351 351 351 350 350 350 350 351 351 351 350 350 353 354 354 355 356 355 355 354 353 351 349
353 352 353 354 354 354 354 355 356 356 356 355 356 355 354 352 351 351 350 350 349 349 349 349 348 349 349 351 351 349 348 349 350 353 355 355 354 353 353 352 349 348
353 353 354 354 353 353 356 357 356 355 354 355 355 355 355 354 351 350 350 349 349 349 349 349 349 348 349 350 350 350 349 348 348 350 353 355 354 353 352 351 349 347
352 352 351 350 349 350 353 355 354 351 352 353 354 354 354 354 352 350 350 350 350 351 351 350 351 350 351 351 350 349 349 348 348 346 347 351 352 351 351 350 349 348
347 348 347 347 347 348 350 352 351 349 350 352 352 351 351 351 352 351 351 351 350 351 351 351 350 351 351 350 350 348 349 348 347 346 346 349 351 351 351 351 349 349
342 343 343 343 344 346 348 349 349 349 350 350 348 348 349 349 350 351 351 351 351 351 351 351 350 350 350 349 348 349 349 348 348 350 351 352 352 352 352 351 351 351
338 338 339 339 340 341 343 346 347 348 348 347 345 345 346 346 347 348 349 348 348 349 350 351 350 349 349 348 349 350 350 350 350 353 355 355 354 354 353 353 352 352
336 336 337 337 337 338 339 341 343 344 345 345 345 344 344 344 345 345 346 345 345 347 348 348 348 347 346 348 348 349 349 350 352 353 355 355 355 354 354 354 353 352

ECMWFNIL_925_thetae_129.txt.gz
Theta_e
350 351 351 351 352 352 352 352 353 354 354 353 352 353 354 354 356 356 356 356 355 355 356 357 357 357 356 355 354 355 355 354 355 355 355 354 355 355 355 355 354 353
350 352 353 353 353 353 352 351 352 352 352 352 351 352 353 354 355 355 355 355 355 354 356 357 358 357 356 355 355 356 356 355 355 356 355 355 355 356 356 356 354 353
351 353 354 353 352 352 351 351 351 351 352 352 352 352 353 354 354 354 355 355 355 355 355 357 357 356 356 356 356 356 356 355 355 356 356 355 356 356 355 356 355 354
351 352 353 352 351 351 350 350 351 351 352 353 353 353 353 354 354 354 355 355 355 355 355 356 356 356 356 357 357 356 356 356 355 356 355 354 355 356 355 356 356 356
350 351 352 351 351 350 350 350 350 350 352 353 353 353 354 355 355 354 354 355 355 355 354 355 355 355 356 357 357 357 356 356 355 355 355 354 355 356 356 356 357 356
350 350 350 351 351 351 350 350 350 350 351 352 352 353 354 356 356 355 354 354 355 356 355 355 354 355 356 357 358 357 356 356 356 356 355 355 355 355 355 356 355 356
351 349 350 350 350 351 351 351 351 351 350 351 351 352 353 355 356 356 355 354 356 357 356 354 353 355 356 357 358 357 356 356 356 357 356 354 355 355 354 354 354 355
351 350 349 349 350 351 352 352 352 352 351 351 353 353 354 354 356 356 356 355 355 356 356 354 353 355 356 357 358 357 357 356 356 356 355 354 355 356 354 353 354 356
352 351 350 350 349 351 353 353 354 354 353 353 355 356 355 355 355 355 355 355 355 355 355 355 354 355 356 357 358 358 357 357 357 357 356 355 355 355 354 354 354 355
353 353 353 352 352 352 354 355 355 355 355 355 356 357 356 356 355 355 355 355 355 355 355 355 355 355 357 357 358 358 358 357 357 357 358 357 356 355 354 354 354 354
354 354 355 355 354 354 355 356 356 355 356 356 356 356 356 356 356 355 356 355 355 355 356 356 356 356 357 357 358 358 359 358 358 358 358 357 357 357 356 355 355 354
355 355 356 357 356 356 356 357 356 356 356 356 356 356 355 356 356 355 355 356 355 355 355 356 355 356 356 356 357 357 357 358 357 357 358 358 358 358 358 358 357 356
356 356 357 356 356 356 356 357 357 356 356 356 356 356 355 355 356 356 355 355 355 355 355 355 354 354 355 355 356 355 356 355 355 356 358 358 358 358 358 358 358 357
357 357 357 356 356 355 355 355 356 356 356 356 356 355 355 355 354 354 355 355 355 355 354 354 353 353 354 355 355 355 354 353 353 354 356 357 358 358 358 357 357 357
357 357 357 356 356 355 354 354 354 355 355 355 356 355 355 354 353 353 354 354 355 355 354 354 353 353 353 353 354 354 352 351 352 353 354 356 357 358 357 357 356 356
356 356 355 355 355 354 353 353 353 354 354 354 355 355 354 354 353 353 353 354 354 354 353 354 354 354 353 353 353 354 352 350 350 351 353 355 356 357 357 357 357 356
354 354 354 353 353 352 352 351 351 352 352 353 354 354 354 354 352 352 353 353 354 354 353 354 354 354 354 352 353 353 352 350 350 350 351 353 355 356 356 357 357 355
352 353 353 351 351 351 350 350 351 351 351 352 353 353 353 352 351 351 352 352 353 353 353 353 353 353 353 352 353 353 352 351 351 351 351 352 353 354 355 356 357 355
351 351 351 351 351 350 349 350 351 352 352 351 352 353 352 351 350 351 352 352 352 352 352 352 352 352 353 353 354 353 352 352 352 351 353 353 353 354 354 355 355 355
350 350 351 351 351 350 350 351 351 351 351 353 354 354 352 351 350 351 351 351 351 351 350 351 351 352 352 353 353 353 352 352 351 351 352 352 353 354 353 353 354 353
351 351 350 351 351 351 352 352 352 353 354 354 355 355 354 353 351 351 350 350 349 349 349 349 350 351 351 351 351 351 350 351 351 350 348 348 350 352 353 353 353 351
351 352 352 352 351 351 351 352 353 353 353 354 354 355 355 354 352 351 350 348 348 348 348 347 348 348 349 349 349 349 349 350 350 349 347 346 347 348 350 351 352 351
349 350 351 351 351 348 348 349 350 349 348 350 352 353 353 353 353 352 351 349 349 349 349 348 348 348 348 348 348 349 349 349 349 348 347 347 346 347 347 348 349 351
344 345 346 346 346 345 345 346 347 346 347 348 349 349 349 350 351 351 350 349 349 349 349 348 348 347 347 348 348 349 348 349 349 347 347 347 346 346 345 344 346 349
340 341 341 341 342 343 344 345 346 346 347 348 348 348 348 348 348 348 348 348 347 348 349 347 345 345 346 347 347 348 348 349 349 348 349 349 347 346 347 348 350 351
337 337 337 337 338 339 341 343 344 345 345 345 346 346 346 346 345 345 345 345 344 344 345 343 342 345 346 345 345 347 347 348 349 350 351 352 350 350 352 352 352 352